Darstellungsparameter: Aktuell verwendete Einstellungen:
Skalierung der Graphiken ... ?
xyx+y,   Skalierungsfaktor:      Skalierung: Modus: x, Faktor: 1
Darstellungszeitraum ... ?
Vom - - bis: - -   Zeitraum: 24.07.2019 - 13.08.2019
Min/Max/Avg-Anzeige ... ?
Zeige MMA aktuell
Zeige MMA Monat
Zeige MMA alles
Zeige --A aktuell
Zeige --A Monat
Zeige --A alles
Keine MMA-Anzeige
MMA:
Minimum Maximum Average (ber die Originaldaten)
MMA-Basis: 24.07.2019 - 13.08.2019
Quicknavigation für Darstellung... ?
Tage:      1T, 2T, 3T, 5T -1T -2T -3T -5T +1T +2T +3T +5T
Wochen: 1W, 2W, 3W -1W -2W -3W +1W +2W +3W
Monate: 1M, 3M, 6M -1M -3M -6M +1M +3M +6M
Jahre:    1J, 3J, 5J, 10J -1J -3J -5J -10J +1J +3J +5J +10J
Nutze für die Darstellung ... ?
Originaldaten oder Mittelwerte auf ...
Stundenbasis Tagesbasis Wochenbasis
Monatsbasis Jahresbasis      Datenbasis: Original-Daten
Darstellen als:
Statistik (Auto) Statistik J:M      Darstellung:
Zur Graphik,    zurück zur Übersicht aller Sensoren.
 
Tabellarische Datenbersicht: ?
 
Sensor: Nr:Datum:Temp:Feuchte:Taupunkt:
Aussen-T/F 1 24-07-2019 00:00:00 22.1 C 69 % 16.15 C
2 24-07-2019 00:05:00 21.9 C 70 % 16.18 C
3 24-07-2019 00:10:00 21.8 C 70 % 16.09 C
4 24-07-2019 00:15:00 21.7 C 70 % 15.99 C
5 24-07-2019 00:20:00 21.6 C 71 % 16.12 C
6 24-07-2019 00:25:00 21.4 C 71 % 15.93 C
7 24-07-2019 00:30:00 21.4 C 72 % 16.14 C
8 24-07-2019 00:35:00 21.3 C 72 % 16.05 C
9 24-07-2019 00:40:00 21.2 C 73 % 16.17 C
10 24-07-2019 00:45:00 21.1 C 73 % 16.07 C
11 24-07-2019 00:50:00 20.9 C 73 % 15.88 C
12 24-07-2019 00:55:00 20.9 C 74 % 16.09 C
13 24-07-2019 01:00:00 20.8 C 74 % 16 C
14 24-07-2019 01:05:00 20.7 C 76 % 16.32 C
15 24-07-2019 01:10:00 20.7 C 76 % 16.32 C
16 24-07-2019 01:15:00 20.6 C 76 % 16.22 C
17 24-07-2019 01:20:00 20.6 C 76 % 16.22 C
18 24-07-2019 01:25:00 20.4 C 76 % 16.03 C
19 24-07-2019 01:30:00 20.3 C 77 % 16.14 C
20 24-07-2019 01:35:00 20.2 C 77 % 16.04 C
21 24-07-2019 01:40:00 20.1 C 77 % 15.94 C
22 24-07-2019 01:45:00 19.9 C 77 % 15.75 C
23 24-07-2019 01:50:00 19.8 C 77 % 15.65 C
24 24-07-2019 01:55:00 19.7 C 78 % 15.76 C
25 24-07-2019 02:00:00 19.7 C 78 % 15.76 C
Sensor: Nr:Datum:Temp:Feuchte:Taupunkt:
Aussen-T/F 26 24-07-2019 02:05:00 19.6 C 78 % 15.66 C
27 24-07-2019 02:10:00 19.5 C 78 % 15.56 C
28 24-07-2019 02:15:00 19.5 C 78 % 15.56 C
29 24-07-2019 02:20:00 19.4 C 78 % 15.47 C
30 24-07-2019 02:25:00 19.4 C 79 % 15.66 C
31 24-07-2019 02:30:00 19.3 C 79 % 15.57 C
32 24-07-2019 02:35:00 19.2 C 79 % 15.47 C
33 24-07-2019 02:40:00 19.1 C 80 % 15.57 C
34 24-07-2019 02:45:00 19.1 C 80 % 15.57 C
35 24-07-2019 02:50:00 19 C 80 % 15.47 C
36 24-07-2019 02:55:00 18.9 C 81 % 15.57 C
37 24-07-2019 03:00:00 18.9 C 81 % 15.57 C
38 24-07-2019 03:05:00 19.1 C 81 % 15.76 C
39 24-07-2019 03:10:00 19.1 C 80 % 15.57 C
40 24-07-2019 03:15:00 18.9 C 80 % 15.38 C
41 24-07-2019 03:20:00 18.8 C 80 % 15.28 C
42 24-07-2019 03:25:00 18.7 C 81 % 15.37 C
43 24-07-2019 03:30:00 18.6 C 82 % 15.47 C
44 24-07-2019 03:35:00 18.5 C 83 % 15.56 C
45 24-07-2019 03:40:00 18.4 C 83 % 15.46 C
46 24-07-2019 03:45:00 18.3 C 83 % 15.36 C
47 24-07-2019 03:50:00 18.2 C 83 % 15.27 C
48 24-07-2019 03:55:00 18.1 C 84 % 15.35 C
49 24-07-2019 04:00:00 18.1 C 84 % 15.35 C
50 24-07-2019 04:05:00 18 C 84 % 15.26 C
Sensor: Nr:Datum:Temp:Feuchte:Taupunkt:
Aussen-T/F 51 24-07-2019 04:10:00 17.9 C 84 % 15.16 C
52 24-07-2019 04:15:00 17.9 C 84 % 15.16 C
53 24-07-2019 04:20:00 17.8 C 84 % 15.06 C
54 24-07-2019 04:25:00 17.8 C 84 % 15.06 C
55 24-07-2019 04:30:00 17.8 C 85 % 15.25 C
56 24-07-2019 04:35:00 17.7 C 85 % 15.15 C
57 24-07-2019 04:40:00 17.7 C 85 % 15.15 C
58 24-07-2019 04:45:00 17.6 C 85 % 15.05 C
59 24-07-2019 04:50:00 17.5 C 85 % 14.95 C
60 24-07-2019 04:55:00 17.4 C 86 % 15.03 C
61 24-07-2019 05:00:00 17.4 C 86 % 15.03 C
62 24-07-2019 05:05:00 17.4 C 86 % 15.03 C
63 24-07-2019 05:10:00 17.3 C 86 % 14.94 C
64 24-07-2019 05:15:00 17.3 C 87 % 15.12 C
65 24-07-2019 05:20:00 17.3 C 87 % 15.12 C
66 24-07-2019 05:25:00 17.2 C 87 % 15.02 C
67 24-07-2019 05:30:00 17.2 C 87 % 15.02 C
68 24-07-2019 05:35:00 17.2 C 88 % 15.2 C
69 24-07-2019 05:40:00 17.2 C 88 % 15.2 C
70 24-07-2019 05:45:00 17.1 C 88 % 15.1 C
71 24-07-2019 05:50:00 17.1 C 87 % 14.92 C
72 24-07-2019 05:55:00 17.1 C 88 % 15.1 C
73 24-07-2019 06:00:00 17.1 C 88 % 15.1 C
74 24-07-2019 06:05:00 17.1 C 88 % 15.1 C
75 24-07-2019 06:10:00 17.1 C 88 % 15.1 C
Sensor: Nr:Datum:Temp:Feuchte:Taupunkt:
Aussen-T/F 76 24-07-2019 06:15:00 17.1 C 88 % 15.1 C
77 24-07-2019 06:20:00 17 C 88 % 15 C
78 24-07-2019 06:25:00 17.1 C 88 % 15.1 C
79 24-07-2019 06:30:00 17.1 C 88 % 15.1 C
80 24-07-2019 06:35:00 17 C 88 % 15 C
81 24-07-2019 06:40:00 17 C 88 % 15 C
82 24-07-2019 06:45:00 17.1 C 89 % 15.27 C
83 24-07-2019 06:50:00 17.1 C 89 % 15.27 C
84 24-07-2019 06:55:00 17.1 C 89 % 15.27 C
85 24-07-2019 07:00:00 17.1 C 90 % 15.45 C
86 24-07-2019 07:05:00 17.1 C 90 % 15.45 C
87 24-07-2019 07:10:00 17.1 C 90 % 15.45 C
88 24-07-2019 07:15:00 17.1 C 90 % 15.45 C
89 24-07-2019 07:20:00 17.2 C 90 % 15.55 C
90 24-07-2019 07:25:00 17.2 C 90 % 15.55 C
91 24-07-2019 07:30:00 17.3 C 90 % 15.64 C
92 24-07-2019 07:35:00 17.3 C 90 % 15.64 C
93 24-07-2019 07:40:00 17.3 C 90 % 15.64 C
94 24-07-2019 07:45:00 17.4 C 90 % 15.74 C
95 24-07-2019 07:50:00 17.5 C 90 % 15.84 C
96 24-07-2019 07:55:00 17.6 C 90 % 15.94 C
97 24-07-2019 08:00:00 17.6 C 90 % 15.94 C
98 24-07-2019 08:05:00 17.7 C 90 % 16.04 C
99 24-07-2019 08:10:00 17.8 C 90 % 16.14 C
100 24-07-2019 08:15:00 18 C 89 % 16.16 C
Sensor: Nr:Datum:Temp:Feuchte:Taupunkt:
Aussen-T/F 101 24-07-2019 08:20:00 18.2 C 89 % 16.36 C
102 24-07-2019 08:25:00 18.3 C 89 % 16.46 C
103 24-07-2019 08:30:00 18.4 C 89 % 16.55 C
104 24-07-2019 08:35:00 18.5 C 88 % 16.48 C
105 24-07-2019 08:40:00 18.6 C 88 % 16.57 C
106 24-07-2019 08:45:00 18.8 C 88 % 16.77 C
107 24-07-2019 08:50:00 18.9 C 88 % 16.87 C
108 24-07-2019 08:55:00 19.1 C 88 % 17.07 C
109 24-07-2019 09:00:00 19.2 C 88 % 17.16 C
110 24-07-2019 09:05:00 19.3 C 88 % 17.26 C
111 24-07-2019 09:10:00 19.5 C 88 % 17.46 C
112 24-07-2019 09:15:00 19.6 C 87 % 17.38 C
113 24-07-2019 09:20:00 19.8 C 87 % 17.57 C
114 24-07-2019 09:25:00 20.1 C 86 % 17.68 C
115 24-07-2019 09:30:00 20.3 C 86 % 17.88 C
116 24-07-2019 09:35:00 20.5 C 85 % 17.89 C
117 24-07-2019 09:40:00 20.7 C 84 % 17.9 C
118 24-07-2019 09:45:00 20.9 C 83 % 17.9 C
119 24-07-2019 09:50:00 21.3 C 82 % 18.1 C
120 24-07-2019 09:55:00 21.6 C 80 % 18 C
121 24-07-2019 10:00:00 21.9 C 78 % 17.89 C
122 24-07-2019 10:05:00 22.3 C 79 % 18.48 C
123 24-07-2019 10:10:00 22.6 C 77 % 18.36 C
124 24-07-2019 10:15:00 22.8 C 75 % 18.14 C
125 24-07-2019 10:20:00 23.1 C 74 % 18.21 C
Sensor: Nr:Datum:Temp:Feuchte:Taupunkt:
Aussen-T/F 126 24-07-2019 10:25:00 23.6 C 73 % 18.48 C
127 24-07-2019 10:30:00 24 C 72 % 18.64 C
128 24-07-2019 10:35:00 24.3 C 71 % 18.7 C
129 24-07-2019 10:40:00 24.6 C 69 % 18.53 C
130 24-07-2019 10:45:00 24.9 C 67 % 18.35 C
131 24-07-2019 10:50:00 25.3 C 67 % 18.73 C
132 24-07-2019 10:55:00 25.6 C 67 % 19.01 C
133 24-07-2019 11:00:00 25.8 C 67 % 19.2 C
134 24-07-2019 11:05:00 26 C 64 % 18.66 C
135 24-07-2019 11:10:00 26.3 C 66 % 19.44 C
136 24-07-2019 11:15:00 26.6 C 65 % 19.48 C
137 24-07-2019 11:20:00 26.8 C 60 % 18.38 C
138 24-07-2019 11:25:00 27.1 C 60 % 18.66 C
139 24-07-2019 11:30:00 27.4 C 59 % 18.68 C
140 24-07-2019 11:35:00 27.9 C 58 % 18.87 C
141 24-07-2019 11:40:00 28.3 C 55 % 18.39 C
142 24-07-2019 11:45:00 28.6 C 54 % 18.38 C
143 24-07-2019 11:50:00 29 C 53 % 18.45 C
144 24-07-2019 11:55:00 29.4 C 53 % 18.82 C
145 24-07-2019 12:00:00 29.8 C 53 % 19.19 C
146 24-07-2019 12:05:00 30.3 C 48 % 18.06 C
147 24-07-2019 12:10:00 30.7 C 47 % 18.09 C
148 24-07-2019 12:15:00 31.2 C 44 % 17.49 C
149 24-07-2019 12:20:00 31.7 C 42 % 17.21 C
150 24-07-2019 12:25:00 32.1 C 43 % 17.94 C
Sensor: Nr:Datum:Temp:Feuchte:Taupunkt:
Aussen-T/F 151 24-07-2019 12:30:00 32.4 C 38 % 16.25 C
152 24-07-2019 12:35:00 32.8 C 37 % 16.19 C
153 24-07-2019 12:40:00 33 C 37 % 16.36 C
154 24-07-2019 12:45:00 33.3 C 38 % 17.05 C
155 24-07-2019 12:50:00 33.5 C 37 % 16.81 C
156 24-07-2019 12:55:00 33.7 C 36 % 16.55 C
157 24-07-2019 13:00:00 33.8 C 34 % 15.74 C
158 24-07-2019 13:05:00 33.9 C 31 % 14.39 C
159 24-07-2019 13:10:00 33.9 C 30 % 13.89 C
160 24-07-2019 13:15:00 33.9 C 31 % 14.39 C
161 24-07-2019 13:20:00 34 C 30 % 13.97 C
162 24-07-2019 13:25:00 34.1 C 29 % 13.54 C
163 24-07-2019 13:30:00 34.2 C 28 % 13.08 C
164 24-07-2019 13:35:00 34.3 C 29 % 13.71 C
165 24-07-2019 13:40:00 34.3 C 27 % 12.61 C
166 24-07-2019 13:45:00 34.4 C 27 % 12.7 C
167 24-07-2019 13:50:00 34.6 C 27 % 12.87 C
168 24-07-2019 13:55:00 34.7 C 26 % 12.38 C
169 24-07-2019 14:00:00 34.8 C 27 % 13.04 C
170 24-07-2019 14:05:00 34.8 C 26 % 12.46 C
171 24-07-2019 14:10:00 34.9 C 27 % 13.12 C
172 24-07-2019 14:15:00 35 C 27 % 13.21 C
173 24-07-2019 14:20:00 35.1 C 26 % 12.71 C
174 24-07-2019 14:25:00 35.3 C 27 % 13.46 C
175 24-07-2019 14:30:00 35.3 C 26 % 12.88 C
Sensor: Nr:Datum:Temp:Feuchte:Taupunkt:
Aussen-T/F 176 24-07-2019 14:35:00 35.5 C 26 % 13.05 C
177 24-07-2019 14:40:00 35.6 C 28 % 14.27 C
178 24-07-2019 14:45:00 35.8 C 27 % 13.88 C
179 24-07-2019 14:50:00 35.8 C 27 % 13.88 C
180 24-07-2019 14:55:00 35.9 C 28 % 14.53 C
181 24-07-2019 15:00:00 35.9 C 28 % 14.53 C
182 24-07-2019 15:05:00 36.1 C 30 % 15.77 C
183 24-07-2019 15:10:00 36.2 C 28 % 14.78 C
184 24-07-2019 15:15:00 36.3 C 27 % 14.31 C
185 24-07-2019 15:20:00 36.3 C 26 % 13.72 C
186 24-07-2019 15:25:00 36.4 C 25 % 13.21 C
187 24-07-2019 15:30:00 36.8 C 25 % 13.54 C
188 24-07-2019 15:35:00 37.2 C 23 % 12.6 C
189 24-07-2019 15:40:00 37.4 C 24 % 13.42 C
190 24-07-2019 15:45:00 37.9 C 26 % 15.07 C
191 24-07-2019 15:50:00 38.4 C 25 % 14.88 C
192 24-07-2019 15:55:00 38.8 C 25 % 15.22 C
193 24-07-2019 16:00:00 39.2 C 23 % 14.26 C
194 24-07-2019 16:05:00 39.3 C 22 % 13.65 C
195 24-07-2019 16:10:00 39.4 C 23 % 14.42 C
196 24-07-2019 16:15:00 39.4 C 25 % 15.72 C
197 24-07-2019 16:20:00 39.5 C 25 % 15.8 C
198 24-07-2019 16:25:00 39.7 C 24 % 15.33 C
199 24-07-2019 16:30:00 39.8 C 22 % 14.06 C
200 24-07-2019 16:35:00 39.7 C 22 % 13.98 C
Sensor: Nr:Datum:Temp:Feuchte:Taupunkt:
Aussen-T/F 201 24-07-2019 16:40:00 39.6 C 22 % 13.9 C
202 24-07-2019 16:45:00 39.7 C 23 % 14.67 C
203 24-07-2019 16:50:00 39.9 C 22 % 14.15 C
204 24-07-2019 16:55:00 39.9 C 24 % 15.5 C
205 24-07-2019 17:00:00 39.9 C 23 % 14.83 C
206 24-07-2019 17:05:00 40.1 C 27 % 17.52 C
207 24-07-2019 17:10:00 39.9 C 21 % 13.43 C
208 24-07-2019 17:15:00 39.9 C 23 % 14.83 C
209 24-07-2019 17:20:00 40 C 22 % 14.23 C
210 24-07-2019 17:25:00 39.9 C 22 % 14.15 C
211 24-07-2019 17:30:00 39.8 C 22 % 14.06 C
212 24-07-2019 17:35:00 39.5 C 23 % 14.5 C
213 24-07-2019 17:40:00 39.3 C 22 % 13.65 C
214 24-07-2019 17:45:00 39 C 23 % 14.09 C
215 24-07-2019 17:50:00 38.9 C 23 % 14.01 C
216 24-07-2019 17:55:00 39.1 C 24 % 14.83 C
217 24-07-2019 18:00:00 39.4 C 23 % 14.42 C
218 24-07-2019 18:05:00 39.6 C 24 % 15.25 C
219 24-07-2019 18:10:00 39.8 C 22 % 14.06 C
220 24-07-2019 18:15:00 39.8 C 22 % 14.06 C
221 24-07-2019 18:20:00 39.4 C 22 % 13.74 C
222 24-07-2019 18:25:00 39.2 C 23 % 14.26 C
223 24-07-2019 18:30:00 39.2 C 22 % 13.57 C
224 24-07-2019 18:35:00 39.2 C 23 % 14.26 C
225 24-07-2019 18:40:00 39.1 C 23 % 14.17 C
Sensor: Nr:Datum:Temp:Feuchte:Taupunkt:
Aussen-T/F 226 24-07-2019 18:45:00 39.1 C 22 % 13.49 C
227 24-07-2019 18:50:00 39.1 C 23 % 14.17 C
228 24-07-2019 18:55:00 38.9 C 23 % 14.01 C
229 24-07-2019 19:00:00 38.8 C 22 % 13.24 C
230 24-07-2019 19:05:00 38.7 C 23 % 13.84 C
231 24-07-2019 19:10:00 38.6 C 27 % 16.25 C
232 24-07-2019 19:15:00 38.7 C 26 % 15.74 C
233 24-07-2019 19:20:00 38.8 C 23 % 13.92 C
234 24-07-2019 19:25:00 38.8 C 28 % 16.99 C
235 24-07-2019 19:30:00 38.7 C 29 % 17.46 C
236 24-07-2019 19:35:00 38.7 C 30 % 18 C
237 24-07-2019 19:40:00 38.4 C 31 % 18.26 C
238 24-07-2019 19:45:00 38.2 C 30 % 17.57 C
239 24-07-2019 19:50:00 37.9 C 31 % 17.83 C
240 24-07-2019 19:55:00 37.6 C 31 % 17.58 C
241 24-07-2019 20:00:00 37.1 C 34 % 18.61 C
242 24-07-2019 20:05:00 36.4 C 33 % 17.53 C
243 24-07-2019 20:10:00 35.6 C 34 % 17.31 C
244 24-07-2019 20:15:00 34.8 C 35 % 17.07 C
245 24-07-2019 20:20:00 33.9 C 38 % 17.58 C
246 24-07-2019 20:25:00 33.1 C 40 % 17.68 C
247 24-07-2019 20:30:00 32.4 C 42 % 17.83 C
248 24-07-2019 20:35:00 31.7 C 44 % 17.94 C
249 24-07-2019 20:40:00 31.2 C 44 % 17.49 C
250 24-07-2019 20:45:00 30.8 C 45 % 17.49 C
Sensor: Nr:Datum:Temp:Feuchte:Taupunkt:
Aussen-T/F 251 24-07-2019 20:50:00 30.4 C 45 % 17.13 C
252 24-07-2019 20:55:00 30.2 C 46 % 17.3 C
253 24-07-2019 21:00:00 29.9 C 47 % 17.36 C
254 24-07-2019 21:05:00 29.7 C 47 % 17.18 C
255 24-07-2019 21:10:00 29.4 C 48 % 17.24 C
256 24-07-2019 21:15:00 29.2 C 48 % 17.06 C
257 24-07-2019 21:20:00 29 C 49 % 17.2 C
258 24-07-2019 21:25:00 28.8 C 49 % 17.02 C
259 24-07-2019 21:30:00 28.7 C 49 % 16.93 C
260 24-07-2019 21:35:00 28.5 C 50 % 17.06 C
261 24-07-2019 21:40:00 28.3 C 49 % 16.56 C
262 24-07-2019 21:45:00 28.2 C 50 % 16.79 C
263 24-07-2019 21:50:00 28.1 C 50 % 16.7 C
264 24-07-2019 21:55:00 28.1 C 50 % 16.7 C
265 24-07-2019 22:00:00 27.9 C 50 % 16.51 C
266 24-07-2019 22:05:00 27.8 C 51 % 16.73 C
267 24-07-2019 22:10:00 27.8 C 51 % 16.73 C
268 24-07-2019 22:15:00 27.7 C 51 % 16.64 C
269 24-07-2019 22:20:00 27.6 C 51 % 16.55 C
270 24-07-2019 22:25:00 27.4 C 52 % 16.67 C
271 24-07-2019 22:30:00 27.3 C 52 % 16.58 C
272 24-07-2019 22:35:00 27.2 C 53 % 16.79 C
273 24-07-2019 22:40:00 27.1 C 53 % 16.7 C
274 24-07-2019 22:45:00 27 C 53 % 16.6 C
275 24-07-2019 22:50:00 26.9 C 53 % 16.51 C
Sensor: Nr:Datum:Temp:Feuchte:Taupunkt:
Aussen-T/F 276 24-07-2019 22:55:00 26.8 C 54 % 16.71 C
277 24-07-2019 23:00:00 26.8 C 54 % 16.71 C
278 24-07-2019 23:05:00 26.6 C 55 % 16.82 C
279 24-07-2019 23:10:00 26.4 C 56 % 16.92 C
280 24-07-2019 23:15:00 26.2 C 57 % 17.01 C
281 24-07-2019 23:20:00 25.9 C 58 % 17 C
282 24-07-2019 23:25:00 25.7 C 58 % 16.82 C
283 24-07-2019 23:30:00 25.4 C 58 % 16.54 C
284 24-07-2019 23:35:00 25.2 C 58 % 16.35 C
285 24-07-2019 23:40:00 25 C 60 % 16.7 C
286 24-07-2019 23:45:00 24.8 C 61 % 16.77 C
287 24-07-2019 23:50:00 24.6 C 62 % 16.84 C
288 24-07-2019 23:55:00 24.4 C 63 % 16.9 C
289 25-07-2019 00:00:00 24.3 C 62 % 16.55 C
290 25-07-2019 00:05:00 24 C 61 % 16.02 C
291 25-07-2019 00:10:00 23.9 C 63 % 16.43 C
292 25-07-2019 00:15:00 23.9 C 63 % 16.43 C
293 25-07-2019 00:20:00 23.8 C 63 % 16.33 C
294 25-07-2019 00:25:00 23.7 C 62 % 15.99 C
295 25-07-2019 00:30:00 23.6 C 62 % 15.89 C
296 25-07-2019 00:35:00 23.6 C 64 % 16.39 C
297 25-07-2019 00:40:00 23.4 C 64 % 16.2 C
298 25-07-2019 00:45:00 23.3 C 63 % 15.86 C
299 25-07-2019 00:50:00 23.4 C 64 % 16.2 C
300 25-07-2019 00:55:00 23.3 C 66 % 16.59 C
Sensor: Nr:Datum:Temp:Feuchte:Taupunkt:
Aussen-T/F 301 25-07-2019 01:00:00 23.2 C 65 % 16.26 C
302 25-07-2019 01:05:00 23.1 C 65 % 16.16 C
303 25-07-2019 01:10:00 22.9 C 66 % 16.21 C
304 25-07-2019 01:15:00 22.7 C 66 % 16.02 C
305 25-07-2019 01:20:00 22.6 C 67 % 16.16 C
306 25-07-2019 01:25:00 22.4 C 66 % 15.74 C
307 25-07-2019 01:30:00 22.3 C 67 % 15.88 C
308 25-07-2019 01:35:00 22.3 C 65 % 15.4 C
309 25-07-2019 01:40:00 22.3 C 68 % 16.11 C
310 25-07-2019 01:45:00 22.3 C 68 % 16.11 C
311 25-07-2019 01:50:00 22.2 C 68 % 16.01 C
312 25-07-2019 01:55:00 22.1 C 68 % 15.92 C
313 25-07-2019 02:00:00 22 C 69 % 16.05 C
314 25-07-2019 02:05:00 21.9 C 70 % 16.18 C
315 25-07-2019 02:10:00 21.8 C 70 % 16.09 C
316 25-07-2019 02:15:00 21.7 C 70 % 15.99 C
317 25-07-2019 02:20:00 21.7 C 70 % 15.99 C
318 25-07-2019 02:25:00 21.7 C 71 % 16.21 C
319 25-07-2019 02:30:00 21.6 C 70 % 15.89 C
320 25-07-2019 02:35:00 21.5 C 70 % 15.8 C
321 25-07-2019 02:40:00 21.4 C 71 % 15.93 C
322 25-07-2019 02:45:00 21.4 C 71 % 15.93 C
323 25-07-2019 02:50:00 21.3 C 72 % 16.05 C
324 25-07-2019 02:55:00 21.2 C 72 % 15.95 C
325 25-07-2019 03:00:00 21.2 C 72 % 15.95 C
Sensor: Nr:Datum:Temp:Feuchte:Taupunkt:
Aussen-T/F 326 25-07-2019 03:05:00 21.2 C 73 % 16.17 C
327 25-07-2019 03:10:00 21.2 C 73 % 16.17 C
328 25-07-2019 03:15:00 21.1 C 73 % 16.07 C
329 25-07-2019 03:20:00 20.9 C 74 % 16.09 C
330 25-07-2019 03:25:00 20.8 C 74 % 16 C
331 25-07-2019 03:30:00 20.8 C 74 % 16 C
332 25-07-2019 03:35:00 20.8 C 74 % 16 C
333 25-07-2019 03:40:00 20.8 C 74 % 16 C
334 25-07-2019 03:45:00 20.7 C 75 % 16.11 C
335 25-07-2019 03:50:00 20.6 C 75 % 16.01 C
336 25-07-2019 03:55:00 20.6 C 76 % 16.22 C
337 25-07-2019 04:00:00 20.4 C 76 % 16.03 C
338 25-07-2019 04:05:00 20.3 C 76 % 15.93 C
339 25-07-2019 04:10:00 20.2 C 77 % 16.04 C
340 25-07-2019 04:15:00 20.1 C 77 % 15.94 C
341 25-07-2019 04:20:00 19.9 C 78 % 15.95 C
342 25-07-2019 04:25:00 20.1 C 78 % 16.14 C
343 25-07-2019 04:30:00 20.1 C 78 % 16.14 C
344 25-07-2019 04:35:00 20.1 C 78 % 16.14 C
345 25-07-2019 04:40:00 20.1 C 78 % 16.14 C
346 25-07-2019 04:45:00 19.9 C 79 % 16.15 C
347 25-07-2019 04:50:00 19.9 C 79 % 16.15 C
348 25-07-2019 04:55:00 19.8 C 79 % 16.05 C
349 25-07-2019 05:00:00 19.7 C 79 % 15.96 C
350 25-07-2019 05:05:00 19.6 C 79 % 15.86 C
Sensor: Nr:Datum:Temp:Feuchte:Taupunkt:
Aussen-T/F 351 25-07-2019 05:10:00 19.6 C 80 % 16.06 C
352 25-07-2019 05:15:00 19.4 C 80 % 15.86 C
353 25-07-2019 05:20:00 19.4 C 80 % 15.86 C
354 25-07-2019 05:25:00 19.3 C 80 % 15.76 C
355 25-07-2019 05:30:00 19.3 C 80 % 15.76 C
356 25-07-2019 05:35:00 19.3 C 80 % 15.76 C
357 25-07-2019 05:40:00 19.2 C 80 % 15.67 C
358 25-07-2019 05:45:00 19.2 C 80 % 15.67 C
359 25-07-2019 05:50:00 19.2 C 81 % 15.86 C
360 25-07-2019 05:55:00 19.1 C 81 % 15.76 C
361 25-07-2019 06:00:00 19.1 C 82 % 15.96 C
362 25-07-2019 06:05:00 19.1 C 82 % 15.96 C
363 25-07-2019 06:10:00 19.1 C 82 % 15.96 C
364 25-07-2019 06:15:00 19.2 C 82 % 16.05 C
365 25-07-2019 06:20:00 19.2 C 82 % 16.05 C
366 25-07-2019 06:25:00 19.1 C 82 % 15.96 C
367 25-07-2019 06:30:00 19.2 C 82 % 16.05 C
368 25-07-2019 06:35:00 19.2 C 82 % 16.05 C
369 25-07-2019 06:40:00 19.2 C 82 % 16.05 C
370 25-07-2019 06:45:00 19.3 C 83 % 16.34 C
371 25-07-2019 06:50:00 19.3 C 83 % 16.34 C
372 25-07-2019 06:55:00 19.3 C 83 % 16.34 C
373 25-07-2019 07:00:00 19.3 C 83 % 16.34 C
374 25-07-2019 07:05:00 19.3 C 83 % 16.34 C
375 25-07-2019 07:10:00 19.4 C 84 % 16.63 C
Sensor: Nr:Datum:Temp:Feuchte:Taupunkt:
Aussen-T/F 376 25-07-2019 07:15:00 19.4 C 84 % 16.63 C
377 25-07-2019 07:20:00 19.4 C 84 % 16.63 C
378 25-07-2019 07:25:00 19.5 C 84 % 16.72 C
379 25-07-2019 07:30:00 19.6 C 84 % 16.82 C
380 25-07-2019 07:35:00 19.6 C 84 % 16.82 C
381 25-07-2019 07:40:00 19.7 C 84 % 16.92 C
382 25-07-2019 07:45:00 19.8 C 84 % 17.02 C
383 25-07-2019 07:50:00 19.8 C 84 % 17.02 C
384 25-07-2019 07:55:00 19.9 C 84 % 17.12 C
385 25-07-2019 08:00:00 20 C 83 % 17.02 C
386 25-07-2019 08:05:00 20.1 C 84 % 17.31 C
387 25-07-2019 08:10:00 20.2 C 83 % 17.22 C
388 25-07-2019 08:15:00 20.3 C 82 % 17.13 C
389 25-07-2019 08:20:00 20.5 C 83 % 17.51 C
390 25-07-2019 08:25:00 20.7 C 83 % 17.71 C
391 25-07-2019 08:30:00 20.8 C 83 % 17.81 C
392 25-07-2019 08:35:00 20.9 C 82 % 17.71 C
393 25-07-2019 08:40:00 21.1 C 83 % 18.1 C
394 25-07-2019 08:45:00 21.2 C 83 % 18.2 C
395 25-07-2019 08:50:00 21.4 C 82 % 18.2 C
396 25-07-2019 08:55:00 21.6 C 82 % 18.39 C
397 25-07-2019 09:00:00 21.7 C 81 % 18.3 C
398 25-07-2019 09:05:00 21.8 C 79 % 18 C
399 25-07-2019 09:10:00 22.1 C 81 % 18.69 C
400 25-07-2019 09:15:00 22.2 C 81 % 18.78 C
Sensor: Nr:Datum:Temp:Feuchte:Taupunkt:
Aussen-T/F 401 25-07-2019 09:20:00 22.3 C 78 % 18.28 C
402 25-07-2019 09:25:00 22.6 C 78 % 18.57 C
403 25-07-2019 09:30:00 22.8 C 77 % 18.56 C
404 25-07-2019 09:35:00 23.1 C 77 % 18.85 C
405 25-07-2019 09:40:00 23.3 C 75 % 18.62 C
406 25-07-2019 09:45:00 23.5 C 74 % 18.6 C
407 25-07-2019 09:50:00 23.7 C 72 % 18.35 C
408 25-07-2019 09:55:00 24 C 70 % 18.19 C
409 25-07-2019 10:00:00 24.3 C 70 % 18.48 C
410 25-07-2019 10:05:00 24.6 C 71 % 18.99 C
411 25-07-2019 10:10:00 24.9 C 70 % 19.05 C
412 25-07-2019 10:15:00 25.1 C 69 % 19.01 C
413 25-07-2019 10:20:00 25.3 C 68 % 18.97 C
414 25-07-2019 10:25:00 25.6 C 69 % 19.49 C
415 25-07-2019 10:30:00 25.9 C 67 % 19.3 C
416 25-07-2019 10:35:00 26.2 C 65 % 19.1 C
417 25-07-2019 10:40:00 26.6 C 63 % 18.97 C
418 25-07-2019 10:45:00 26.9 C 62 % 19 C
419 25-07-2019 10:50:00 27.2 C 63 % 19.54 C
420 25-07-2019 10:55:00 27.5 C 63 % 19.82 C
421 25-07-2019 11:00:00 27.8 C 61 % 19.59 C
422 25-07-2019 11:05:00 28.2 C 60 % 19.69 C
423 25-07-2019 11:10:00 28.6 C 56 % 18.96 C
424 25-07-2019 11:15:00 29.1 C 58 % 19.99 C
425 25-07-2019 11:20:00 29.4 C 54 % 19.12 C
Sensor: Nr:Datum:Temp:Feuchte:Taupunkt:
Aussen-T/F 426 25-07-2019 11:25:00 29.8 C 55 % 19.78 C
427 25-07-2019 11:30:00 30.1 C 54 % 19.76 C
428 25-07-2019 11:35:00 30.5 C 53 % 19.83 C
429 25-07-2019 11:40:00 30.8 C 50 % 19.17 C
430 25-07-2019 11:45:00 31.2 C 48 % 18.88 C
431 25-07-2019 11:50:00 31.6 C 47 % 18.91 C
432 25-07-2019 11:55:00 32.1 C 44 % 18.3 C
433 25-07-2019 12:00:00 32.6 C 41 % 17.63 C
434 25-07-2019 12:05:00 33 C 40 % 17.59 C
435 25-07-2019 12:10:00 33.4 C 38 % 17.14 C
436 25-07-2019 12:15:00 33.8 C 38 % 17.49 C
437 25-07-2019 12:20:00 34.3 C 35 % 16.63 C
438 25-07-2019 12:25:00 34.7 C 35 % 16.98 C
439 25-07-2019 12:30:00 34.9 C 35 % 17.16 C
440 25-07-2019 12:35:00 35.2 C 33 % 16.49 C
441 25-07-2019 12:40:00 35.3 C 33 % 16.58 C
442 25-07-2019 12:45:00 35.5 C 33 % 16.75 C
443 25-07-2019 12:50:00 35.7 C 33 % 16.92 C
444 25-07-2019 12:55:00 35.9 C 31 % 16.11 C
445 25-07-2019 13:00:00 36 C 32 % 16.7 C
446 25-07-2019 13:05:00 36.1 C 32 % 16.79 C
447 25-07-2019 13:10:00 36.2 C 32 % 16.87 C
448 25-07-2019 13:15:00 36.3 C 32 % 16.96 C
449 25-07-2019 13:20:00 36.3 C 30 % 15.94 C
450 25-07-2019 13:25:00 36.4 C 31 % 16.54 C
Sensor: Nr:Datum:Temp:Feuchte:Taupunkt:
Aussen-T/F 451 25-07-2019 13:30:00 36.4 C 31 % 16.54 C
452 25-07-2019 13:35:00 36.6 C 31 % 16.72 C
453 25-07-2019 13:40:00 36.7 C 31 % 16.8 C
454 25-07-2019 13:45:00 36.8 C 30 % 16.37 C
455 25-07-2019 13:50:00 36.9 C 31 % 16.97 C
456 25-07-2019 13:55:00 36.9 C 29 % 15.93 C
457 25-07-2019 14:00:00 36.9 C 30 % 16.46 C
458 25-07-2019 14:05:00 37.1 C 30 % 16.63 C
459 25-07-2019 14:10:00 37.2 C 29 % 16.18 C
460 25-07-2019 14:15:00 37.3 C 30 % 16.8 C
461 25-07-2019 14:20:00 37.4 C 29 % 16.35 C
462 25-07-2019 14:25:00 37.4 C 27 % 15.24 C
463 25-07-2019 14:30:00 37.4 C 30 % 16.89 C
464 25-07-2019 14:35:00 37.6 C 28 % 15.97 C
465 25-07-2019 14:40:00 37.6 C 29 % 16.52 C
466 25-07-2019 14:45:00 37.7 C 27 % 15.49 C
467 25-07-2019 14:50:00 37.7 C 29 % 16.61 C
468 25-07-2019 14:55:00 37.8 C 28 % 16.14 C
469 25-07-2019 15:00:00 37.9 C 28 % 16.23 C
470 25-07-2019 15:05:00 38.2 C 28 % 16.48 C
471 25-07-2019 15:10:00 38.3 C 28 % 16.57 C
472 25-07-2019 15:15:00 38.5 C 27 % 16.16 C
473 25-07-2019 15:20:00 38.7 C 26 % 15.74 C
474 25-07-2019 15:25:00 38.8 C 26 % 15.83 C
475 25-07-2019 15:30:00 38.9 C 26 % 15.91 C
Sensor: Nr:Datum:Temp:Feuchte:Taupunkt:
Aussen-T/F 476 25-07-2019 15:35:00 38.7 C 26 % 15.74 C
477 25-07-2019 15:40:00 38.8 C 26 % 15.83 C
478 25-07-2019 15:45:00 39.2 C 25 % 15.55 C
479 25-07-2019 15:50:00 39.6 C 26 % 16.5 C
480 25-07-2019 15:55:00 39.9 C 24 % 15.5 C
481 25-07-2019 16:00:00 40.1 C 23 % 15 C
482 25-07-2019 16:05:00 40.2 C 24 % 15.75 C
483 25-07-2019 16:10:00 40.2 C 25 % 16.39 C
484 25-07-2019 16:15:00 40.3 C 23 % 15.17 C
485 25-07-2019 16:20:00 40.4 C 24 % 15.91 C
486 25-07-2019 16:25:00 40.4 C 25 % 16.55 C
487 25-07-2019 16:30:00 40.4 C 23 % 15.25 C
488 25-07-2019 16:35:00 40.3 C 23 % 15.17 C
489 25-07-2019 16:40:00 40 C 23 % 14.92 C
490 25-07-2019 16:45:00 39.9 C 23 % 14.83 C
491 25-07-2019 16:50:00 39.9 C 25 % 16.13 C
492 25-07-2019 16:55:00 39.7 C 23 % 14.67 C
493 25-07-2019 17:00:00 39.8 C 24 % 15.41 C
494 25-07-2019 17:05:00 39.9 C 24 % 15.5 C
495 25-07-2019 17:10:00 40.3 C 23 % 15.17 C
496 25-07-2019 17:15:00 40.3 C 22 % 14.48 C
497 25-07-2019 17:20:00 40.1 C 22 % 14.31 C
498 25-07-2019 17:25:00 39.9 C 22 % 14.15 C
499 25-07-2019 17:30:00 39.6 C 22 % 13.9 C
500 25-07-2019 17:35:00 39.5 C 22 % 13.82 C
Sensor: Nr:Datum:Temp:Feuchte:Taupunkt:
Aussen-T/F 501 25-07-2019 17:40:00 39.5 C 22 % 13.82 C
502 25-07-2019 17:45:00 39.5 C 22 % 13.82 C
503 25-07-2019 17:50:00 39.6 C 23 % 14.59 C
504 25-07-2019 17:55:00 39.7 C 23 % 14.67 C
505 25-07-2019 18:00:00 39.6 C 23 % 14.59 C
506 25-07-2019 18:05:00 39.4 C 23 % 14.42 C
507 25-07-2019 18:10:00 39.4 C 22 % 13.74 C
508 25-07-2019 18:15:00 39.4 C 23 % 14.42 C
509 25-07-2019 18:20:00 39.3 C 22 % 13.65 C
510 25-07-2019 18:25:00 39.3 C 23 % 14.34 C
511 25-07-2019 18:30:00 39.2 C 23 % 14.26 C
512 25-07-2019 18:35:00 39.1 C 23 % 14.17 C
513 25-07-2019 18:40:00 38.8 C 23 % 13.92 C
514 25-07-2019 18:45:00 38.6 C 24 % 14.42 C
515 25-07-2019 18:50:00 38.6 C 24 % 14.42 C
516 25-07-2019 18:55:00 38.4 C 29 % 17.2 C
517 25-07-2019 19:00:00 38.3 C 25 % 14.8 C
518 25-07-2019 19:05:00 38.2 C 31 % 18.09 C
519 25-07-2019 19:10:00 38 C 28 % 16.31 C
520 25-07-2019 19:15:00 37.8 C 33 % 18.74 C
521 25-07-2019 19:20:00 37.4 C 32 % 17.91 C
522 25-07-2019 19:25:00 37 C 33 % 18.05 C
523 25-07-2019 19:30:00 36.6 C 33 % 17.7 C
524 25-07-2019 19:35:00 36.2 C 35 % 18.29 C
525 25-07-2019 19:40:00 35.7 C 36 % 18.3 C
Sensor: Nr:Datum:Temp:Feuchte:Taupunkt:
Aussen-T/F 526 25-07-2019 19:45:00 35.3 C 39 % 19.23 C
527 25-07-2019 19:50:00 34.9 C 38 % 18.46 C
528 25-07-2019 19:55:00 34.6 C 38 % 18.2 C
529 25-07-2019 20:00:00 34.3 C 41 % 19.15 C
530 25-07-2019 20:05:00 33.9 C 41 % 18.79 C
531 25-07-2019 20:10:00 33.7 C 40 % 18.22 C
532 25-07-2019 20:15:00 33.4 C 40 % 17.95 C
533 25-07-2019 20:20:00 33.2 C 42 % 18.55 C
534 25-07-2019 20:25:00 32.9 C 41 % 17.9 C
535 25-07-2019 20:30:00 32.7 C 42 % 18.1 C
536 25-07-2019 20:35:00 32.4 C 42 % 17.83 C
537 25-07-2019 20:40:00 32.2 C 43 % 18.03 C
538 25-07-2019 20:45:00 31.9 C 43 % 17.76 C
539 25-07-2019 20:50:00 31.7 C 44 % 17.94 C
540 25-07-2019 20:55:00 31.5 C 43 % 17.4 C
541 25-07-2019 21:00:00 31.3 C 44 % 17.58 C
542 25-07-2019 21:05:00 31.1 C 44 % 17.4 C
543 25-07-2019 21:10:00 30.9 C 45 % 17.58 C
544 25-07-2019 21:15:00 30.7 C 44 % 17.04 C
545 25-07-2019 21:20:00 30.5 C 44 % 16.86 C
546 25-07-2019 21:25:00 30.3 C 45 % 17.04 C
547 25-07-2019 21:30:00 30.2 C 45 % 16.95 C
548 25-07-2019 21:35:00 30.1 C 45 % 16.86 C
549 25-07-2019 21:40:00 29.9 C 45 % 16.68 C
550 25-07-2019 21:45:00 29.8 C 45 % 16.59 C
Sensor: Nr:Datum:Temp:Feuchte:Taupunkt:
Aussen-T/F 551 25-07-2019 21:50:00 29.7 C 45 % 16.5 C
552 25-07-2019 21:55:00 29.6 C 45 % 16.41 C
553 25-07-2019 22:00:00 29.4 C 45 % 16.23 C
554 25-07-2019 22:05:00 29.3 C 46 % 16.48 C
555 25-07-2019 22:10:00 29.2 C 46 % 16.39 C
556 25-07-2019 22:15:00 29.1 C 47 % 16.64 C
557 25-07-2019 22:20:00 28.9 C 46 % 16.12 C
558 25-07-2019 22:25:00 28.8 C 48 % 16.69 C
559 25-07-2019 22:30:00 28.7 C 48 % 16.6 C
560 25-07-2019 22:35:00 28.5 C 48 % 16.42 C
561 25-07-2019 22:40:00 28.4 C 48 % 16.33 C
562 25-07-2019 22:45:00 28.3 C 48 % 16.24 C
563 25-07-2019 22:50:00 28.3 C 49 % 16.56 C
564 25-07-2019 22:55:00 28.2 C 48 % 16.15 C
565 25-07-2019 23:00:00 28.1 C 49 % 16.38 C
566 25-07-2019 23:05:00 28 C 48 % 15.97 C
567 25-07-2019 23:10:00 27.9 C 49 % 16.2 C
568 25-07-2019 23:15:00 27.8 C 48 % 15.78 C
569 25-07-2019 23:20:00 27.8 C 49 % 16.11 C
570 25-07-2019 23:25:00 27.7 C 50 % 16.33 C
571 25-07-2019 23:30:00 27.6 C 49 % 15.92 C
572 25-07-2019 23:35:00 27.4 C 50 % 16.06 C
573 25-07-2019 23:40:00 27.3 C 50 % 15.97 C
574 25-07-2019 23:45:00 27.2 C 50 % 15.87 C
575 25-07-2019 23:50:00 27.1 C 51 % 16.09 C
Sensor: Nr:Datum:Temp:Feuchte:Taupunkt:
Aussen-T/F 576 25-07-2019 23:55:00 26.9 C 53 % 16.51 C
577 26-07-2019 00:00:00 26.8 C 53 % 16.42 C
578 26-07-2019 00:05:00 26.7 C 53 % 16.33 C
579 26-07-2019 00:10:00 26.5 C 52 % 15.84 C
580 26-07-2019 00:15:00 26.4 C 53 % 16.05 C
581 26-07-2019 00:20:00 26.3 C 53 % 15.96 C
582 26-07-2019 00:25:00 26.2 C 54 % 16.16 C
583 26-07-2019 00:30:00 26.1 C 54 % 16.07 C
584 26-07-2019 00:35:00 26 C 53 % 15.68 C
585 26-07-2019 00:40:00 25.9 C 54 % 15.88 C
586 26-07-2019 00:45:00 25.9 C 54 % 15.88 C
587 26-07-2019 00:50:00 25.8 C 54 % 15.79 C
588 26-07-2019 00:55:00 25.7 C 54 % 15.7 C
589 26-07-2019 01:00:00 25.6 C 54 % 15.6 C
590 26-07-2019 01:05:00 25.5 C 55 % 15.8 C
591 26-07-2019 01:10:00 25.4 C 54 % 15.42 C
592 26-07-2019 01:15:00 25.3 C 56 % 15.89 C
593 26-07-2019 01:20:00 25.2 C 56 % 15.8 C
594 26-07-2019 01:25:00 25.2 C 57 % 16.08 C
595 26-07-2019 01:30:00 25.1 C 56 % 15.71 C
596 26-07-2019 01:35:00 24.9 C 58 % 16.07 C
597 26-07-2019 01:40:00 24.8 C 59 % 16.24 C
598 26-07-2019 01:45:00 24.6 C 60 % 16.32 C
599 26-07-2019 01:50:00 24.3 C 60 % 16.04 C
600 26-07-2019 01:55:00 24.1 C 60 % 15.85 C
Sensor: Nr:Datum:Temp:Feuchte:Taupunkt:
Aussen-T/F 601 26-07-2019 02:00:00 23.8 C 62 % 16.08 C
602 26-07-2019 02:05:00 23.6 C 64 % 16.39 C
603 26-07-2019 02:10:00 23.3 C 65 % 16.35 C
604 26-07-2019 02:15:00 23 C 66 % 16.31 C
605 26-07-2019 02:20:00 22.8 C 67 % 16.35 C
606 26-07-2019 02:25:00 22.6 C 68 % 16.39 C
607 26-07-2019 02:30:00 22.3 C 69 % 16.34 C
608 26-07-2019 02:35:00 22.2 C 69 % 16.24 C
609 26-07-2019 02:40:00 21.9 C 69 % 15.96 C
610 26-07-2019 02:45:00 21.7 C 68 % 15.54 C
611 26-07-2019 02:50:00 21.6 C 69 % 15.67 C
612 26-07-2019 02:55:00 21.4 C 68 % 15.25 C
613 26-07-2019 03:00:00 21.3 C 70 % 15.61 C
614 26-07-2019 03:05:00 21.2 C 71 % 15.73 C
615 26-07-2019 03:10:00 21.2 C 71 % 15.73 C
616 26-07-2019 03:15:00 21.1 C 70 % 15.42 C
617 26-07-2019 03:20:00 21.1 C 71 % 15.64 C
618 26-07-2019 03:25:00 21 C 71 % 15.54 C
619 26-07-2019 03:30:00 21 C 72 % 15.76 C
620 26-07-2019 03:35:00 20.9 C 72 % 15.66 C
621 26-07-2019 03:40:00 20.8 C 72 % 15.57 C
622 26-07-2019 03:45:00 20.8 C 72 % 15.57 C
623 26-07-2019 03:50:00 20.8 C 74 % 16 C
624 26-07-2019 03:55:00 20.7 C 74 % 15.9 C
625 26-07-2019 04:00:00 20.7 C 74 % 15.9 C
Sensor: Nr:Datum:Temp:Feuchte:Taupunkt:
Aussen-T/F 626 26-07-2019 04:05:00 20.6 C 75 % 16.01 C
627 26-07-2019 04:10:00 20.4 C 75 % 15.82 C
628 26-07-2019 04:15:00 20.3 C 75 % 15.72 C
629 26-07-2019 04:20:00 20.3 C 76 % 15.93 C
630 26-07-2019 04:25:00 20.2 C 77 % 16.04 C
631 26-07-2019 04:30:00 20.1 C 77 % 15.94 C
632 26-07-2019 04:35:00 19.9 C 77 % 15.75 C
633 26-07-2019 04:40:00 19.9 C 78 % 15.95 C
634 26-07-2019 04:45:00 19.8 C 78 % 15.85 C
635 26-07-2019 04:50:00 19.7 C 78 % 15.76 C
636 26-07-2019 04:55:00 19.6 C 79 % 15.86 C
637 26-07-2019 05:00:00 19.6 C 79 % 15.86 C
638 26-07-2019 05:05:00 19.5 C 78 % 15.56 C
639 26-07-2019 05:10:00 19.4 C 78 % 15.47 C
640 26-07-2019 05:15:00 19.3 C 78 % 15.37 C
641 26-07-2019 05:20:00 19.3 C 79 % 15.57 C
642 26-07-2019 05:25:00 19.3 C 78 % 15.37 C
643 26-07-2019 05:30:00 19.3 C 80 % 15.76 C
644 26-07-2019 05:35:00 19.3 C 80 % 15.76 C
645 26-07-2019 05:40:00 19.2 C 80 % 15.67 C
646 26-07-2019 05:45:00 19.2 C 80 % 15.67 C
647 26-07-2019 05:50:00 19.1 C 79 % 15.37 C
648 26-07-2019 05:55:00 19 C 79 % 15.28 C
649 26-07-2019 06:00:00 18.9 C 80 % 15.38 C
650 26-07-2019 06:05:00 19 C 79 % 15.28 C
Sensor: Nr:Datum:Temp:Feuchte:Taupunkt:
Aussen-T/F 651 26-07-2019 06:10:00 19 C 79 % 15.28 C
652 26-07-2019 06:15:00 18.9 C 80 % 15.38 C
653 26-07-2019 06:20:00 18.9 C 80 % 15.38 C
654 26-07-2019 06:25:00 18.9 C 80 % 15.38 C
655 26-07-2019 06:30:00 18.9 C 80 % 15.38 C
656 26-07-2019 06:35:00 18.9 C 81 % 15.57 C
657 26-07-2019 06:40:00 18.9 C 81 % 15.57 C
658 26-07-2019 06:45:00 19 C 81 % 15.67 C
659 26-07-2019 06:50:00 19.1 C 81 % 15.76 C
660 26-07-2019 06:55:00 19.1 C 82 % 15.96 C
661 26-07-2019 07:00:00 19.2 C 83 % 16.24 C
662 26-07-2019 07:05:00 19.3 C 83 % 16.34 C
663 26-07-2019 07:10:00 19.3 C 83 % 16.34 C
664 26-07-2019 07:15:00 19.4 C 83 % 16.44 C
665 26-07-2019 07:20:00 19.4 C 82 % 16.25 C
666 26-07-2019 07:25:00 19.5 C 83 % 16.54 C
667 26-07-2019 07:30:00 19.6 C 83 % 16.63 C
668 26-07-2019 07:35:00 19.7 C 83 % 16.73 C
669 26-07-2019 07:40:00 19.8 C 83 % 16.83 C
670 26-07-2019 07:45:00 19.9 C 82 % 16.74 C
671 26-07-2019 07:50:00 20.1 C 81 % 16.74 C
672 26-07-2019 07:55:00 20.2 C 81 % 16.84 C
673 26-07-2019 08:00:00 20.4 C 81 % 17.03 C
674 26-07-2019 08:05:00 20.5 C 82 % 17.32 C
675 26-07-2019 08:10:00 20.6 C 81 % 17.22 C
Sensor: Nr:Datum:Temp:Feuchte:Taupunkt:
Aussen-T/F 676 26-07-2019 08:15:00 20.7 C 82 % 17.52 C
677 26-07-2019 08:20:00 20.8 C 81 % 17.42 C
678 26-07-2019 08:25:00 20.9 C 80 % 17.32 C
679 26-07-2019 08:30:00 21.1 C 79 % 17.32 C
680 26-07-2019 08:35:00 21.3 C 79 % 17.51 C
681 26-07-2019 08:40:00 21.5 C 78 % 17.5 C
682 26-07-2019 08:45:00 21.7 C 79 % 17.9 C
683 26-07-2019 08:50:00 21.9 C 80 % 18.29 C
684 26-07-2019 08:55:00 21.9 C 78 % 17.89 C
685 26-07-2019 09:00:00 22.1 C 76 % 17.67 C
686 26-07-2019 09:05:00 22.3 C 76 % 17.86 C
687 26-07-2019 09:10:00 22.4 C 74 % 17.54 C
688 26-07-2019 09:15:00 22.7 C 73 % 17.61 C
689 26-07-2019 09:20:00 22.9 C 74 % 18.02 C
690 26-07-2019 09:25:00 23.1 C 70 % 17.33 C
691 26-07-2019 09:30:00 23.4 C 70 % 17.62 C
692 26-07-2019 09:35:00 23.7 C 67 % 17.21 C
693 26-07-2019 09:40:00 24.2 C 67 % 17.68 C
694 26-07-2019 09:45:00 24.6 C 66 % 17.83 C
695 26-07-2019 09:50:00 25 C 58 % 16.16 C
696 26-07-2019 09:55:00 25.7 C 60 % 17.35 C
697 26-07-2019 10:00:00 25.9 C 60 % 17.54 C
698 26-07-2019 10:05:00 26.3 C 58 % 17.38 C
699 26-07-2019 10:10:00 26.4 C 57 % 17.19 C
700 26-07-2019 10:15:00 26.8 C 55 % 17 C
Sensor: Nr:Datum:Temp:Feuchte:Taupunkt:
Aussen-T/F 701 26-07-2019 10:20:00 27.2 C 54 % 17.08 C
702 26-07-2019 10:25:00 27.6 C 48 % 15.6 C
703 26-07-2019 10:30:00 28.4 C 46 % 15.66 C
704 26-07-2019 10:35:00 29.1 C 46 % 16.3 C
705 26-07-2019 10:40:00 29.6 C 44 % 16.05 C
706 26-07-2019 10:45:00 30.1 C 43 % 16.14 C
707 26-07-2019 10:50:00 30.5 C 42 % 16.13 C
708 26-07-2019 10:55:00 30.8 C 41 % 16.02 C
709 26-07-2019 11:00:00 31 C 39 % 15.42 C
710 26-07-2019 11:05:00 31.2 C 39 % 15.6 C
711 26-07-2019 11:10:00 31.4 C 41 % 16.56 C
712 26-07-2019 11:15:00 31.5 C 40 % 16.26 C
713 26-07-2019 11:20:00 31.7 C 39 % 16.04 C
714 26-07-2019 11:25:00 31.9 C 40 % 16.62 C
715 26-07-2019 11:30:00 32.1 C 38 % 15.99 C
716 26-07-2019 11:35:00 32.3 C 40 % 16.97 C
717 26-07-2019 11:40:00 32.6 C 39 % 16.84 C
718 26-07-2019 11:45:00 32.8 C 37 % 16.19 C
719 26-07-2019 11:50:00 32.9 C 37 % 16.28 C
720 26-07-2019 11:55:00 33.2 C 37 % 16.54 C
721 26-07-2019 12:00:00 33.4 C 36 % 16.29 C
722 26-07-2019 12:05:00 33.6 C 35 % 16.02 C
723 26-07-2019 12:10:00 33.7 C 37 % 16.98 C
724 26-07-2019 12:15:00 33.8 C 35 % 16.19 C
725 26-07-2019 12:20:00 34.1 C 35 % 16.46 C
Sensor: Nr:Datum:Temp:Feuchte:Taupunkt:
Aussen-T/F 726 26-07-2019 12:25:00 34.2 C 36 % 16.99 C
727 26-07-2019 12:30:00 34.3 C 34 % 16.18 C
728 26-07-2019 12:35:00 34.5 C 34 % 16.35 C
729 26-07-2019 12:40:00 34.8 C 34 % 16.61 C
730 26-07-2019 12:45:00 35.1 C 33 % 16.4 C
731 26-07-2019 12:50:00 35.3 C 33 % 16.58 C
732 26-07-2019 12:55:00 35.4 C 32 % 16.18 C
733 26-07-2019 13:00:00 35.5 C 32 % 16.27 C
734 26-07-2019 13:05:00 35.6 C 31 % 15.86 C
735 26-07-2019 13:10:00 35.7 C 31 % 15.94 C
736 26-07-2019 13:15:00 35.7 C 32 % 16.44 C
737 26-07-2019 13:20:00 35.8 C 32 % 16.53 C
738 26-07-2019 13:25:00 35.8 C 31 % 16.03 C
739 26-07-2019 13:30:00 35.9 C 30 % 15.6 C
740 26-07-2019 13:35:00 36.1 C 31 % 16.29 C
741 26-07-2019 13:40:00 36.2 C 31 % 16.37 C
742 26-07-2019 13:45:00 36.4 C 31 % 16.54 C
743 26-07-2019 13:50:00 36.6 C 30 % 16.2 C
744 26-07-2019 13:55:00 36.8 C 29 % 15.84 C
745 26-07-2019 14:00:00 36.9 C 29 % 15.93 C
746 26-07-2019 14:05:00 36.9 C 28 % 15.38 C
747 26-07-2019 14:10:00 36.8 C 28 % 15.29 C
748 26-07-2019 14:15:00 36.9 C 28 % 15.38 C
749 26-07-2019 14:20:00 37.1 C 29 % 16.1 C
750 26-07-2019 14:25:00 37.4 C 27 % 15.24 C
Sensor: Nr:Datum:Temp:Feuchte:Taupunkt:
Aussen-T/F 751 26-07-2019 14:30:00 37.6 C 26 % 14.82 C
752 26-07-2019 14:35:00 37.8 C 26 % 14.99 C
753 26-07-2019 14:40:00 37.8 C 26 % 14.99 C
754 26-07-2019 14:45:00 37.7 C 24 % 13.67 C
755 26-07-2019 14:50:00 37.7 C 26 % 14.9 C
756 26-07-2019 14:55:00 37.7 C 24 % 13.67 C
757 26-07-2019 15:00:00 38.1 C 25 % 14.63 C
758 26-07-2019 15:05:00 38.3 C 25 % 14.8 C
759 26-07-2019 15:10:00 38.6 C 24 % 14.42 C
760 26-07-2019 15:15:00 38.7 C 25 % 15.13 C
761 26-07-2019 15:20:00 38.3 C 27 % 16 C
762 26-07-2019 15:25:00 37.3 C 30 % 16.8 C
763 26-07-2019 15:30:00 36.8 C 30 % 16.37 C
764 26-07-2019 15:35:00 36.3 C 31 % 16.46 C
765 26-07-2019 15:40:00 35.9 C 31 % 16.11 C
766 26-07-2019 15:45:00 35.6 C 32 % 16.35 C
767 26-07-2019 15:50:00 35.7 C 30 % 15.43 C
768 26-07-2019 15:55:00 35.6 C 30 % 15.34 C
769 26-07-2019 16:00:00 35.4 C 31 % 15.68 C
770 26-07-2019 16:05:00 35.3 C 32 % 16.09 C
771 26-07-2019 16:10:00 35.4 C 32 % 16.18 C
772 26-07-2019 16:15:00 35.4 C 31 % 15.68 C
773 26-07-2019 16:20:00 35.5 C 32 % 16.27 C
774 26-07-2019 16:25:00 35.6 C 37 % 18.65 C
775 26-07-2019 16:30:00 35.6 C 39 % 19.5 C
Sensor: Nr:Datum:Temp:Feuchte:Taupunkt:
Aussen-T/F 776 26-07-2019 16:35:00 35.6 C 40 % 19.91 C
777 26-07-2019 16:40:00 35.3 C 32 % 16.09 C
778 26-07-2019 16:45:00 34.9 C 34 % 16.7 C
779 26-07-2019 16:50:00 34.8 C 35 % 17.07 C
780 26-07-2019 16:55:00 34.6 C 33 % 15.97 C
781 26-07-2019 17:00:00 34.2 C 35 % 16.54 C
782 26-07-2019 17:05:00 34.1 C 42 % 19.35 C
783 26-07-2019 17:10:00 33.5 C 39 % 17.64 C
784 26-07-2019 17:15:00 32.9 C 40 % 17.51 C
785 26-07-2019 17:20:00 32.6 C 42 % 18.01 C
786 26-07-2019 17:25:00 32.4 C 44 % 18.57 C
787 26-07-2019 17:30:00 32.2 C 45 % 18.75 C
788 26-07-2019 17:35:00 31.9 C 46 % 18.83 C
789 26-07-2019 17:40:00 31.8 C 43 % 17.67 C
790 26-07-2019 17:45:00 31.7 C 44 % 17.94 C
791 26-07-2019 17:50:00 31.4 C 45 % 18.03 C
792 26-07-2019 17:55:00 31.3 C 44 % 17.58 C
793 26-07-2019 18:00:00 31.2 C 45 % 17.85 C
794 26-07-2019 18:05:00 31.1 C 45 % 17.76 C
795 26-07-2019 18:10:00 30.9 C 44 % 17.22 C
796 26-07-2019 18:15:00 30.9 C 44 % 17.22 C
797 26-07-2019 18:20:00 30.8 C 44 % 17.13 C
798 26-07-2019 18:25:00 30.7 C 45 % 17.4 C
799 26-07-2019 18:30:00 30.6 C 45 % 17.31 C
800 26-07-2019 18:35:00 30.3 C 46 % 17.39 C
Sensor: Nr:Datum:Temp:Feuchte:Taupunkt:
Aussen-T/F 801 26-07-2019 18:40:00 30.1 C 46 % 17.2 C
802 26-07-2019 18:45:00 29.7 C 46 % 16.84 C
803 26-07-2019 18:50:00 29.6 C 48 % 17.42 C
804 26-07-2019 18:55:00 29.4 C 48 % 17.24 C
805 26-07-2019 19:00:00 29.3 C 49 % 17.48 C
806 26-07-2019 19:05:00 29.3 C 50 % 17.8 C
807 26-07-2019 19:10:00 29.2 C 50 % 17.71 C
808 26-07-2019 19:15:00 29.1 C 50 % 17.61 C
809 26-07-2019 19:20:00 29.1 C 52 % 18.24 C
810 26-07-2019 19:25:00 28.9 C 51 % 17.74 C
811 26-07-2019 19:30:00 28.8 C 53 % 18.26 C
812 26-07-2019 19:35:00 28.7 C 53 % 18.17 C
813 26-07-2019 19:40:00 28.6 C 54 % 18.38 C
814 26-07-2019 19:45:00 28.4 C 54 % 18.19 C
815 26-07-2019 19:50:00 28.3 C 54 % 18.1 C
816 26-07-2019 19:55:00 28.2 C 56 % 18.59 C
817 26-07-2019 20:00:00 28.1 C 56 % 18.49 C
818 26-07-2019 20:05:00 28 C 56 % 18.4 C
819 26-07-2019 20:10:00 27.9 C 57 % 18.59 C
820 26-07-2019 20:15:00 27.8 C 57 % 18.5 C
821 26-07-2019 20:20:00 27.7 C 58 % 18.68 C
822 26-07-2019 20:25:00 27.6 C 57 % 18.31 C
823 26-07-2019 20:30:00 27.5 C 59 % 18.77 C
824 26-07-2019 20:35:00 27.4 C 57 % 18.13 C
825 26-07-2019 20:40:00 27.2 C 59 % 18.49 C
Sensor: Nr:Datum:Temp:Feuchte:Taupunkt:
Aussen-T/F 826 26-07-2019 20:45:00 27.1 C 59 % 18.4 C
827 26-07-2019 20:50:00 27.1 C 59 % 18.4 C
828 26-07-2019 20:55:00 26.9 C 59 % 18.21 C
829 26-07-2019 21:00:00 26.8 C 59 % 18.11 C
830 26-07-2019 21:05:00 26.7 C 59 % 18.02 C
831 26-07-2019 21:10:00 26.7 C 59 % 18.02 C
832 26-07-2019 21:15:00 26.6 C 60 % 18.2 C
833 26-07-2019 21:20:00 26.4 C 59 % 17.74 C
834 26-07-2019 21:25:00 26.3 C 59 % 17.65 C
835 26-07-2019 21:30:00 26.2 C 59 % 17.55 C
836 26-07-2019 21:35:00 26.2 C 59 % 17.55 C
837 26-07-2019 21:40:00 26.1 C 59 % 17.46 C
838 26-07-2019 21:45:00 26.1 C 60 % 17.73 C
839 26-07-2019 21:50:00 26 C 60 % 17.63 C
840 26-07-2019 21:55:00 25.9 C 60 % 17.54 C
841 26-07-2019 22:00:00 25.9 C 60 % 17.54 C
842 26-07-2019 22:05:00 25.8 C 61 % 17.71 C
843 26-07-2019 22:10:00 25.7 C 61 % 17.61 C
844 26-07-2019 22:15:00 25.7 C 61 % 17.61 C
845 26-07-2019 22:20:00 25.7 C 62 % 17.87 C
846 26-07-2019 22:25:00 25.7 C 62 % 17.87 C
847 26-07-2019 22:30:00 25.6 C 63 % 18.03 C
848 26-07-2019 22:35:00 25.4 C 63 % 17.84 C
849 26-07-2019 22:40:00 25.3 C 62 % 17.5 C
850 26-07-2019 22:45:00 25.2 C 63 % 17.65 C
Sensor: Nr:Datum:Temp:Feuchte:Taupunkt:
Aussen-T/F 851 26-07-2019 22:50:00 25.1 C 63 % 17.56 C
852 26-07-2019 22:55:00 24.9 C 64 % 17.62 C
853 26-07-2019 23:00:00 24.8 C 65 % 17.77 C
854 26-07-2019 23:05:00 24.8 C 65 % 17.77 C
855 26-07-2019 23:10:00 24.7 C 66 % 17.92 C
856 26-07-2019 23:15:00 24.6 C 66 % 17.83 C
857 26-07-2019 23:20:00 24.5 C 67 % 17.97 C
858 26-07-2019 23:25:00 24.4 C 67 % 17.87 C
859 26-07-2019 23:30:00 24.3 C 67 % 17.78 C
860 26-07-2019 23:35:00 24.2 C 67 % 17.68 C
861 26-07-2019 23:40:00 24.2 C 67 % 17.68 C
862 26-07-2019 23:45:00 24.1 C 68 % 17.82 C
863 26-07-2019 23:50:00 23.9 C 68 % 17.63 C
864 26-07-2019 23:55:00 23.8 C 68 % 17.54 C
865 27-07-2019 00:00:00 23.6 C 69 % 17.58 C
866 27-07-2019 00:05:00 23.4 C 69 % 17.39 C
867 27-07-2019 00:10:00 23.3 C 69 % 17.29 C
868 27-07-2019 00:15:00 23.3 C 70 % 17.52 C
869 27-07-2019 00:20:00 23.2 C 70 % 17.42 C
870 27-07-2019 00:25:00 23.2 C 70 % 17.42 C
871 27-07-2019 00:30:00 23.1 C 70 % 17.33 C
872 27-07-2019 00:35:00 23.1 C 71 % 17.55 C
873 27-07-2019 00:40:00 23 C 71 % 17.46 C
874 27-07-2019 00:45:00 22.9 C 71 % 17.36 C
875 27-07-2019 00:50:00 22.9 C 71 % 17.36 C
Sensor: Nr:Datum:Temp:Feuchte:Taupunkt:
Aussen-T/F 876 27-07-2019 00:55:00 22.8 C 72 % 17.49 C
877 27-07-2019 01:00:00 22.8 C 72 % 17.49 C
878 27-07-2019 01:05:00 22.7 C 72 % 17.39 C
879 27-07-2019 01:10:00 22.7 C 73 % 17.61 C
880 27-07-2019 01:15:00 22.6 C 73 % 17.51 C
881 27-07-2019 01:20:00 22.7 C 74 % 17.83 C
882 27-07-2019 01:25:00 22.7 C 73 % 17.61 C
883 27-07-2019 01:30:00 22.7 C 73 % 17.61 C
884 27-07-2019 01:35:00 22.7 C 73 % 17.61 C
885 27-07-2019 01:40:00 22.7 C 74 % 17.83 C
886 27-07-2019 01:45:00 22.6 C 74 % 17.73 C
887 27-07-2019 01:50:00 22.4 C 74 % 17.54 C
888 27-07-2019 01:55:00 22.3 C 74 % 17.44 C
889 27-07-2019 02:00:00 22.3 C 74 % 17.44 C
890 27-07-2019 02:05:00 22.3 C 73 % 17.23 C
891 27-07-2019 02:10:00 22.3 C 73 % 17.23 C
892 27-07-2019 02:15:00 22.3 C 75 % 17.65 C
893 27-07-2019 02:20:00 22.4 C 75 % 17.75 C
894 27-07-2019 02:25:00 22.4 C 76 % 17.96 C
895 27-07-2019 02:30:00 22.4 C 76 % 17.96 C
896 27-07-2019 02:35:00 22.4 C 76 % 17.96 C
897 27-07-2019 02:40:00 22.3 C 76 % 17.86 C
898 27-07-2019 02:45:00 22.3 C 76 % 17.86 C
899 27-07-2019 02:50:00 22.3 C 76 % 17.86 C
900 27-07-2019 02:55:00 22.3 C 76 % 17.86 C
Sensor: Nr:Datum:Temp:Feuchte:Taupunkt:
Aussen-T/F 901 27-07-2019 03:00:00 22.3 C 76 % 17.86 C
902 27-07-2019 03:05:00 22.3 C 76 % 17.86 C
903 27-07-2019 03:10:00 22.3 C 74 % 17.44 C
904 27-07-2019 03:15:00 22.4 C 74 % 17.54 C
905 27-07-2019 03:20:00 22.5 C 73 % 17.42 C
906 27-07-2019 03:25:00 22.6 C 72 % 17.3 C
907 27-07-2019 03:30:00 22.6 C 71 % 17.07 C
908 27-07-2019 03:35:00 22.8 C 69 % 16.82 C
909 27-07-2019 03:40:00 23.2 C 75 % 18.52 C
910 27-07-2019 03:45:00 23.1 C 78 % 19.05 C
911 27-07-2019 03:50:00 22.7 C 79 % 18.87 C
912 27-07-2019 03:55:00 22.3 C 80 % 18.68 C
913 27-07-2019 04:00:00 21.9 C 83 % 18.88 C
914 27-07-2019 04:05:00 21.7 C 84 % 18.88 C
915 27-07-2019 04:10:00 21.4 C 85 % 18.77 C
916 27-07-2019 04:15:00 21.1 C 85 % 18.48 C
917 27-07-2019 04:20:00 20.9 C 86 % 18.47 C
918 27-07-2019 04:25:00 20.8 C 87 % 18.56 C
919 27-07-2019 04:30:00 20.7 C 87 % 18.46 C
920 27-07-2019 04:35:00 20.6 C 87 % 18.36 C
921 27-07-2019 04:40:00 20.5 C 88 % 18.44 C
922 27-07-2019 04:45:00 20.4 C 88 % 18.34 C
923 27-07-2019 04:50:00 20.4 C 88 % 18.34 C
924 27-07-2019 04:55:00 20.4 C 89 % 18.53 C
925 27-07-2019 05:00:00 20.4 C 88 % 18.34 C
Sensor: Nr:Datum:Temp:Feuchte:Taupunkt:
Aussen-T/F 926 27-07-2019 05:05:00 20.4 C 88 % 18.34 C
927 27-07-2019 05:10:00 20.3 C 89 % 18.43 C
928 27-07-2019 05:15:00 20.3 C 89 % 18.43 C
929 27-07-2019 05:20:00 20.3 C 89 % 18.43 C
930 27-07-2019 05:25:00 20.3 C 89 % 18.43 C
931 27-07-2019 05:30:00 20.2 C 89 % 18.33 C
932 27-07-2019 05:35:00 20.3 C 89 % 18.43 C
933 27-07-2019 05:40:00 20.2 C 89 % 18.33 C
934 27-07-2019 05:45:00 20.2 C 89 % 18.33 C
935 27-07-2019 05:50:00 20.2 C 89 % 18.33 C
936 27-07-2019 05:55:00 20.2 C 88 % 18.15 C
937 27-07-2019 06:00:00 20.2 C 88 % 18.15 C
938 27-07-2019 06:05:00 20.3 C 89 % 18.43 C
939 27-07-2019 06:10:00 20.3 C 88 % 18.25 C
940 27-07-2019 06:15:00 20.3 C 89 % 18.43 C
941 27-07-2019 06:20:00 20.3 C 88 % 18.25 C
942 27-07-2019 06:25:00 20.4 C 89 % 18.53 C
943 27-07-2019 06:30:00 20.6 C 89 % 18.72 C
944 27-07-2019 06:35:00 20.7 C 89 % 18.82 C
945 27-07-2019 06:40:00 20.7 C 88 % 18.64 C
946 27-07-2019 06:45:00 20.8 C 88 % 18.74 C
947 27-07-2019 06:50:00 20.8 C 89 % 18.92 C
948 27-07-2019 06:55:00 20.9 C 89 % 19.02 C
949 27-07-2019 07:00:00 20.9 C 89 % 19.02 C
950 27-07-2019 07:05:00 21 C 89 % 19.12 C
Sensor: Nr:Datum:Temp:Feuchte:Taupunkt:
Aussen-T/F 951 27-07-2019 07:10:00 20.9 C 88 % 18.84 C
952 27-07-2019 07:15:00 21 C 89 % 19.12 C
953 27-07-2019 07:20:00 21.1 C 88 % 19.03 C
954 27-07-2019 07:25:00 21.2 C 88 % 19.13 C
955 27-07-2019 07:30:00 21.3 C 89 % 19.41 C
956 27-07-2019 07:35:00 21.4 C 89 % 19.51 C
957 27-07-2019 07:40:00 21.4 C 88 % 19.33 C
958 27-07-2019 07:45:00 21.5 C 88 % 19.43 C
959 27-07-2019 07:50:00 21.6 C 87 % 19.34 C
960 27-07-2019 07:55:00 21.7 C 86 % 19.25 C
961 27-07-2019 08:00:00 21.8 C 86 % 19.35 C
962 27-07-2019 08:05:00 21.9 C 86 % 19.45 C
963 27-07-2019 08:10:00 22.1 C 86 % 19.65 C
964 27-07-2019 08:15:00 22.1 C 84 % 19.27 C
965 27-07-2019 08:20:00 22.2 C 83 % 19.17 C
966 27-07-2019 08:25:00 22.3 C 82 % 19.08 C
967 27-07-2019 08:30:00 22.5 C 81 % 19.08 C
968 27-07-2019 08:35:00 22.8 C 80 % 19.17 C
969 27-07-2019 08:40:00 23 C 78 % 18.96 C
970 27-07-2019 08:45:00 23.2 C 78 % 19.15 C
971 27-07-2019 08:50:00 23.4 C 77 % 19.14 C
972 27-07-2019 08:55:00 23.6 C 76 % 19.12 C
973 27-07-2019 09:00:00 23.8 C 76 % 19.31 C
974 27-07-2019 09:05:00 24.1 C 76 % 19.6 C
975 27-07-2019 09:10:00 24.3 C 76 % 19.8 C
Sensor: Nr:Datum:Temp:Feuchte:Taupunkt:
Aussen-T/F 976 27-07-2019 09:15:00 24.4 C 74 % 19.46 C
977 27-07-2019 09:20:00 24.6 C 73 % 19.44 C
978 27-07-2019 09:25:00 24.8 C 73 % 19.63 C
979 27-07-2019 09:30:00 24.9 C 73 % 19.72 C
980 27-07-2019 09:35:00 25.1 C 73 % 19.92 C
981 27-07-2019 09:40:00 25.1 C 72 % 19.69 C
982 27-07-2019 09:45:00 25.2 C 72 % 19.79 C
983 27-07-2019 09:50:00 25.2 C 72 % 19.79 C
984 27-07-2019 09:55:00 25.2 C 72 % 19.79 C
985 27-07-2019 10:00:00 25.2 C 72 % 19.79 C
986 27-07-2019 10:05:00 25.3 C 71 % 19.66 C
987 27-07-2019 10:10:00 25.3 C 71 % 19.66 C
988 27-07-2019 10:15:00 25.3 C 80 % 21.6 C
989 27-07-2019 10:20:00 25 C 82 % 21.71 C
990 27-07-2019 10:25:00 24.7 C 84 % 21.81 C
991 27-07-2019 10:30:00 24.4 C 85 % 21.71 C
992 27-07-2019 10:35:00 24.2 C 86 % 21.71 C
993 27-07-2019 10:40:00 24.1 C 87 % 21.8 C
994 27-07-2019 10:45:00 24.1 C 88 % 21.99 C
995 27-07-2019 10:50:00 24.1 C 87 % 21.8 C
996 27-07-2019 10:55:00 24 C 87 % 21.7 C
997 27-07-2019 11:00:00 24 C 88 % 21.89 C
998 27-07-2019 11:05:00 24.1 C 88 % 21.99 C
999 27-07-2019 11:10:00 24.1 C 88 % 21.99 C
1000 27-07-2019 11:15:00 24.1 C 88 % 21.99 C
Sensor: Nr:Datum:Temp:Feuchte:Taupunkt:
Aussen-T/F 1001 27-07-2019 11:20:00 24.2 C 88 % 22.08 C
1002 27-07-2019 11:25:00 24.2 C 88 % 22.08 C
1003 27-07-2019 11:30:00 24.2 C 87 % 21.9 C
1004 27-07-2019 11:35:00 24 C 85 % 21.32 C
1005 27-07-2019 11:40:00 23.9 C 85 % 21.22 C
1006 27-07-2019 11:45:00 23.7 C 85 % 21.03 C
1007 27-07-2019 11:50:00 23.5 C 84 % 20.64 C
1008 27-07-2019 11:55:00 23.3 C 85 % 20.63 C
1009 27-07-2019 12:00:00 23.2 C 85 % 20.54 C
1010 27-07-2019 12:05:00 23.2 C 87 % 20.91 C
1011 27-07-2019 12:10:00 23.2 C 88 % 21.1 C
1012 27-07-2019 12:15:00 23.2 C 88 % 21.1 C
1013 27-07-2019 12:20:00 23.2 C 86 % 20.73 C
1014 27-07-2019 12:25:00 23.3 C 85 % 20.63 C
1015 27-07-2019 12:30:00 23.5 C 84 % 20.64 C
1016 27-07-2019 12:35:00 23.8 C 81 % 20.34 C
1017 27-07-2019 12:40:00 24.1 C 80 % 20.43 C
1018 27-07-2019 12:45:00 24.4 C 82 % 21.12 C
1019 27-07-2019 12:50:00 24.8 C 78 % 20.7 C
1020 27-07-2019 12:55:00 25.1 C 78 % 20.99 C
1021 27-07-2019 13:00:00 25.3 C 75 % 20.55 C
1022 27-07-2019 13:05:00 25.5 C 76 % 20.95 C
1023 27-07-2019 13:10:00 25.7 C 74 % 20.71 C
1024 27-07-2019 13:15:00 26 C 75 % 21.22 C
1025 27-07-2019 13:20:00 26.2 C 74 % 21.2 C
Sensor: Nr:Datum:Temp:Feuchte:Taupunkt:
Aussen-T/F 1026 27-07-2019 13:25:00 26.2 C 74 % 21.2 C
1027 27-07-2019 13:30:00 26.1 C 75 % 21.32 C
1028 27-07-2019 13:35:00 26.2 C 75 % 21.41 C
1029 27-07-2019 13:40:00 26.2 C 74 % 21.2 C
1030 27-07-2019 13:45:00 26.2 C 72 % 20.75 C
1031 27-07-2019 13:50:00 26.2 C 70 % 20.29 C
1032 27-07-2019 13:55:00 26.2 C 72 % 20.75 C
1033 27-07-2019 14:00:00 26.2 C 69 % 20.06 C
1034 27-07-2019 14:05:00 26.1 C 70 % 20.2 C
1035 27-07-2019 14:10:00 25.9 C 70 % 20.01 C
1036 27-07-2019 14:15:00 25.9 C 68 % 19.54 C
1037 27-07-2019 14:20:00 25.8 C 70 % 19.91 C
1038 27-07-2019 14:25:00 25.7 C 69 % 19.58 C
1039 27-07-2019 14:30:00 25.6 C 71 % 19.95 C
1040 27-07-2019 14:35:00 25.5 C 71 % 19.85 C
1041 27-07-2019 14:40:00 25.5 C 73 % 20.3 C
1042 27-07-2019 14:45:00 25.5 C 73 % 20.3 C
1043 27-07-2019 14:50:00 25.5 C 75 % 20.74 C
1044 27-07-2019 14:55:00 25.5 C 74 % 20.52 C
1045 27-07-2019 15:00:00 25.3 C 74 % 20.33 C
1046 27-07-2019 15:05:00 25.1 C 74 % 20.14 C
1047 27-07-2019 15:10:00 24.8 C 74 % 19.85 C
1048 27-07-2019 15:15:00 24.7 C 75 % 19.97 C
1049 27-07-2019 15:20:00 24.7 C 75 % 19.97 C
1050 27-07-2019 15:25:00 24.8 C 75 % 20.06 C
Sensor: Nr:Datum:Temp:Feuchte:Taupunkt:
Aussen-T/F 1051 27-07-2019 15:30:00 24.8 C 74 % 19.85 C
1052 27-07-2019 15:35:00 25 C 74 % 20.04 C
1053 27-07-2019 15:40:00 25.1 C 74 % 20.14 C
1054 27-07-2019 15:45:00 25.2 C 73 % 20.01 C
1055 27-07-2019 15:50:00 25.4 C 73 % 20.21 C
1056 27-07-2019 15:55:00 25.6 C 74 % 20.62 C
1057 27-07-2019 16:00:00 25.8 C 72 % 20.37 C
1058 27-07-2019 16:05:00 26.1 C 70 % 20.2 C
1059 27-07-2019 16:10:00 26.2 C 68 % 19.82 C
1060 27-07-2019 16:15:00 26.2 C 67 % 19.59 C
1061 27-07-2019 16:20:00 26.2 C 68 % 19.82 C
1062 27-07-2019 16:25:00 26.3 C 68 % 19.92 C
1063 27-07-2019 16:30:00 26.3 C 67 % 19.68 C
1064 27-07-2019 16:35:00 26.2 C 67 % 19.59 C
1065 27-07-2019 16:40:00 25.9 C 68 % 19.54 C
1066 27-07-2019 16:45:00 25.7 C 67 % 19.11 C
1067 27-07-2019 16:50:00 25.5 C 69 % 19.39 C
1068 27-07-2019 16:55:00 25.2 C 71 % 19.56 C
1069 27-07-2019 17:00:00 24.9 C 73 % 19.72 C
1070 27-07-2019 17:05:00 24.6 C 74 % 19.66 C
1071 27-07-2019 17:10:00 24.5 C 76 % 19.99 C
1072 27-07-2019 17:15:00 24.5 C 77 % 20.2 C
1073 27-07-2019 17:20:00 24.5 C 77 % 20.2 C
1074 27-07-2019 17:25:00 24.5 C 77 % 20.2 C
1075 27-07-2019 17:30:00 24.4 C 76 % 19.89 C
Sensor: Nr:Datum:Temp:Feuchte:Taupunkt:
Aussen-T/F 1076 27-07-2019 17:35:00 24.4 C 76 % 19.89 C
1077 27-07-2019 17:40:00 24.4 C 77 % 20.1 C
1078 27-07-2019 17:45:00 24.4 C 76 % 19.89 C
1079 27-07-2019 17:50:00 24.4 C 76 % 19.89 C
1080 27-07-2019 17:55:00 24.4 C 76 % 19.89 C
1081 27-07-2019 18:00:00 24.4 C 77 % 20.1 C
1082 27-07-2019 18:05:00 24.4 C 77 % 20.1 C
1083 27-07-2019 18:10:00 24.4 C 76 % 19.89 C
1084 27-07-2019 18:15:00 24.6 C 77 % 20.3 C
1085 27-07-2019 18:20:00 24.8 C 76 % 20.28 C
1086 27-07-2019 18:25:00 25.1 C 75 % 20.35 C
1087 27-07-2019 18:30:00 25.4 C 75 % 20.64 C
1088 27-07-2019 18:35:00 25.3 C 75 % 20.55 C
1089 27-07-2019 18:40:00 25.3 C 75 % 20.55 C
1090 27-07-2019 18:45:00 25.2 C 75 % 20.45 C
1091 27-07-2019 18:50:00 25.1 C 75 % 20.35 C
1092 27-07-2019 18:55:00 24.9 C 76 % 20.38 C
1093 27-07-2019 19:00:00 24.7 C 77 % 20.39 C
1094 27-07-2019 19:05:00 24.5 C 77 % 20.2 C
1095 27-07-2019 19:10:00 24.3 C 76 % 19.8 C
1096 27-07-2019 19:15:00 24.1 C 77 % 19.81 C
1097 27-07-2019 19:20:00 23.9 C 79 % 20.03 C
1098 27-07-2019 19:25:00 23.8 C 81 % 20.34 C
1099 27-07-2019 19:30:00 23.7 C 82 % 20.44 C
1100 27-07-2019 19:35:00 23.6 C 83 % 20.54 C
Sensor: Nr:Datum:Temp:Feuchte:Taupunkt:
Aussen-T/F 1101 27-07-2019 19:40:00 23.4 C 84 % 20.54 C
1102 27-07-2019 19:45:00 23.4 C 84 % 20.54 C
1103 27-07-2019 19:50:00 23.4 C 85 % 20.73 C
1104 27-07-2019 19:55:00 23.3 C 84 % 20.44 C
1105 27-07-2019 20:00:00 23.2 C 84 % 20.34 C
1106 27-07-2019 20:05:00 23.1 C 85 % 20.44 C
1107 27-07-2019 20:10:00 23.1 C 85 % 20.44 C
1108 27-07-2019 20:15:00 23 C 85 % 20.34 C
1109 27-07-2019 20:20:00 23 C 85 % 20.34 C
1110 27-07-2019 20:25:00 22.9 C 85 % 20.24 C
1111 27-07-2019 20:30:00 22.8 C 85 % 20.14 C
1112 27-07-2019 20:35:00 22.8 C 85 % 20.14 C
1113 27-07-2019 20:40:00 22.8 C 85 % 20.14 C
1114 27-07-2019 20:45:00 22.7 C 85 % 20.05 C
1115 27-07-2019 20:50:00 22.6 C 85 % 19.95 C
1116 27-07-2019 20:55:00 22.6 C 85 % 19.95 C
1117 27-07-2019 21:00:00 22.4 C 85 % 19.75 C
1118 27-07-2019 21:05:00 22.4 C 85 % 19.75 C
1119 27-07-2019 21:10:00 22.3 C 85 % 19.65 C
1120 27-07-2019 21:15:00 22.3 C 85 % 19.65 C
1121 27-07-2019 21:20:00 22.2 C 86 % 19.75 C
1122 27-07-2019 21:25:00 22.1 C 86 % 19.65 C
1123 27-07-2019 21:30:00 22.1 C 86 % 19.65 C
1124 27-07-2019 21:35:00 21.9 C 86 % 19.45 C
1125 27-07-2019 21:40:00 21.9 C 86 % 19.45 C
Sensor: Nr:Datum:Temp:Feuchte:Taupunkt:
Aussen-T/F 1126 27-07-2019 21:45:00 21.8 C 86 % 19.35 C
1127 27-07-2019 21:50:00 21.8 C 86 % 19.35 C
1128 27-07-2019 21:55:00 21.7 C 86 % 19.25 C
1129 27-07-2019 22:00:00 21.7 C 86 % 19.25 C
1130 27-07-2019 22:05:00 21.6 C 87 % 19.34 C
1131 27-07-2019 22:10:00 21.6 C 87 % 19.34 C
1132 27-07-2019 22:15:00 21.6 C 87 % 19.34 C
1133 27-07-2019 22:20:00 21.5 C 87 % 19.24 C
1134 27-07-2019 22:25:00 21.4 C 87 % 19.15 C
1135 27-07-2019 22:30:00 21.4 C 87 % 19.15 C
1136 27-07-2019 22:35:00 21.4 C 87 % 19.15 C
1137 27-07-2019 22:40:00 21.3 C 87 % 19.05 C
1138 27-07-2019 22:45:00 21.3 C 88 % 19.23 C
1139 27-07-2019 22:50:00 21.3 C 88 % 19.23 C
1140 27-07-2019 22:55:00 21.3 C 88 % 19.23 C
1141 27-07-2019 23:00:00 21.3 C 88 % 19.23 C
1142 27-07-2019 23:05:00 21.2 C 88 % 19.13 C
1143 27-07-2019 23:10:00 21.2 C 88 % 19.13 C
1144 27-07-2019 23:15:00 21.2 C 89 % 19.31 C
1145 27-07-2019 23:20:00 21.2 C 89 % 19.31 C
1146 27-07-2019 23:25:00 21.2 C 89 % 19.31 C
1147 27-07-2019 23:30:00 21.1 C 89 % 19.22 C
1148 27-07-2019 23:35:00 21.1 C 89 % 19.22 C
1149 27-07-2019 23:40:00 21.1 C 89 % 19.22 C
1150 27-07-2019 23:45:00 21.1 C 89 % 19.22 C
Sensor: Nr:Datum:Temp:Feuchte:Taupunkt:
Aussen-T/F 1151 27-07-2019 23:50:00 21 C 89 % 19.12 C
1152 27-07-2019 23:55:00 21 C 89 % 19.12 C
1153 28-07-2019 00:00:00 20.9 C 89 % 19.02 C
1154 28-07-2019 00:05:00 20.9 C 90 % 19.2 C
1155 28-07-2019 00:10:00 20.9 C 90 % 19.2 C
1156 28-07-2019 00:15:00 20.9 C 90 % 19.2 C
1157 28-07-2019 00:20:00 20.8 C 90 % 19.1 C
1158 28-07-2019 00:25:00 20.8 C 90 % 19.1 C
1159 28-07-2019 00:30:00 20.8 C 90 % 19.1 C
1160 28-07-2019 00:35:00 20.8 C 90 % 19.1 C
1161 28-07-2019 00:40:00 20.8 C 90 % 19.1 C
1162 28-07-2019 00:45:00 20.8 C 90 % 19.1 C
1163 28-07-2019 00:50:00 20.8 C 90 % 19.1 C
1164 28-07-2019 00:55:00 20.8 C 90 % 19.1 C
1165 28-07-2019 01:00:00 20.8 C 90 % 19.1 C
1166 28-07-2019 01:05:00 20.7 C 90 % 19 C
1167 28-07-2019 01:10:00 20.7 C 90 % 19 C
1168 28-07-2019 01:15:00 20.7 C 90 % 19 C
1169 28-07-2019 01:20:00 20.7 C 90 % 19 C
1170 28-07-2019 01:25:00 20.7 C 90 % 19 C
1171 28-07-2019 01:30:00 20.7 C 90 % 19 C
1172 28-07-2019 01:35:00 20.7 C 90 % 19 C
1173 28-07-2019 01:40:00 20.7 C 90 % 19 C
1174 28-07-2019 01:45:00 20.7 C 90 % 19 C
1175 28-07-2019 01:50:00 20.7 C 90 % 19 C
Sensor: Nr:Datum:Temp:Feuchte:Taupunkt:
Aussen-T/F 1176 28-07-2019 01:55:00 20.7 C 90 % 19 C
1177 28-07-2019 02:00:00 20.7 C 90 % 19 C
1178 28-07-2019 02:05:00 20.7 C 90 % 19 C
1179 28-07-2019 02:10:00 20.7 C 90 % 19 C
1180 28-07-2019 02:15:00 20.7 C 90 % 19 C
1181 28-07-2019 02:20:00 20.7 C 90 % 19 C
1182 28-07-2019 02:25:00 20.7 C 90 % 19 C
1183 28-07-2019 02:30:00 20.7 C 90 % 19 C
1184 28-07-2019 02:35:00 20.7 C 90 % 19 C
1185 28-07-2019 02:40:00 20.7 C 90 % 19 C
1186 28-07-2019 02:45:00 20.7 C 90 % 19 C
1187 28-07-2019 02:50:00 20.7 C 90 % 19 C
1188 28-07-2019 02:55:00 20.7 C 90 % 19 C
1189 28-07-2019 03:00:00 20.7 C 90 % 19 C
1190 28-07-2019 03:05:00 20.7 C 90 % 19 C
1191 28-07-2019 03:10:00 20.7 C 90 % 19 C
1192 28-07-2019 03:15:00 20.7 C 90 % 19 C
1193 28-07-2019 03:20:00 20.7 C 90 % 19 C
1194 28-07-2019 03:25:00 20.7 C 90 % 19 C
1195 28-07-2019 03:30:00 20.7 C 90 % 19 C
1196 28-07-2019 03:35:00 20.7 C 90 % 19 C
1197 28-07-2019 03:40:00 20.7 C 90 % 19 C
1198 28-07-2019 03:45:00 20.7 C 90 % 19 C
1199 28-07-2019 03:50:00 20.6 C 90 % 18.9 C
1200 28-07-2019 03:55:00 20.6 C 90 % 18.9 C
Sensor: Nr:Datum:Temp:Feuchte:Taupunkt:
Aussen-T/F 1201 28-07-2019 04:00:00 20.7 C 90 % 19 C
1202 28-07-2019 04:05:00 20.6 C 90 % 18.9 C
1203 28-07-2019 04:10:00 20.6 C 91 % 19.08 C
1204 28-07-2019 04:15:00 20.6 C 91 % 19.08 C
1205 28-07-2019 04:20:00 20.6 C 91 % 19.08 C
1206 28-07-2019 04:25:00 20.6 C 91 % 19.08 C
1207 28-07-2019 04:30:00 20.6 C 91 % 19.08 C
1208 28-07-2019 04:35:00 20.6 C 91 % 19.08 C
1209 28-07-2019 04:40:00 20.6 C 91 % 19.08 C
1210 28-07-2019 04:45:00 20.6 C 91 % 19.08 C
1211 28-07-2019 04:50:00 20.6 C 91 % 19.08 C
1212 28-07-2019 04:55:00 20.6 C 91 % 19.08 C
1213 28-07-2019 05:00:00 20.6 C 91 % 19.08 C
1214 28-07-2019 05:05:00 20.6 C 91 % 19.08 C
1215 28-07-2019 05:10:00 20.6 C 91 % 19.08 C
1216 28-07-2019 05:15:00 20.6 C 91 % 19.08 C
1217 28-07-2019 05:20:00 20.6 C 91 % 19.08 C
1218 28-07-2019 05:25:00 20.6 C 91 % 19.08 C
1219 28-07-2019 05:30:00 20.5 C 91 % 18.98 C
1220 28-07-2019 05:35:00 20.5 C 91 % 18.98 C
1221 28-07-2019 05:40:00 20.5 C 91 % 18.98 C
1222 28-07-2019 05:45:00 20.5 C 91 % 18.98 C
1223 28-07-2019 05:50:00 20.5 C 91 % 18.98 C
1224 28-07-2019 05:55:00 20.5 C 91 % 18.98 C
1225 28-07-2019 06:00:00 20.5 C 91 % 18.98 C
Sensor: Nr:Datum:Temp:Feuchte:Taupunkt:
Aussen-T/F 1226 28-07-2019 06:05:00 20.5 C 91 % 18.98 C
1227 28-07-2019 06:10:00 20.5 C 91 % 18.98 C
1228 28-07-2019 06:15:00 20.5 C 91 % 18.98 C
1229 28-07-2019 06:20:00 20.5 C 91 % 18.98 C
1230 28-07-2019 06:25:00 20.5 C 91 % 18.98 C
1231 28-07-2019 06:30:00 20.5 C 91 % 18.98 C
1232 28-07-2019 06:35:00 20.6 C 91 % 19.08 C
1233 28-07-2019 06:40:00 20.6 C 91 % 19.08 C
1234 28-07-2019 06:45:00 20.6 C 91 % 19.08 C
1235 28-07-2019 06:50:00 20.6 C 91 % 19.08 C
1236 28-07-2019 06:55:00 20.6 C 91 % 19.08 C
1237 28-07-2019 07:00:00 20.6 C 91 % 19.08 C
1238 28-07-2019 07:05:00 20.7 C 91 % 19.18 C
1239 28-07-2019 07:10:00 20.7 C 91 % 19.18 C
1240 28-07-2019 07:15:00 20.7 C 90 % 19 C
1241 28-07-2019 07:20:00 20.7 C 90 % 19 C
1242 28-07-2019 07:25:00 20.7 C 90 % 19 C
1243 28-07-2019 07:30:00 20.7 C 90 % 19 C
1244 28-07-2019 07:35:00 20.7 C 90 % 19 C
1245 28-07-2019 07:40:00 20.7 C 90 % 19 C
1246 28-07-2019 07:45:00 20.7 C 89 % 18.82 C
1247 28-07-2019 07:50:00 20.7 C 89 % 18.82 C
1248 28-07-2019 07:55:00 20.7 C 89 % 18.82 C
1249 28-07-2019 08:00:00 20.7 C 89 % 18.82 C
1250 28-07-2019 08:05:00 20.7 C 89 % 18.82 C
Sensor: Nr:Datum:Temp:Feuchte:Taupunkt:
Aussen-T/F 1251 28-07-2019 08:10:00 20.8 C 89 % 18.92 C
1252 28-07-2019 08:15:00 20.8 C 89 % 18.92 C
1253 28-07-2019 08:20:00 20.7 C 89 % 18.82 C
1254 28-07-2019 08:25:00 20.7 C 89 % 18.82 C
1255 28-07-2019 08:30:00 20.7 C 89 % 18.82 C
1256 28-07-2019 08:35:00 20.7 C 89 % 18.82 C
1257 28-07-2019 08:40:00 20.7 C 89 % 18.82 C
1258 28-07-2019 08:45:00 20.7 C 89 % 18.82 C
1259 28-07-2019 08:50:00 20.7 C 89 % 18.82 C
1260 28-07-2019 08:55:00 20.7 C 90 % 19 C
1261 28-07-2019 09:00:00 20.6 C 90 % 18.9 C
1262 28-07-2019 09:05:00 20.6 C 90 % 18.9 C
1263 28-07-2019 09:10:00 20.6 C 90 % 18.9 C
1264 28-07-2019 09:15:00 20.6 C 90 % 18.9 C
1265 28-07-2019 09:20:00 20.5 C 90 % 18.8 C
1266 28-07-2019 09:25:00 20.4 C 90 % 18.7 C
1267 28-07-2019 09:30:00 20.4 C 90 % 18.7 C
1268 28-07-2019 09:35:00 20.3 C 90 % 18.61 C
1269 28-07-2019 09:40:00 20.3 C 91 % 18.78 C
1270 28-07-2019 09:45:00 20.3 C 91 % 18.78 C
1271 28-07-2019 09:50:00 20.3 C 91 % 18.78 C
1272 28-07-2019 09:55:00 20.2 C 91 % 18.68 C
1273 28-07-2019 10:00:00 20.2 C 91 % 18.68 C
1274 28-07-2019 10:05:00 20.2 C 91 % 18.68 C
1275 28-07-2019 10:10:00 20.2 C 91 % 18.68 C
Sensor: Nr:Datum:Temp:Feuchte:Taupunkt:
Aussen-T/F 1276 28-07-2019 10:15:00 20.2 C 91 % 18.68 C
1277 28-07-2019 10:20:00 20.1 C 91 % 18.58 C
1278 28-07-2019 10:25:00 20.1 C 92 % 18.76 C
1279 28-07-2019 10:30:00 19.9 C 92 % 18.56 C
1280 28-07-2019 10:35:00 19.9 C 92 % 18.56 C
1281 28-07-2019 10:40:00 19.9 C 92 % 18.56 C
1282 28-07-2019 10:45:00 19.9 C 93 % 18.73 C
1283 28-07-2019 10:50:00 19.8 C 93 % 18.63 C
1284 28-07-2019 10:55:00 19.9 C 93 % 18.73 C
1285 28-07-2019 11:00:00 19.8 C 93 % 18.63 C
1286 28-07-2019 11:05:00 19.8 C 93 % 18.63 C
1287 28-07-2019 11:10:00 19.8 C 93 % 18.63 C
1288 28-07-2019 11:15:00 19.8 C 93 % 18.63 C
1289 28-07-2019 11:20:00 19.9 C 93 % 18.73 C
1290 28-07-2019 11:25:00 19.9 C 93 % 18.73 C
1291 28-07-2019 11:30:00 20.1 C 92 % 18.76 C
1292 28-07-2019 11:35:00 20.2 C 92 % 18.86 C
1293 28-07-2019 11:40:00 20.3 C 91 % 18.78 C
1294 28-07-2019 11:45:00 20.4 C 90 % 18.7 C
1295 28-07-2019 11:50:00 20.4 C 90 % 18.7 C
1296 28-07-2019 11:55:00 20.6 C 89 % 18.72 C
1297 28-07-2019 12:00:00 20.6 C 89 % 18.72 C
1298 28-07-2019 12:05:00 20.5 C 89 % 18.62 C
1299 28-07-2019 12:10:00 20.5 C 89 % 18.62 C
1300 28-07-2019 12:15:00 20.5 C 88 % 18.44 C
Sensor: Nr:Datum:Temp:Feuchte:Taupunkt:
Aussen-T/F 1301 28-07-2019 12:20:00 20.5 C 88 % 18.44 C
1302 28-07-2019 12:25:00 20.5 C 88 % 18.44 C
1303 28-07-2019 12:30:00 20.4 C 87 % 18.16 C
1304 28-07-2019 12:35:00 20.5 C 87 % 18.26 C
1305 28-07-2019 12:40:00 20.6 C 88 % 18.54 C
1306 28-07-2019 12:45:00 20.5 C 87 % 18.26 C
1307 28-07-2019 12:50:00 20.5 C 87 % 18.26 C
1308 28-07-2019 12:55:00 20.5 C 87 % 18.26 C
1309 28-07-2019 13:00:00 20.5 C 87 % 18.26 C
1310 28-07-2019 13:05:00 20.6 C 87 % 18.36 C
1311 28-07-2019 13:10:00 20.5 C 86 % 18.08 C
1312 28-07-2019 13:15:00 20.5 C 86 % 18.08 C
1313 28-07-2019 13:20:00 20.4 C 86 % 17.98 C
1314 28-07-2019 13:25:00 20.4 C 87 % 18.16 C
1315 28-07-2019 13:30:00 20.4 C 87 % 18.16 C
1316 28-07-2019 13:35:00 20.3 C 87 % 18.06 C
1317 28-07-2019 13:40:00 20.2 C 88 % 18.15 C
1318 28-07-2019 13:45:00 20.1 C 89 % 18.23 C
1319 28-07-2019 13:50:00 19.9 C 89 % 18.03 C
1320 28-07-2019 13:55:00 19.9 C 89 % 18.03 C
1321 28-07-2019 14:00:00 19.9 C 89 % 18.03 C
1322 28-07-2019 14:05:00 19.9 C 89 % 18.03 C
1323 28-07-2019 14:10:00 19.9 C 90 % 18.21 C
1324 28-07-2019 14:15:00 19.9 C 90 % 18.21 C
1325 28-07-2019 14:20:00 19.9 C 90 % 18.21 C
Sensor: Nr:Datum:Temp:Feuchte:Taupunkt:
Aussen-T/F 1326 28-07-2019 14:25:00 20 C 89 % 18.13 C
1327 28-07-2019 14:30:00 20.1 C 89 % 18.23 C
1328 28-07-2019 14:35:00 20.1 C 89 % 18.23 C
1329 28-07-2019 14:40:00 20.1 C 89 % 18.23 C
1330 28-07-2019 14:45:00 20.1 C 89 % 18.23 C
1331 28-07-2019 14:50:00 20 C 89 % 18.13 C
1332 28-07-2019 14:55:00 19.9 C 89 % 18.03 C
1333 28-07-2019 15:00:00 20 C 89 % 18.13 C
1334 28-07-2019 15:05:00 19.9 C 89 % 18.03 C
1335 28-07-2019 15:10:00 19.9 C 88 % 17.85 C
1336 28-07-2019 15:15:00 19.9 C 88 % 17.85 C
1337 28-07-2019 15:20:00 19.9 C 89 % 18.03 C
1338 28-07-2019 15:25:00 19.9 C 88 % 17.85 C
1339 28-07-2019 15:30:00 19.9 C 88 % 17.85 C
1340 28-07-2019 15:35:00 19.9 C 88 % 17.85 C
1341 28-07-2019 15:40:00 19.9 C 88 % 17.85 C
1342 28-07-2019 15:45:00 19.9 C 88 % 17.85 C
1343 28-07-2019 15:50:00 19.9 C 88 % 17.85 C
1344 28-07-2019 15:55:00 19.9 C 87 % 17.67 C
1345 28-07-2019 16:00:00 19.9 C 88 % 17.85 C
1346 28-07-2019 16:05:00 19.9 C 87 % 17.67 C
1347 28-07-2019 16:10:00 19.9 C 87 % 17.67 C
1348 28-07-2019 16:15:00 19.9 C 87 % 17.67 C
1349 28-07-2019 16:20:00 19.8 C 87 % 17.57 C
1350 28-07-2019 16:25:00 19.8 C 88 % 17.75 C
Sensor: Nr:Datum:Temp:Feuchte:Taupunkt:
Aussen-T/F 1351 28-07-2019 16:30:00 19.8 C 88 % 17.75 C
1352 28-07-2019 16:35:00 19.8 C 88 % 17.75 C
1353 28-07-2019 16:40:00 19.8 C 88 % 17.75 C
1354 28-07-2019 16:45:00 19.7 C 88 % 17.66 C
1355 28-07-2019 16:50:00 19.7 C 88 % 17.66 C
1356 28-07-2019 16:55:00 19.8 C 88 % 17.75 C
1357 28-07-2019 17:00:00 19.7 C 88 % 17.66 C
1358 28-07-2019 17:05:00 19.8 C 89 % 17.93 C
1359 28-07-2019 17:10:00 19.7 C 89 % 17.84 C
1360 28-07-2019 17:15:00 19.6 C 89 % 17.74 C
1361 28-07-2019 17:20:00 19.4 C 89 % 17.54 C
1362 28-07-2019 17:25:00 19.4 C 90 % 17.72 C
1363 28-07-2019 17:30:00 19.4 C 90 % 17.72 C
1364 28-07-2019 17:35:00 19.3 C 90 % 17.62 C
1365 28-07-2019 17:40:00 19.3 C 90 % 17.62 C
1366 28-07-2019 17:45:00 19.3 C 91 % 17.79 C
1367 28-07-2019 17:50:00 19.3 C 91 % 17.79 C
1368 28-07-2019 17:55:00 19.3 C 92 % 17.97 C
1369 28-07-2019 18:00:00 19.2 C 91 % 17.69 C
1370 28-07-2019 18:05:00 19.2 C 91 % 17.69 C
1371 28-07-2019 18:10:00 19.2 C 91 % 17.69 C
1372 28-07-2019 18:15:00 19.3 C 91 % 17.79 C
1373 28-07-2019 18:20:00 19.2 C 90 % 17.52 C
1374 28-07-2019 18:25:00 19.2 C 90 % 17.52 C
1375 28-07-2019 18:30:00 19.2 C 90 % 17.52 C
Sensor: Nr:Datum:Temp:Feuchte:Taupunkt:
Aussen-T/F 1376 28-07-2019 18:35:00 19.2 C 90 % 17.52 C
1377 28-07-2019 18:40:00 19.1 C 90 % 17.42 C
1378 28-07-2019 18:45:00 19.1 C 90 % 17.42 C
1379 28-07-2019 18:50:00 19.1 C 90 % 17.42 C
1380 28-07-2019 18:55:00 19.1 C 91 % 17.6 C
1381 28-07-2019 19:00:00 19.1 C 91 % 17.6 C
1382 28-07-2019 19:05:00 19.1 C 91 % 17.6 C
1383 28-07-2019 19:10:00 19 C 91 % 17.5 C
1384 28-07-2019 19:15:00 18.9 C 91 % 17.4 C
1385 28-07-2019 19:20:00 18.9 C 91 % 17.4 C
1386 28-07-2019 19:25:00 18.9 C 92 % 17.57 C
1387 28-07-2019 19:30:00 18.9 C 92 % 17.57 C
1388 28-07-2019 19:35:00 18.8 C 92 % 17.47 C
1389 28-07-2019 19:40:00 18.8 C 92 % 17.47 C
1390 28-07-2019 19:45:00 18.7 C 92 % 17.37 C
1391 28-07-2019 19:50:00 18.7 C 92 % 17.37 C
1392 28-07-2019 19:55:00 18.7 C 92 % 17.37 C
1393 28-07-2019 20:00:00 18.7 C 92 % 17.37 C
1394 28-07-2019 20:05:00 18.7 C 92 % 17.37 C
1395 28-07-2019 20:10:00 18.6 C 92 % 17.27 C
1396 28-07-2019 20:15:00 18.6 C 93 % 17.45 C
1397 28-07-2019 20:20:00 18.6 C 93 % 17.45 C
1398 28-07-2019 20:25:00 18.6 C 93 % 17.45 C
1399 28-07-2019 20:30:00 18.5 C 93 % 17.35 C
1400 28-07-2019 20:35:00 18.4 C 93 % 17.25 C
Sensor: Nr:Datum:Temp:Feuchte:Taupunkt:
Aussen-T/F 1401 28-07-2019 20:40:00 18.4 C 93 % 17.25 C
1402 28-07-2019 20:45:00 18.3 C 93 % 17.15 C
1403 28-07-2019 20:50:00 18.3 C 93 % 17.15 C
1404 28-07-2019 20:55:00 18.3 C 93 % 17.15 C
1405 28-07-2019 21:00:00 18.2 C 93 % 17.05 C
1406 28-07-2019 21:05:00 18.2 C 93 % 17.05 C
1407 28-07-2019 21:10:00 18.2 C 94 % 17.22 C
1408 28-07-2019 21:15:00 18.2 C 94 % 17.22 C
1409 28-07-2019 21:20:00 18.2 C 94 % 17.22 C
1410 28-07-2019 21:25:00 18.2 C 94 % 17.22 C
1411 28-07-2019 21:30:00 18.2 C 94 % 17.22 C
1412 28-07-2019 21:35:00 18.2 C 94 % 17.22 C
1413 28-07-2019 21:40:00 18.2 C 94 % 17.22 C
1414 28-07-2019 21:45:00 18.1 C 94 % 17.12 C
1415 28-07-2019 21:50:00 18.1 C 94 % 17.12 C
1416 28-07-2019 21:55:00 18.1 C 94 % 17.12 C
1417 28-07-2019 22:00:00 18.1 C 94 % 17.12 C
1418 28-07-2019 22:05:00 18.1 C 94 % 17.12 C
1419 28-07-2019 22:10:00 18 C 94 % 17.02 C
1420 28-07-2019 22:15:00 17.9 C 95 % 17.09 C
1421 28-07-2019 22:20:00 17.9 C 95 % 17.09 C
1422 28-07-2019 22:25:00 17.9 C 95 % 17.09 C
1423 28-07-2019 22:30:00 17.9 C 95 % 17.09 C
1424 28-07-2019 22:35:00 17.9 C 95 % 17.09 C
1425 28-07-2019 22:40:00 17.8 C 95 % 16.99 C
Sensor: Nr:Datum:Temp:Feuchte:Taupunkt:
Aussen-T/F 1426 28-07-2019 22:45:00 17.8 C 95 % 16.99 C
1427 28-07-2019 22:50:00 17.8 C 95 % 16.99 C
1428 28-07-2019 22:55:00 17.8 C 95 % 16.99 C
1429 28-07-2019 23:00:00 17.7 C 95 % 16.89 C
1430 28-07-2019 23:05:00 17.7 C 95 % 16.89 C
1431 28-07-2019 23:10:00 17.7 C 95 % 16.89 C
1432 28-07-2019 23:15:00 17.7 C 95 % 16.89 C
1433 28-07-2019 23:20:00 17.7 C 95 % 16.89 C
1434 28-07-2019 23:25:00 17.6 C 95 % 16.79 C
1435 28-07-2019 23:30:00 17.6 C 95 % 16.79 C
1436 28-07-2019 23:35:00 17.6 C 95 % 16.79 C
1437 28-07-2019 23:40:00 17.5 C 95 % 16.69 C
1438 28-07-2019 23:45:00 17.5 C 95 % 16.69 C
1439 28-07-2019 23:50:00 17.4 C 95 % 16.59 C
1440 28-07-2019 23:55:00 17.5 C 95 % 16.69 C
1441 29-07-2019 00:00:00 17.4 C 95 % 16.59 C
1442 29-07-2019 00:05:00 17.4 C 95 % 16.59 C
1443 29-07-2019 00:10:00 17.4 C 95 % 16.59 C
1444 29-07-2019 00:15:00 17.4 C 95 % 16.59 C
1445 29-07-2019 00:20:00 17.4 C 95 % 16.59 C
1446 29-07-2019 00:25:00 17.4 C 95 % 16.59 C
1447 29-07-2019 00:30:00 17.3 C 95 % 16.49 C
1448 29-07-2019 00:35:00 17.3 C 95 % 16.49 C
1449 29-07-2019 00:40:00 17.3 C 95 % 16.49 C
1450 29-07-2019 00:45:00 17.2 C 95 % 16.39 C
Sensor: Nr:Datum:Temp:Feuchte:Taupunkt:
Aussen-T/F 1451 29-07-2019 00:50:00 17.2 C 95 % 16.39 C
1452 29-07-2019 00:55:00 17.2 C 95 % 16.39 C
1453 29-07-2019 01:00:00 17.1 C 95 % 16.29 C
1454 29-07-2019 01:05:00 17.2 C 95 % 16.39 C
1455 29-07-2019 01:10:00 17.1 C 95 % 16.29 C
1456 29-07-2019 01:15:00 17.1 C 95 % 16.29 C
1457 29-07-2019 01:20:00 17.1 C 95 % 16.29 C
1458 29-07-2019 01:25:00 17.1 C 95 % 16.29 C
1459 29-07-2019 01:30:00 17.1 C 95 % 16.29 C
1460 29-07-2019 01:35:00 17.1 C 95 % 16.29 C
1461 29-07-2019 01:40:00 17.1 C 95 % 16.29 C
1462 29-07-2019 01:45:00 17.1 C 95 % 16.29 C
1463 29-07-2019 01:50:00 17.1 C 95 % 16.29 C
1464 29-07-2019 01:55:00 17.1 C 95 % 16.29 C
1465 29-07-2019 02:00:00 17.1 C 95 % 16.29 C
1466 29-07-2019 02:05:00 17 C 95 % 16.19 C
1467 29-07-2019 02:10:00 17 C 95 % 16.19 C
1468 29-07-2019 02:15:00 17 C 96 % 16.36 C
1469 29-07-2019 02:20:00 17 C 96 % 16.36 C
1470 29-07-2019 02:25:00 17 C 96 % 16.36 C
1471 29-07-2019 02:30:00 17 C 96 % 16.36 C
1472 29-07-2019 02:35:00 17 C 96 % 16.36 C
1473 29-07-2019 02:40:00 16.9 C 96 % 16.26 C
1474 29-07-2019 02:45:00 16.9 C 96 % 16.26 C
1475 29-07-2019 02:50:00 16.9 C 96 % 16.26 C
Sensor: Nr:Datum:Temp:Feuchte:Taupunkt:
Aussen-T/F 1476 29-07-2019 02:55:00 16.9 C 96 % 16.26 C
1477 29-07-2019 03:00:00 16.9 C 96 % 16.26 C
1478 29-07-2019 03:05:00 16.9 C 96 % 16.26 C
1479 29-07-2019 03:10:00 16.9 C 96 % 16.26 C
1480 29-07-2019 03:15:00 16.9 C 96 % 16.26 C
1481 29-07-2019 03:20:00 16.9 C 96 % 16.26 C
1482 29-07-2019 03:25:00 16.8 C 96 % 16.16 C
1483 29-07-2019 03:30:00 16.8 C 96 % 16.16 C
1484 29-07-2019 03:35:00 16.8 C 96 % 16.16 C
1485 29-07-2019 03:40:00 16.8 C 96 % 16.16 C
1486 29-07-2019 03:45:00 16.8 C 96 % 16.16 C
1487 29-07-2019 03:50:00 16.8 C 96 % 16.16 C
1488 29-07-2019 03:55:00 16.8 C 96 % 16.16 C
1489 29-07-2019 04:00:00 16.9 C 96 % 16.26 C
1490 29-07-2019 04:05:00 16.8 C 96 % 16.16 C
1491 29-07-2019 04:10:00 16.8 C 96 % 16.16 C
1492 29-07-2019 04:15:00 16.8 C 96 % 16.16 C
1493 29-07-2019 04:20:00 16.8 C 96 % 16.16 C
1494 29-07-2019 04:25:00 16.8 C 96 % 16.16 C
1495 29-07-2019 04:30:00 16.8 C 96 % 16.16 C
1496 29-07-2019 04:35:00 16.8 C 96 % 16.16 C
1497 29-07-2019 04:40:00 16.8 C 96 % 16.16 C
1498 29-07-2019 04:45:00 16.8 C 96 % 16.16 C
1499 29-07-2019 04:50:00 16.8 C 96 % 16.16 C
1500 29-07-2019 04:55:00 16.8 C 96 % 16.16 C
Sensor: Nr:Datum:Temp:Feuchte:Taupunkt:
Aussen-T/F 1501 29-07-2019 05:00:00 16.8 C 96 % 16.16 C
1502 29-07-2019 05:05:00 16.8 C 96 % 16.16 C
1503 29-07-2019 05:10:00 16.8 C 96 % 16.16 C
1504 29-07-2019 05:15:00 16.8 C 96 % 16.16 C
1505 29-07-2019 05:20:00 16.8 C 96 % 16.16 C
1506 29-07-2019 05:25:00 16.7 C 96 % 16.06 C
1507 29-07-2019 05:30:00 16.7 C 96 % 16.06 C
1508 29-07-2019 05:35:00 16.7 C 96 % 16.06 C
1509 29-07-2019 05:40:00 16.7 C 96 % 16.06 C
1510 29-07-2019 05:45:00 16.7 C 96 % 16.06 C
1511 29-07-2019 05:50:00 16.7 C 96 % 16.06 C
1512 29-07-2019 05:55:00 16.7 C 96 % 16.06 C
1513 29-07-2019 06:00:00 16.7 C 96 % 16.06 C
1514 29-07-2019 06:05:00 16.7 C 96 % 16.06 C
1515 29-07-2019 06:10:00 16.7 C 96 % 16.06 C
1516 29-07-2019 06:15:00 16.7 C 96 % 16.06 C
1517 29-07-2019 06:20:00 16.7 C 96 % 16.06 C
1518 29-07-2019 06:25:00 16.7 C 96 % 16.06 C
1519 29-07-2019 06:30:00 16.7 C 96 % 16.06 C
1520 29-07-2019 06:35:00 16.7 C 96 % 16.06 C
1521 29-07-2019 06:40:00 16.7 C 96 % 16.06 C
1522 29-07-2019 06:45:00 16.8 C 96 % 16.16 C
1523 29-07-2019 06:50:00 16.8 C 96 % 16.16 C
1524 29-07-2019 06:55:00 16.8 C 96 % 16.16 C
1525 29-07-2019 07:00:00 16.9 C 96 % 16.26 C
Sensor: Nr:Datum:Temp:Feuchte:Taupunkt:
Aussen-T/F 1526 29-07-2019 07:05:00 16.9 C 96 % 16.26 C
1527 29-07-2019 07:10:00 16.9 C 96 % 16.26 C
1528 29-07-2019 07:15:00 17 C 96 % 16.36 C
1529 29-07-2019 07:20:00 17.1 C 96 % 16.46 C
1530 29-07-2019 07:25:00 17.1 C 96 % 16.46 C
1531 29-07-2019 07:30:00 16.9 C 96 % 16.26 C
1532 29-07-2019 07:35:00 16.9 C 96 % 16.26 C
1533 29-07-2019 07:40:00 17 C 96 % 16.36 C
1534 29-07-2019 07:45:00 17 C 95 % 16.19 C
1535 29-07-2019 07:50:00 17.1 C 95 % 16.29 C
1536 29-07-2019 07:55:00 17.1 C 95 % 16.29 C
1537 29-07-2019 08:00:00 17.2 C 95 % 16.39 C
1538 29-07-2019 08:05:00 17.2 C 94 % 16.23 C
1539 29-07-2019 08:10:00 17.3 C 94 % 16.33 C
1540 29-07-2019 08:15:00 17.3 C 93 % 16.16 C
1541 29-07-2019 08:20:00 17.4 C 94 % 16.42 C
1542 29-07-2019 08:25:00 17.4 C 93 % 16.26 C
1543 29-07-2019 08:30:00 17.4 C 92 % 16.09 C
1544 29-07-2019 08:35:00 17.6 C 92 % 16.28 C
1545 29-07-2019 08:40:00 17.6 C 92 % 16.28 C
1546 29-07-2019 08:45:00 17.6 C 91 % 16.11 C
1547 29-07-2019 08:50:00 17.7 C 90 % 16.04 C
1548 29-07-2019 08:55:00 17.9 C 91 % 16.41 C
1549 29-07-2019 09:00:00 18 C 90 % 16.34 C
1550 29-07-2019 09:05:00 18.2 C 90 % 16.53 C
Sensor: Nr:Datum:Temp:Feuchte:Taupunkt:
Aussen-T/F 1551 29-07-2019 09:10:00 18.2 C 88 % 16.18 C
1552 29-07-2019 09:15:00 18.3 C 88 % 16.28 C
1553 29-07-2019 09:20:00 18.3 C 88 % 16.28 C
1554 29-07-2019 09:25:00 18.4 C 87 % 16.2 C
1555 29-07-2019 09:30:00 18.6 C 86 % 16.21 C
1556 29-07-2019 09:35:00 18.7 C 86 % 16.31 C
1557 29-07-2019 09:40:00 18.8 C 84 % 16.04 C
1558 29-07-2019 09:45:00 18.8 C 83 % 15.85 C
1559 29-07-2019 09:50:00 18.8 C 83 % 15.85 C
1560 29-07-2019 09:55:00 18.8 C 83 % 15.85 C
1561 29-07-2019 10:00:00 18.8 C 82 % 15.66 C
1562 29-07-2019 10:05:00 18.8 C 83 % 15.85 C
1563 29-07-2019 10:10:00 18.9 C 83 % 15.95 C
1564 29-07-2019 10:15:00 19.1 C 81 % 15.76 C
1565 29-07-2019 10:20:00 19.3 C 80 % 15.76 C
1566 29-07-2019 10:25:00 19.4 C 79 % 15.66 C
1567 29-07-2019 10:30:00 19.5 C 79 % 15.76 C
1568 29-07-2019 10:35:00 19.7 C 79 % 15.96 C
1569 29-07-2019 10:40:00 19.7 C 77 % 15.56 C
1570 29-07-2019 10:45:00 19.8 C 78 % 15.85 C
1571 29-07-2019 10:50:00 19.8 C 76 % 15.45 C
1572 29-07-2019 10:55:00 19.9 C 75 % 15.34 C
1573 29-07-2019 11:00:00 19.9 C 75 % 15.34 C
1574 29-07-2019 11:05:00 20 C 76 % 15.64 C
1575 29-07-2019 11:10:00 20 C 75 % 15.43 C
Sensor: Nr:Datum:Temp:Feuchte:Taupunkt:
Aussen-T/F 1576 29-07-2019 11:15:00 20.1 C 75 % 15.53 C
1577 29-07-2019 11:20:00 20.2 C 75 % 15.63 C
1578 29-07-2019 11:25:00 20.3 C 76 % 15.93 C
1579 29-07-2019 11:30:00 20.4 C 74 % 15.61 C
1580 29-07-2019 11:35:00 20.6 C 73 % 15.59 C
1581 29-07-2019 11:40:00 20.8 C 72 % 15.57 C
1582 29-07-2019 11:45:00 21 C 72 % 15.76 C
1583 29-07-2019 11:50:00 21.2 C 72 % 15.95 C
1584 29-07-2019 11:55:00 21.2 C 70 % 15.51 C
1585 29-07-2019 12:00:00 21.4 C 68 % 15.25 C
1586 29-07-2019 12:05:00 21.5 C 67 % 15.12 C
1587 29-07-2019 12:10:00 21.6 C 69 % 15.67 C
1588 29-07-2019 12:15:00 21.6 C 68 % 15.44 C
1589 29-07-2019 12:20:00 21.8 C 68 % 15.63 C
1590 29-07-2019 12:25:00 21.9 C 66 % 15.26 C
1591 29-07-2019 12:30:00 22.1 C 66 % 15.45 C
1592 29-07-2019 12:35:00 22.1 C 65 % 15.21 C
1593 29-07-2019 12:40:00 22.2 C 66 % 15.55 C
1594 29-07-2019 12:45:00 22.3 C 65 % 15.4 C
1595 29-07-2019 12:50:00 22.4 C 65 % 15.5 C
1596 29-07-2019 12:55:00 22.5 C 64 % 15.35 C
1597 29-07-2019 13:00:00 22.6 C 65 % 15.69 C
1598 29-07-2019 13:05:00 22.7 C 63 % 15.3 C
1599 29-07-2019 13:10:00 22.8 C 64 % 15.64 C
1600 29-07-2019 13:15:00 23 C 61 % 15.08 C
Sensor: Nr:Datum:Temp:Feuchte:Taupunkt:
Aussen-T/F 1601 29-07-2019 13:20:00 23.2 C 61 % 15.26 C
1602 29-07-2019 13:25:00 23.3 C 62 % 15.61 C
1603 29-07-2019 13:30:00 23.5 C 61 % 15.55 C
1604 29-07-2019 13:35:00 23.6 C 62 % 15.89 C
1605 29-07-2019 13:40:00 23.5 C 62 % 15.8 C
1606 29-07-2019 13:45:00 23.5 C 62 % 15.8 C
1607 29-07-2019 13:50:00 23.6 C 61 % 15.64 C
1608 29-07-2019 13:55:00 23.7 C 60 % 15.48 C
1609 29-07-2019 14:00:00 23.7 C 60 % 15.48 C
1610 29-07-2019 14:05:00 23.8 C 60 % 15.57 C
1611 29-07-2019 14:10:00 23.9 C 61 % 15.92 C
1612 29-07-2019 14:15:00 24.2 C 59 % 15.68 C
1613 29-07-2019 14:20:00 24.4 C 58 % 15.6 C
1614 29-07-2019 14:25:00 24.5 C 58 % 15.7 C
1615 29-07-2019 14:30:00 24.7 C 56 % 15.33 C
1616 29-07-2019 14:35:00 24.7 C 57 % 15.61 C
1617 29-07-2019 14:40:00 24.7 C 57 % 15.61 C
1618 29-07-2019 14:45:00 24.8 C 54 % 14.86 C
1619 29-07-2019 14:50:00 24.8 C 55 % 15.15 C
1620 29-07-2019 14:55:00 24.8 C 55 % 15.15 C
1621 29-07-2019 15:00:00 24.8 C 54 % 14.86 C
1622 29-07-2019 15:05:00 24.9 C 54 % 14.95 C
1623 29-07-2019 15:10:00 25.1 C 54 % 15.14 C
1624 29-07-2019 15:15:00 25.4 C 53 % 15.13 C
1625 29-07-2019 15:20:00 25.6 C 52 % 15.02 C
Sensor: Nr:Datum:Temp:Feuchte:Taupunkt:
Aussen-T/F 1626 29-07-2019 15:25:00 25.7 C 51 % 14.81 C
1627 29-07-2019 15:30:00 25.9 C 51 % 14.99 C
1628 29-07-2019 15:35:00 26.1 C 51 % 15.17 C
1629 29-07-2019 15:40:00 26.1 C 50 % 14.87 C
1630 29-07-2019 15:45:00 26.4 C 50 % 15.14 C
1631 29-07-2019 15:50:00 26.8 C 49 % 15.19 C
1632 29-07-2019 15:55:00 27.2 C 48 % 15.24 C
1633 29-07-2019 16:00:00 27.3 C 47 % 15 C
1634 29-07-2019 16:05:00 27.4 C 47 % 15.09 C
1635 29-07-2019 16:10:00 27.6 C 46 % 14.94 C
1636 29-07-2019 16:15:00 27.3 C 47 % 15 C
1637 29-07-2019 16:20:00 27.2 C 47 % 14.91 C
1638 29-07-2019 16:25:00 27.2 C 46 % 14.58 C
1639 29-07-2019 16:30:00 27.3 C 47 % 15 C
1640 29-07-2019 16:35:00 27.7 C 45 % 14.69 C
1641 29-07-2019 16:40:00 27.9 C 45 % 14.87 C
1642 29-07-2019 16:45:00 28.2 C 44 % 14.79 C
1643 29-07-2019 16:50:00 28.2 C 44 % 14.79 C
1644 29-07-2019 16:55:00 27.9 C 44 % 14.52 C
1645 29-07-2019 17:00:00 27.9 C 45 % 14.87 C
1646 29-07-2019 17:05:00 28 C 45 % 14.96 C
1647 29-07-2019 17:10:00 28.3 C 44 % 14.88 C
1648 29-07-2019 17:15:00 28.4 C 43 % 14.62 C
1649 29-07-2019 17:20:00 28.3 C 42 % 14.16 C
1650 29-07-2019 17:25:00 28.4 C 43 % 14.62 C
Sensor: Nr:Datum:Temp:Feuchte:Taupunkt:
Aussen-T/F 1651 29-07-2019 17:30:00 28.4 C 42 % 14.25 C
1652 29-07-2019 17:35:00 28.4 C 43 % 14.62 C
1653 29-07-2019 17:40:00 28.6 C 43 % 14.8 C
1654 29-07-2019 17:45:00 28.3 C 43 % 14.53 C
1655 29-07-2019 17:50:00 28.1 C 43 % 14.35 C
1656 29-07-2019 17:55:00 27.7 C 43 % 13.99 C
1657 29-07-2019 18:00:00 27.4 C 44 % 14.07 C
1658 29-07-2019 18:05:00 27.2 C 44 % 13.89 C
1659 29-07-2019 18:10:00 27.1 C 45 % 14.15 C
1660 29-07-2019 18:15:00 27.3 C 45 % 14.33 C
1661 29-07-2019 18:20:00 27.4 C 44 % 14.07 C
1662 29-07-2019 18:25:00 27.4 C 44 % 14.07 C
1663 29-07-2019 18:30:00 27.4 C 44 % 14.07 C
1664 29-07-2019 18:35:00 27.7 C 44 % 14.34 C
1665 29-07-2019 18:40:00 28 C 43 % 14.26 C
1666 29-07-2019 18:45:00 28.3 C 42 % 14.16 C
1667 29-07-2019 18:50:00 28.6 C 42 % 14.43 C
1668 29-07-2019 18:55:00 28.7 C 41 % 14.15 C
1669 29-07-2019 19:00:00 28.8 C 41 % 14.24 C
1670 29-07-2019 19:05:00 28.9 C 42 % 14.7 C
1671 29-07-2019 19:10:00 28.9 C 41 % 14.33 C
1672 29-07-2019 19:15:00 28.8 C 41 % 14.24 C
1673 29-07-2019 19:20:00 28.6 C 42 % 14.43 C
1674 29-07-2019 19:25:00 28.1 C 43 % 14.35 C
1675 29-07-2019 19:30:00 27.9 C 44 % 14.52 C
Sensor: Nr:Datum:Temp:Feuchte:Taupunkt:
Aussen-T/F 1676 29-07-2019 19:35:00 27.7 C 44 % 14.34 C
1677 29-07-2019 19:40:00 27.6 C 45 % 14.6 C
1678 29-07-2019 19:45:00 27.4 C 46 % 14.76 C
1679 29-07-2019 19:50:00 27.3 C 45 % 14.33 C
1680 29-07-2019 19:55:00 27.2 C 46 % 14.58 C
1681 29-07-2019 20:00:00 27.1 C 46 % 14.49 C
1682 29-07-2019 20:05:00 27 C 47 % 14.73 C
1683 29-07-2019 20:10:00 26.8 C 47 % 14.55 C
1684 29-07-2019 20:15:00 26.6 C 48 % 14.69 C
1685 29-07-2019 20:20:00 26.4 C 49 % 14.83 C
1686 29-07-2019 20:25:00 26.3 C 49 % 14.74 C
1687 29-07-2019 20:30:00 26.3 C 50 % 15.05 C
1688 29-07-2019 20:35:00 26.2 C 50 % 14.96 C
1689 29-07-2019 20:40:00 26 C 50 % 14.77 C
1690 29-07-2019 20:45:00 25.9 C 51 % 14.99 C
1691 29-07-2019 20:50:00 25.8 C 51 % 14.9 C
1692 29-07-2019 20:55:00 25.6 C 52 % 15.02 C
1693 29-07-2019 21:00:00 25.3 C 55 % 15.61 C
1694 29-07-2019 21:05:00 24.9 C 56 % 15.52 C
1695 29-07-2019 21:10:00 24.5 C 59 % 15.96 C
1696 29-07-2019 21:15:00 24 C 59 % 15.5 C
1697 29-07-2019 21:20:00 23.5 C 60 % 15.29 C
1698 29-07-2019 21:25:00 23 C 61 % 15.08 C
1699 29-07-2019 21:30:00 22.6 C 63 % 15.2 C
1700 29-07-2019 21:35:00 22.2 C 64 % 15.07 C
Sensor: Nr:Datum:Temp:Feuchte:Taupunkt:
Aussen-T/F 1701 29-07-2019 21:40:00 21.9 C 65 % 15.02 C
1702 29-07-2019 21:45:00 21.8 C 66 % 15.17 C
1703 29-07-2019 21:50:00 21.6 C 66 % 14.98 C
1704 29-07-2019 21:55:00 21.4 C 66 % 14.79 C
1705 29-07-2019 22:00:00 21.3 C 67 % 14.93 C
1706 29-07-2019 22:05:00 21.2 C 68 % 15.06 C
1707 29-07-2019 22:10:00 21.1 C 68 % 14.97 C
1708 29-07-2019 22:15:00 21 C 68 % 14.87 C
1709 29-07-2019 22:20:00 20.9 C 68 % 14.77 C
1710 29-07-2019 22:25:00 20.8 C 69 % 14.91 C
1711 29-07-2019 22:30:00 20.8 C 70 % 15.13 C
1712 29-07-2019 22:35:00 20.7 C 71 % 15.25 C
1713 29-07-2019 22:40:00 20.6 C 71 % 15.16 C
1714 29-07-2019 22:45:00 20.4 C 71 % 14.97 C
1715 29-07-2019 22:50:00 20.2 C 72 % 14.99 C
1716 29-07-2019 22:55:00 20.1 C 73 % 15.11 C
1717 29-07-2019 23:00:00 20 C 73 % 15.01 C
1718 29-07-2019 23:05:00 19.9 C 73 % 14.92 C
1719 29-07-2019 23:10:00 19.8 C 74 % 15.03 C
1720 29-07-2019 23:15:00 19.7 C 75 % 15.15 C
1721 29-07-2019 23:20:00 19.6 C 75 % 15.05 C
1722 29-07-2019 23:25:00 19.4 C 75 % 14.86 C
1723 29-07-2019 23:30:00 19.3 C 76 % 14.97 C
1724 29-07-2019 23:35:00 19.1 C 76 % 14.77 C
1725 29-07-2019 23:40:00 19 C 77 % 14.88 C
Sensor: Nr:Datum:Temp:Feuchte:Taupunkt:
Aussen-T/F 1726 29-07-2019 23:45:00 18.8 C 77 % 14.68 C
1727 29-07-2019 23:50:00 18.8 C 78 % 14.88 C
1728 29-07-2019 23:55:00 18.7 C 78 % 14.79 C
1729 30-07-2019 00:00:00 18.5 C 79 % 14.79 C
1730 30-07-2019 00:05:00 18.3 C 79 % 14.6 C
1731 30-07-2019 00:10:00 18.2 C 80 % 14.69 C
1732 30-07-2019 00:15:00 18.1 C 80 % 14.6 C
1733 30-07-2019 00:20:00 18 C 81 % 14.69 C
1734 30-07-2019 00:25:00 17.9 C 81 % 14.59 C
1735 30-07-2019 00:30:00 17.8 C 81 % 14.5 C
1736 30-07-2019 00:35:00 17.8 C 82 % 14.69 C
1737 30-07-2019 00:40:00 17.7 C 82 % 14.59 C
1738 30-07-2019 00:45:00 17.7 C 82 % 14.59 C
1739 30-07-2019 00:50:00 17.7 C 83 % 14.78 C
1740 30-07-2019 00:55:00 17.7 C 83 % 14.78 C
1741 30-07-2019 01:00:00 17.7 C 83 % 14.78 C
1742 30-07-2019 01:05:00 17.7 C 84 % 14.96 C
1743 30-07-2019 01:10:00 17.7 C 83 % 14.78 C
1744 30-07-2019 01:15:00 17.7 C 83 % 14.78 C
1745 30-07-2019 01:20:00 17.6 C 83 % 14.68 C
1746 30-07-2019 01:25:00 17.5 C 83 % 14.58 C
1747 30-07-2019 01:30:00 17.4 C 83 % 14.48 C
1748 30-07-2019 01:35:00 17.3 C 84 % 14.57 C
1749 30-07-2019 01:40:00 17.2 C 84 % 14.47 C
1750 30-07-2019 01:45:00 17.2 C 84 % 14.47 C
Sensor: Nr:Datum:Temp:Feuchte:Taupunkt:
Aussen-T/F 1751 30-07-2019 01:50:00 17.1 C 84 % 14.38 C
1752 30-07-2019 01:55:00 17 C 84 % 14.28 C
1753 30-07-2019 02:00:00 16.9 C 84 % 14.18 C
1754 30-07-2019 02:05:00 16.9 C 85 % 14.36 C
1755 30-07-2019 02:10:00 16.8 C 85 % 14.26 C
1756 30-07-2019 02:15:00 16.8 C 85 % 14.26 C
1757 30-07-2019 02:20:00 16.7 C 85 % 14.17 C
1758 30-07-2019 02:25:00 16.6 C 85 % 14.07 C
1759 30-07-2019 02:30:00 16.6 C 86 % 14.25 C
1760 30-07-2019 02:35:00 16.5 C 86 % 14.15 C
1761 30-07-2019 02:40:00 16.4 C 86 % 14.05 C
1762 30-07-2019 02:45:00 16.4 C 86 % 14.05 C
1763 30-07-2019 02:50:00 16.3 C 86 % 13.95 C
1764 30-07-2019 02:55:00 16.3 C 87 % 14.13 C
1765 30-07-2019 03:00:00 16.2 C 87 % 14.03 C
1766 30-07-2019 03:05:00 16.1 C 87 % 13.94 C
1767 30-07-2019 03:10:00 16 C 87 % 13.84 C
1768 30-07-2019 03:15:00 15.9 C 88 % 13.92 C
1769 30-07-2019 03:20:00 15.9 C 88 % 13.92 C
1770 30-07-2019 03:25:00 15.9 C 88 % 13.92 C
1771 30-07-2019 03:30:00 15.9 C 88 % 13.92 C
1772 30-07-2019 03:35:00 15.8 C 89 % 13.99 C
1773 30-07-2019 03:40:00 15.8 C 89 % 13.99 C
1774 30-07-2019 03:45:00 15.7 C 89 % 13.89 C
1775 30-07-2019 03:50:00 15.7 C 89 % 13.89 C
Sensor: Nr:Datum:Temp:Feuchte:Taupunkt:
Aussen-T/F 1776 30-07-2019 03:55:00 15.6 C 89 % 13.79 C
1777 30-07-2019 04:00:00 15.6 C 89 % 13.79 C
1778 30-07-2019 04:05:00 15.6 C 89 % 13.79 C
1779 30-07-2019 04:10:00 15.5 C 90 % 13.87 C
1780 30-07-2019 04:15:00 15.5 C 90 % 13.87 C
1781 30-07-2019 04:20:00 15.4 C 90 % 13.77 C
1782 30-07-2019 04:25:00 15.4 C 90 % 13.77 C
1783 30-07-2019 04:30:00 15.4 C 90 % 13.77 C
1784 30-07-2019 04:35:00 15.3 C 90 % 13.67 C
1785 30-07-2019 04:40:00 15.3 C 90 % 13.67 C
1786 30-07-2019 04:45:00 15.3 C 91 % 13.84 C
1787 30-07-2019 04:50:00 15.3 C 91 % 13.84 C
1788 30-07-2019 04:55:00 15.2 C 91 % 13.74 C
1789 30-07-2019 05:00:00 15.2 C 91 % 13.74 C
1790 30-07-2019 05:05:00 15.1 C 91 % 13.64 C
1791 30-07-2019 05:10:00 15.1 C 91 % 13.64 C
1792 30-07-2019 05:15:00 15.1 C 91 % 13.64 C
1793 30-07-2019 05:20:00 15.1 C 91 % 13.64 C
1794 30-07-2019 05:25:00 15.1 C 91 % 13.64 C
1795 30-07-2019 05:30:00 15.1 C 92 % 13.81 C
1796 30-07-2019 05:35:00 15 C 92 % 13.71 C
1797 30-07-2019 05:40:00 15 C 92 % 13.71 C
1798 30-07-2019 05:45:00 14.9 C 92 % 13.61 C
1799 30-07-2019 05:50:00 14.9 C 92 % 13.61 C
1800 30-07-2019 05:55:00 14.8 C 92 % 13.51 C
Sensor: Nr:Datum:Temp:Feuchte:Taupunkt:
Aussen-T/F 1801 30-07-2019 06:00:00 14.8 C 92 % 13.51 C
1802 30-07-2019 06:05:00 14.8 C 92 % 13.51 C
1803 30-07-2019 06:10:00 14.7 C 93 % 13.58 C
1804 30-07-2019 06:15:00 14.7 C 93 % 13.58 C
1805 30-07-2019 06:20:00 14.7 C 93 % 13.58 C
1806 30-07-2019 06:25:00 14.7 C 93 % 13.58 C
1807 30-07-2019 06:30:00 14.7 C 93 % 13.58 C
1808 30-07-2019 06:35:00 14.7 C 93 % 13.58 C
1809 30-07-2019 06:40:00 14.8 C 93 % 13.68 C
1810 30-07-2019 06:45:00 14.7 C 93 % 13.58 C
1811 30-07-2019 06:50:00 14.7 C 93 % 13.58 C
1812 30-07-2019 06:55:00 14.7 C 93 % 13.58 C
1813 30-07-2019 07:00:00 14.7 C 93 % 13.58 C
1814 30-07-2019 07:05:00 14.7 C 93 % 13.58 C
1815 30-07-2019 07:10:00 14.8 C 94 % 13.84 C
1816 30-07-2019 07:15:00 14.8 C 94 % 13.84 C
1817 30-07-2019 07:20:00 14.8 C 94 % 13.84 C
1818 30-07-2019 07:25:00 14.9 C 94 % 13.94 C
1819 30-07-2019 07:30:00 15 C 94 % 14.04 C
1820 30-07-2019 07:35:00 15 C 94 % 14.04 C
1821 30-07-2019 07:40:00 15.1 C 94 % 14.14 C
1822 30-07-2019 07:45:00 15.1 C 94 % 14.14 C
1823 30-07-2019 07:50:00 15.1 C 94 % 14.14 C
1824 30-07-2019 07:55:00 15.2 C 94 % 14.24 C
1825 30-07-2019 08:00:00 15.3 C 94 % 14.34 C
Sensor: Nr:Datum:Temp:Feuchte:Taupunkt:
Aussen-T/F 1826 30-07-2019 08:05:00 15.6 C 94 % 14.64 C
1827 30-07-2019 08:10:00 15.7 C 94 % 14.74 C
1828 30-07-2019 08:15:00 15.7 C 94 % 14.74 C
1829 30-07-2019 08:20:00 15.7 C 94 % 14.74 C
1830 30-07-2019 08:25:00 15.8 C 94 % 14.84 C
1831 30-07-2019 08:30:00 15.9 C 94 % 14.94 C
1832 30-07-2019 08:35:00 15.9 C 94 % 14.94 C
1833 30-07-2019 08:40:00 16.1 C 94 % 15.13 C
1834 30-07-2019 08:45:00 16.2 C 94 % 15.23 C
1835 30-07-2019 08:50:00 16.3 C 94 % 15.33 C
1836 30-07-2019 08:55:00 16.4 C 93 % 15.27 C
1837 30-07-2019 09:00:00 16.6 C 93 % 15.46 C
1838 30-07-2019 09:05:00 16.7 C 93 % 15.56 C
1839 30-07-2019 09:10:00 16.8 C 93 % 15.66 C
1840 30-07-2019 09:15:00 16.9 C 93 % 15.76 C
1841 30-07-2019 09:20:00 17.1 C 93 % 15.96 C
1842 30-07-2019 09:25:00 17.2 C 92 % 15.89 C
1843 30-07-2019 09:30:00 17.4 C 92 % 16.09 C
1844 30-07-2019 09:35:00 17.7 C 92 % 16.38 C
1845 30-07-2019 09:40:00 17.8 C 91 % 16.31 C
1846 30-07-2019 09:45:00 18 C 91 % 16.51 C
1847 30-07-2019 09:50:00 18.2 C 90 % 16.53 C
1848 30-07-2019 09:55:00 18.4 C 89 % 16.55 C
1849 30-07-2019 10:00:00 18.6 C 89 % 16.75 C
1850 30-07-2019 10:05:00 18.8 C 88 % 16.77 C
Sensor: Nr:Datum:Temp:Feuchte:Taupunkt:
Aussen-T/F 1851 30-07-2019 10:10:00 19.2 C 87 % 16.98 C
1852 30-07-2019 10:15:00 19.4 C 86 % 17 C
1853 30-07-2019 10:20:00 19.7 C 84 % 16.92 C
1854 30-07-2019 10:25:00 20.1 C 83 % 17.12 C
1855 30-07-2019 10:30:00 20.3 C 82 % 17.13 C
1856 30-07-2019 10:35:00 20.7 C 81 % 17.32 C
1857 30-07-2019 10:40:00 21.1 C 79 % 17.32 C
1858 30-07-2019 10:45:00 21.4 C 79 % 17.61 C
1859 30-07-2019 10:50:00 21.8 C 75 % 17.17 C
1860 30-07-2019 10:55:00 22.2 C 74 % 17.34 C
1861 30-07-2019 11:00:00 22.6 C 72 % 17.3 C
1862 30-07-2019 11:05:00 22.9 C 70 % 17.14 C
1863 30-07-2019 11:10:00 23.4 C 63 % 15.96 C
1864 30-07-2019 11:15:00 24.3 C 61 % 16.3 C
1865 30-07-2019 11:20:00 24.7 C 58 % 15.88 C
1866 30-07-2019 11:25:00 25.3 C 55 % 15.61 C
1867 30-07-2019 11:30:00 25.7 C 54 % 15.7 C
1868 30-07-2019 11:35:00 26.1 C 53 % 15.77 C
1869 30-07-2019 11:40:00 26.2 C 53 % 15.87 C
1870 30-07-2019 11:45:00 26.1 C 52 % 15.48 C
1871 30-07-2019 11:50:00 26.1 C 52 % 15.48 C
1872 30-07-2019 11:55:00 26.2 C 52 % 15.57 C
1873 30-07-2019 12:00:00 26.3 C 51 % 15.36 C
1874 30-07-2019 12:05:00 26.5 C 49 % 14.92 C
1875 30-07-2019 12:10:00 26.6 C 49 % 15.01 C
Sensor: Nr:Datum:Temp:Feuchte:Taupunkt:
Aussen-T/F 1876 30-07-2019 12:15:00 26.8 C 46 % 14.21 C
1877 30-07-2019 12:20:00 26.9 C 48 % 14.96 C
1878 30-07-2019 12:25:00 27.1 C 45 % 14.15 C
1879 30-07-2019 12:30:00 27.2 C 44 % 13.89 C
1880 30-07-2019 12:35:00 27.2 C 43 % 13.54 C
1881 30-07-2019 12:40:00 27.2 C 44 % 13.89 C
1882 30-07-2019 12:45:00 27.3 C 42 % 13.27 C
1883 30-07-2019 12:50:00 27.5 C 44 % 14.16 C
1884 30-07-2019 12:55:00 27.7 C 41 % 13.25 C
1885 30-07-2019 13:00:00 27.7 C 43 % 13.99 C
1886 30-07-2019 13:05:00 27.7 C 41 % 13.25 C
1887 30-07-2019 13:10:00 27.9 C 42 % 13.8 C
1888 30-07-2019 13:15:00 28.1 C 40 % 13.23 C
1889 30-07-2019 13:20:00 28.1 C 39 % 12.85 C
1890 30-07-2019 13:25:00 28.1 C 39 % 12.85 C
1891 30-07-2019 13:30:00 28.3 C 39 % 13.02 C
1892 30-07-2019 13:35:00 28.4 C 39 % 13.11 C
1893 30-07-2019 13:40:00 28.5 C 39 % 13.2 C
1894 30-07-2019 13:45:00 28.6 C 39 % 13.29 C
1895 30-07-2019 13:50:00 28.7 C 36 % 12.16 C
1896 30-07-2019 13:55:00 28.8 C 35 % 11.82 C
1897 30-07-2019 14:00:00 28.8 C 36 % 12.25 C
1898 30-07-2019 14:05:00 28.9 C 36 % 12.33 C
1899 30-07-2019 14:10:00 29.1 C 37 % 12.93 C
1900 30-07-2019 14:15:00 29.2 C 39 % 13.82 C
Sensor: Nr:Datum:Temp:Feuchte:Taupunkt:
Aussen-T/F 1901 30-07-2019 14:20:00 29.3 C 37 % 13.1 C
1902 30-07-2019 14:25:00 29.3 C 39 % 13.91 C
1903 30-07-2019 14:30:00 29.6 C 39 % 14.18 C
1904 30-07-2019 14:35:00 29.8 C 37 % 13.54 C
1905 30-07-2019 14:40:00 29.9 C 39 % 14.44 C
1906 30-07-2019 14:45:00 29.9 C 37 % 13.63 C
1907 30-07-2019 14:50:00 30 C 39 % 14.53 C
1908 30-07-2019 14:55:00 30.1 C 37 % 13.81 C
1909 30-07-2019 15:00:00 30.1 C 38 % 14.22 C
1910 30-07-2019 15:05:00 30.3 C 38 % 14.4 C
1911 30-07-2019 15:10:00 30.4 C 36 % 13.65 C
1912 30-07-2019 15:15:00 30.4 C 37 % 14.07 C
1913 30-07-2019 15:20:00 30.5 C 36 % 13.74 C
1914 30-07-2019 15:25:00 30.5 C 37 % 14.16 C
1915 30-07-2019 15:30:00 30.8 C 36 % 14 C
1916 30-07-2019 15:35:00 31 C 35 % 13.75 C
1917 30-07-2019 15:40:00 31.3 C 34 % 13.56 C
1918 30-07-2019 15:45:00 30.9 C 35 % 13.66 C
1919 30-07-2019 15:50:00 31 C 36 % 14.18 C
1920 30-07-2019 15:55:00 31.1 C 35 % 13.83 C
1921 30-07-2019 16:00:00 31.2 C 33 % 13.02 C
1922 30-07-2019 16:05:00 31.3 C 34 % 13.56 C
1923 30-07-2019 16:10:00 31.6 C 33 % 13.36 C
1924 30-07-2019 16:15:00 32 C 32 % 13.24 C
1925 30-07-2019 16:20:00 31.9 C 31 % 12.67 C
Sensor: Nr:Datum:Temp:Feuchte:Taupunkt:
Aussen-T/F 1926 30-07-2019 16:25:00 31.3 C 34 % 13.56 C
1927 30-07-2019 16:30:00 31.3 C 35 % 14.01 C
1928 30-07-2019 16:35:00 31.6 C 35 % 14.27 C
1929 30-07-2019 16:40:00 31.1 C 35 % 13.83 C
1930 30-07-2019 16:45:00 30.7 C 36 % 13.92 C
1931 30-07-2019 16:50:00 30.4 C 36 % 13.65 C
1932 30-07-2019 16:55:00 30.1 C 37 % 13.81 C
1933 30-07-2019 17:00:00 29.8 C 38 % 13.95 C
1934 30-07-2019 17:05:00 29.9 C 38 % 14.04 C
1935 30-07-2019 17:10:00 30.5 C 37 % 14.16 C
1936 30-07-2019 17:15:00 30.6 C 37 % 14.25 C
1937 30-07-2019 17:20:00 30.3 C 37 % 13.99 C
1938 30-07-2019 17:25:00 29.7 C 38 % 13.87 C
1939 30-07-2019 17:30:00 29.1 C 39 % 13.73 C
1940 30-07-2019 17:35:00 28.8 C 39 % 13.47 C
1941 30-07-2019 17:40:00 28.6 C 40 % 13.68 C
1942 30-07-2019 17:45:00 28.4 C 38 % 12.72 C
1943 30-07-2019 17:50:00 28.2 C 36 % 11.72 C
1944 30-07-2019 17:55:00 27.8 C 37 % 11.78 C
1945 30-07-2019 18:00:00 27.4 C 37 % 11.43 C
1946 30-07-2019 18:05:00 27.2 C 38 % 11.65 C
1947 30-07-2019 18:10:00 27.1 C 39 % 11.96 C
1948 30-07-2019 18:15:00 26.9 C 39 % 11.78 C
1949 30-07-2019 18:20:00 26.8 C 40 % 12.07 C
1950 30-07-2019 18:25:00 26.7 C 40 % 11.99 C
Sensor: Nr:Datum:Temp:Feuchte:Taupunkt:
Aussen-T/F 1951 30-07-2019 18:30:00 26.6 C 41 % 12.27 C
1952 30-07-2019 18:35:00 26.4 C 42 % 12.46 C
1953 30-07-2019 18:40:00 26.3 C 42 % 12.37 C
1954 30-07-2019 18:45:00 26.2 C 43 % 12.64 C
1955 30-07-2019 18:50:00 26 C 44 % 12.81 C
1956 30-07-2019 18:55:00 25.9 C 44 % 12.72 C
1957 30-07-2019 19:00:00 25.8 C 45 % 12.97 C
1958 30-07-2019 19:05:00 25.7 C 45 % 12.88 C
1959 30-07-2019 19:10:00 25.6 C 45 % 12.79 C
1960 30-07-2019 19:15:00 25.6 C 45 % 12.79 C
1961 30-07-2019 19:20:00 25.5 C 46 % 13.03 C
1962 30-07-2019 19:25:00 24.9 C 53 % 14.66 C
1963 30-07-2019 19:30:00 23.8 C 56 % 14.5 C
1964 30-07-2019 19:35:00 23.4 C 56 % 14.13 C
1965 30-07-2019 19:40:00 23.4 C 55 % 13.85 C
1966 30-07-2019 19:45:00 23.6 C 56 % 14.31 C
1967 30-07-2019 19:50:00 23.7 C 56 % 14.4 C
1968 30-07-2019 19:55:00 23.7 C 55 % 14.13 C
1969 30-07-2019 20:00:00 23.7 C 56 % 14.4 C
1970 30-07-2019 20:05:00 23.8 C 56 % 14.5 C
1971 30-07-2019 20:10:00 23.9 C 55 % 14.31 C
1972 30-07-2019 20:15:00 23.9 C 55 % 14.31 C
1973 30-07-2019 20:20:00 24 C 55 % 14.41 C
1974 30-07-2019 20:25:00 24 C 55 % 14.41 C
1975 30-07-2019 20:30:00 24.1 C 55 % 14.5 C
Sensor: Nr:Datum:Temp:Feuchte:Taupunkt:
Aussen-T/F 1976 30-07-2019 20:35:00 24.2 C 55 % 14.59 C
1977 30-07-2019 20:40:00 24.3 C 55 % 14.68 C
1978 30-07-2019 20:45:00 24.4 C 55 % 14.78 C
1979 30-07-2019 20:50:00 24.4 C 55 % 14.78 C
1980 30-07-2019 20:55:00 24.4 C 55 % 14.78 C
1981 30-07-2019 21:00:00 24.3 C 55 % 14.68 C
1982 30-07-2019 21:05:00 24.3 C 54 % 14.4 C
1983 30-07-2019 21:10:00 24.2 C 54 % 14.31 C
1984 30-07-2019 21:15:00 24.1 C 55 % 14.5 C
1985 30-07-2019 21:20:00 23.9 C 56 % 14.59 C
1986 30-07-2019 21:25:00 23.8 C 57 % 14.77 C
1987 30-07-2019 21:30:00 23.6 C 57 % 14.59 C
1988 30-07-2019 21:35:00 23.4 C 58 % 14.67 C
1989 30-07-2019 21:40:00 23.3 C 58 % 14.58 C
1990 30-07-2019 21:45:00 23.2 C 59 % 14.75 C
1991 30-07-2019 21:50:00 23.1 C 59 % 14.65 C
1992 30-07-2019 21:55:00 22.9 C 59 % 14.47 C
1993 30-07-2019 22:00:00 22.7 C 60 % 14.54 C
1994 30-07-2019 22:05:00 22.6 C 60 % 14.44 C
1995 30-07-2019 22:10:00 22.5 C 61 % 14.61 C
1996 30-07-2019 22:15:00 22.4 C 62 % 14.76 C
1997 30-07-2019 22:20:00 22.3 C 62 % 14.67 C
1998 30-07-2019 22:25:00 22.2 C 63 % 14.82 C
1999 30-07-2019 22:30:00 22.1 C 63 % 14.73 C
2000 30-07-2019 22:35:00 22.1 C 63 % 14.73 C
Sensor: Nr:Datum:Temp:Feuchte:Taupunkt:
Aussen-T/F 2001 30-07-2019 22:40:00 22 C 63 % 14.63 C
2002 30-07-2019 22:45:00 21.9 C 64 % 14.78 C
2003 30-07-2019 22:50:00 21.9 C 66 % 15.26 C
2004 30-07-2019 22:55:00 21.8 C 66 % 15.17 C
2005 30-07-2019 23:00:00 21.7 C 66 % 15.07 C
2006 30-07-2019 23:05:00 21.6 C 66 % 14.98 C
2007 30-07-2019 23:10:00 21.5 C 67 % 15.12 C
2008 30-07-2019 23:15:00 21.4 C 67 % 15.02 C
2009 30-07-2019 23:20:00 21.3 C 68 % 15.16 C
2010 30-07-2019 23:25:00 21.2 C 69 % 15.29 C
2011 30-07-2019 23:30:00 21.1 C 69 % 15.19 C
2012 30-07-2019 23:35:00 21 C 69 % 15.1 C
2013 30-07-2019 23:40:00 20.9 C 68 % 14.77 C
2014 30-07-2019 23:45:00 20.8 C 69 % 14.91 C
2015 30-07-2019 23:50:00 20.8 C 69 % 14.91 C
2016 30-07-2019 23:55:00 20.8 C 69 % 14.91 C
2017 31-07-2019 00:00:00 20.7 C 69 % 14.81 C
2018 31-07-2019 00:05:00 20.7 C 69 % 14.81 C
2019 31-07-2019 00:10:00 20.7 C 69 % 14.81 C
2020 31-07-2019 00:15:00 20.6 C 69 % 14.71 C
2021 31-07-2019 00:20:00 20.6 C 70 % 14.94 C
2022 31-07-2019 00:25:00 20.6 C 70 % 14.94 C
2023 31-07-2019 00:30:00 20.6 C 69 % 14.71 C
2024 31-07-2019 00:35:00 20.5 C 70 % 14.84 C
2025 31-07-2019 00:40:00 20.4 C 70 % 14.75 C
Sensor: Nr:Datum:Temp:Feuchte:Taupunkt:
Aussen-T/F 2026 31-07-2019 00:45:00 20.4 C 71 % 14.97 C
2027 31-07-2019 00:50:00 20.4 C 71 % 14.97 C
2028 31-07-2019 00:55:00 20.4 C 71 % 14.97 C
2029 31-07-2019 01:00:00 20.3 C 71 % 14.87 C
2030 31-07-2019 01:05:00 20.3 C 71 % 14.87 C
2031 31-07-2019 01:10:00 20.3 C 71 % 14.87 C
2032 31-07-2019 01:15:00 20.3 C 71 % 14.87 C
2033 31-07-2019 01:20:00 20.3 C 71 % 14.87 C
2034 31-07-2019 01:25:00 20.3 C 71 % 14.87 C
2035 31-07-2019 01:30:00 20.3 C 71 % 14.87 C
2036 31-07-2019 01:35:00 20.3 C 71 % 14.87 C
2037 31-07-2019 01:40:00 20.4 C 71 % 14.97 C
2038 31-07-2019 01:45:00 20.4 C 71 % 14.97 C
2039 31-07-2019 01:50:00 20.4 C 71 % 14.97 C
2040 31-07-2019 01:55:00 20.3 C 71 % 14.87 C
2041 31-07-2019 02:00:00 20.2 C 71 % 14.78 C
2042 31-07-2019 02:05:00 20.1 C 71 % 14.68 C
2043 31-07-2019 02:10:00 19.9 C 71 % 14.49 C
2044 31-07-2019 02:15:00 19.8 C 71 % 14.39 C
2045 31-07-2019 02:20:00 19.8 C 72 % 14.61 C
2046 31-07-2019 02:25:00 19.7 C 72 % 14.51 C
2047 31-07-2019 02:30:00 19.7 C 72 % 14.51 C
2048 31-07-2019 02:35:00 19.6 C 72 % 14.42 C
2049 31-07-2019 02:40:00 19.6 C 72 % 14.42 C
2050 31-07-2019 02:45:00 19.4 C 72 % 14.22 C
Sensor: Nr:Datum:Temp:Feuchte:Taupunkt:
Aussen-T/F 2051 31-07-2019 02:50:00 19.4 C 72 % 14.22 C
2052 31-07-2019 02:55:00 19.3 C 72 % 14.13 C
2053 31-07-2019 03:00:00 19.2 C 72 % 14.03 C
2054 31-07-2019 03:05:00 19.1 C 73 % 14.15 C
2055 31-07-2019 03:10:00 18.9 C 73 % 13.96 C
2056 31-07-2019 03:15:00 18.8 C 74 % 14.07 C
2057 31-07-2019 03:20:00 18.7 C 74 % 13.97 C
2058 31-07-2019 03:25:00 18.6 C 75 % 14.08 C
2059 31-07-2019 03:30:00 18.6 C 76 % 14.29 C
2060 31-07-2019 03:35:00 18.4 C 76 % 14.1 C
2061 31-07-2019 03:40:00 18.4 C 76 % 14.1 C
2062 31-07-2019 03:45:00 18.3 C 77 % 14.2 C
2063 31-07-2019 03:50:00 18.3 C 77 % 14.2 C
2064 31-07-2019 03:55:00 18.3 C 78 % 14.4 C
2065 31-07-2019 04:00:00 18.3 C 78 % 14.4 C
2066 31-07-2019 04:05:00 18.3 C 79 % 14.6 C
2067 31-07-2019 04:10:00 18.3 C 78 % 14.4 C
2068 31-07-2019 04:15:00 18.4 C 78 % 14.5 C
2069 31-07-2019 04:20:00 18.6 C 77 % 14.49 C
2070 31-07-2019 04:25:00 18.7 C 77 % 14.59 C
2071 31-07-2019 04:30:00 18.7 C 76 % 14.39 C
2072 31-07-2019 04:35:00 18.7 C 76 % 14.39 C
2073 31-07-2019 04:40:00 18.8 C 76 % 14.48 C
2074 31-07-2019 04:45:00 18.8 C 77 % 14.68 C
2075 31-07-2019 04:50:00 18.7 C 76 % 14.39 C
Sensor: Nr:Datum:Temp:Feuchte:Taupunkt:
Aussen-T/F 2076 31-07-2019 04:55:00 18.6 C 76 % 14.29 C
2077 31-07-2019 05:00:00 18.4 C 76 % 14.1 C
2078 31-07-2019 05:05:00 18.3 C 76 % 14 C
2079 31-07-2019 05:10:00 18.1 C 76 % 13.81 C
2080 31-07-2019 05:15:00 17.9 C 77 % 13.81 C
2081 31-07-2019 05:20:00 17.8 C 78 % 13.91 C
2082 31-07-2019 05:25:00 17.7 C 78 % 13.82 C
2083 31-07-2019 05:30:00 17.7 C 79 % 14.01 C
2084 31-07-2019 05:35:00 17.6 C 79 % 13.92 C
2085 31-07-2019 05:40:00 17.6 C 79 % 13.92 C
2086 31-07-2019 05:45:00 17.6 C 79 % 13.92 C
2087 31-07-2019 05:50:00 17.6 C 80 % 14.11 C
2088 31-07-2019 05:55:00 17.7 C 79 % 14.01 C
2089 31-07-2019 06:00:00 17.7 C 79 % 14.01 C
2090 31-07-2019 06:05:00 17.7 C 79 % 14.01 C
2091 31-07-2019 06:10:00 17.7 C 79 % 14.01 C
2092 31-07-2019 06:15:00 17.8 C 78 % 13.91 C
2093 31-07-2019 06:20:00 17.8 C 78 % 13.91 C
2094 31-07-2019 06:25:00 17.7 C 78 % 13.82 C
2095 31-07-2019 06:30:00 17.7 C 78 % 13.82 C
2096 31-07-2019 06:35:00 17.7 C 78 % 13.82 C
2097 31-07-2019 06:40:00 17.6 C 78 % 13.72 C
2098 31-07-2019 06:45:00 17.5 C 78 % 13.62 C
2099 31-07-2019 06:50:00 17.4 C 79 % 13.72 C
2100 31-07-2019 06:55:00 17.4 C 79 % 13.72 C
Sensor: Nr:Datum:Temp:Feuchte:Taupunkt:
Aussen-T/F 2101 31-07-2019 07:00:00 17.3 C 79 % 13.63 C
2102 31-07-2019 07:05:00 17.3 C 80 % 13.82 C
2103 31-07-2019 07:10:00 17.3 C 80 % 13.82 C
2104 31-07-2019 07:15:00 17.3 C 80 % 13.82 C
2105 31-07-2019 07:20:00 17.3 C 80 % 13.82 C
2106 31-07-2019 07:25:00 17.3 C 80 % 13.82 C
2107 31-07-2019 07:30:00 17.3 C 80 % 13.82 C
2108 31-07-2019 07:35:00 17.4 C 80 % 13.92 C
2109 31-07-2019 07:40:00 17.4 C 80 % 13.92 C
2110 31-07-2019 07:45:00 17.4 C 80 % 13.92 C
2111 31-07-2019 07:50:00 17.6 C 80 % 14.11 C
2112 31-07-2019 07:55:00 17.6 C 80 % 14.11 C
2113 31-07-2019 08:00:00 17.7 C 79 % 14.01 C
2114 31-07-2019 08:05:00 17.8 C 78 % 13.91 C
2115 31-07-2019 08:10:00 17.9 C 78 % 14.01 C
2116 31-07-2019 08:15:00 18 C 78 % 14.11 C
2117 31-07-2019 08:20:00 18.1 C 79 % 14.4 C
2118 31-07-2019 08:25:00 18.2 C 76 % 13.9 C
2119 31-07-2019 08:30:00 18.4 C 75 % 13.89 C
2120 31-07-2019 08:35:00 18.7 C 74 % 13.97 C
2121 31-07-2019 08:40:00 18.9 C 73 % 13.96 C
2122 31-07-2019 08:45:00 19.1 C 72 % 13.94 C
2123 31-07-2019 08:50:00 19.2 C 72 % 14.03 C
2124 31-07-2019 08:55:00 19.3 C 71 % 13.91 C
2125 31-07-2019 09:00:00 19.4 C 72 % 14.22 C
Sensor: Nr:Datum:Temp:Feuchte:Taupunkt:
Aussen-T/F 2126 31-07-2019 09:05:00 19.5 C 71 % 14.1 C
2127 31-07-2019 09:10:00 19.6 C 70 % 13.98 C
2128 31-07-2019 09:15:00 19.8 C 70 % 14.17 C
2129 31-07-2019 09:20:00 19.8 C 69 % 13.95 C
2130 31-07-2019 09:25:00 19.9 C 68 % 13.82 C
2131 31-07-2019 09:30:00 20.1 C 67 % 13.78 C
2132 31-07-2019 09:35:00 20.2 C 67 % 13.88 C
2133 31-07-2019 09:40:00 20.4 C 66 % 13.84 C
2134 31-07-2019 09:45:00 20.4 C 65 % 13.6 C
2135 31-07-2019 09:50:00 20.5 C 64 % 13.46 C
2136 31-07-2019 09:55:00 20.6 C 63 % 13.31 C
2137 31-07-2019 10:00:00 20.7 C 64 % 13.65 C
2138 31-07-2019 10:05:00 20.8 C 62 % 13.26 C
2139 31-07-2019 10:10:00 20.9 C 61 % 13.1 C
2140 31-07-2019 10:15:00 21.2 C 61 % 13.38 C
2141 31-07-2019 10:20:00 21.4 C 59 % 13.06 C
2142 31-07-2019 10:25:00 21.4 C 57 % 12.53 C
2143 31-07-2019 10:30:00 21.4 C 57 % 12.53 C
2144 31-07-2019 10:35:00 21.5 C 56 % 12.36 C
2145 31-07-2019 10:40:00 21.7 C 57 % 12.81 C
2146 31-07-2019 10:45:00 21.8 C 58 % 13.17 C
2147 31-07-2019 10:50:00 21.8 C 56 % 12.64 C
2148 31-07-2019 10:55:00 21.7 C 57 % 12.81 C
2149 31-07-2019 11:00:00 21.5 C 56 % 12.36 C
2150 31-07-2019 11:05:00 21.3 C 56 % 12.17 C
Sensor: Nr:Datum:Temp:Feuchte:Taupunkt:
Aussen-T/F 2151 31-07-2019 11:10:00 21.1 C 58 % 12.52 C
2152 31-07-2019 11:15:00 21.1 C 57 % 12.25 C
2153 31-07-2019 11:20:00 21.2 C 57 % 12.35 C
2154 31-07-2019 11:25:00 21.4 C 56 % 12.27 C
2155 31-07-2019 11:30:00 21.6 C 55 % 12.18 C
2156 31-07-2019 11:35:00 21.8 C 54 % 12.08 C
2157 31-07-2019 11:40:00 21.9 C 54 % 12.18 C
2158 31-07-2019 11:45:00 22 C 54 % 12.27 C
2159 31-07-2019 11:50:00 22.2 C 53 % 12.17 C
2160 31-07-2019 11:55:00 22.2 C 53 % 12.17 C
2161 31-07-2019 12:00:00 22.1 C 52 % 11.79 C
2162 31-07-2019 12:05:00 22.2 C 52 % 11.88 C
2163 31-07-2019 12:10:00 22.3 C 52 % 11.97 C
2164 31-07-2019 12:15:00 22.6 C 53 % 12.54 C
2165 31-07-2019 12:20:00 22.8 C 52 % 12.43 C
2166 31-07-2019 12:25:00 22.9 C 51 % 12.23 C
2167 31-07-2019 12:30:00 22.9 C 48 % 11.31 C
2168 31-07-2019 12:35:00 22.7 C 49 % 11.44 C
2169 31-07-2019 12:40:00 22.8 C 49 % 11.53 C
2170 31-07-2019 12:45:00 22.8 C 50 % 11.84 C
2171 31-07-2019 12:50:00 22.9 C 51 % 12.23 C
2172 31-07-2019 12:55:00 23 C 51 % 12.32 C
2173 31-07-2019 13:00:00 23.1 C 52 % 12.71 C
2174 31-07-2019 13:05:00 23.2 C 51 % 12.51 C
2175 31-07-2019 13:10:00 23.3 C 49 % 11.99 C
Sensor: Nr:Datum:Temp:Feuchte:Taupunkt:
Aussen-T/F 2176 31-07-2019 13:15:00 23.3 C 47 % 11.36 C
2177 31-07-2019 13:20:00 23.4 C 47 % 11.45 C
2178 31-07-2019 13:25:00 23.6 C 47 % 11.63 C
2179 31-07-2019 13:30:00 23.9 C 46 % 11.58 C
2180 31-07-2019 13:35:00 24 C 45 % 11.34 C
2181 31-07-2019 13:40:00 24 C 46 % 11.67 C
2182 31-07-2019 13:45:00 24.1 C 45 % 11.43 C
2183 31-07-2019 13:50:00 24.2 C 44 % 11.18 C
2184 31-07-2019 13:55:00 24.2 C 45 % 11.52 C
2185 31-07-2019 14:00:00 24.3 C 44 % 11.27 C
2186 31-07-2019 14:05:00 24.4 C 44 % 11.36 C
2187 31-07-2019 14:10:00 24.3 C 43 % 10.93 C
2188 31-07-2019 14:15:00 24.4 C 43 % 11.02 C
2189 31-07-2019 14:20:00 24.5 C 44 % 11.45 C
2190 31-07-2019 14:25:00 24.7 C 44 % 11.63 C
2191 31-07-2019 14:30:00 25 C 42 % 11.2 C
2192 31-07-2019 14:35:00 25.1 C 41 % 10.93 C
2193 31-07-2019 14:40:00 24.9 C 41 % 10.75 C
2194 31-07-2019 14:45:00 25.1 C 41 % 10.93 C
2195 31-07-2019 14:50:00 25.2 C 41 % 11.02 C
2196 31-07-2019 14:55:00 25.3 C 41 % 11.11 C
2197 31-07-2019 15:00:00 25.4 C 39 % 10.45 C
2198 31-07-2019 15:05:00 25.4 C 40 % 10.83 C
2199 31-07-2019 15:10:00 25.1 C 41 % 10.93 C
2200 31-07-2019 15:15:00 25.1 C 43 % 11.65 C
Sensor: Nr:Datum:Temp:Feuchte:Taupunkt:
Aussen-T/F 2201 31-07-2019 15:20:00 25.4 C 40 % 10.83 C
2202 31-07-2019 15:25:00 25.8 C 40 % 11.18 C
2203 31-07-2019 15:30:00 26 C 39 % 10.98 C
2204 31-07-2019 15:35:00 26 C 39 % 10.98 C
2205 31-07-2019 15:40:00 25.6 C 40 % 11 C
2206 31-07-2019 15:45:00 25.7 C 40 % 11.09 C
2207 31-07-2019 15:50:00 25.6 C 40 % 11 C
2208 31-07-2019 15:55:00 25.5 C 40 % 10.91 C
2209 31-07-2019 16:00:00 25.9 C 40 % 11.27 C
2210 31-07-2019 16:05:00 26.3 C 38 % 10.86 C
2211 31-07-2019 16:10:00 25.8 C 39 % 10.8 C
2212 31-07-2019 16:15:00 25.2 C 41 % 11.02 C
2213 31-07-2019 16:20:00 24.8 C 42 % 11.02 C
2214 31-07-2019 16:25:00 24.7 C 43 % 11.29 C
2215 31-07-2019 16:30:00 24.6 C 43 % 11.2 C
2216 31-07-2019 16:35:00 24.4 C 43 % 11.02 C
2217 31-07-2019 16:40:00 24.3 C 44 % 11.27 C
2218 31-07-2019 16:45:00 24.3 C 45 % 11.61 C
2219 31-07-2019 16:50:00 24.4 C 45 % 11.7 C
2220 31-07-2019 16:55:00 24.8 C 45 % 12.06 C
2221 31-07-2019 17:00:00 24.8 C 44 % 11.72 C
2222 31-07-2019 17:05:00 25.1 C 44 % 12 C
2223 31-07-2019 17:10:00 25.4 C 43 % 11.92 C
2224 31-07-2019 17:15:00 25.6 C 43 % 12.1 C
2225 31-07-2019 17:20:00 25.7 C 43 % 12.19 C
Sensor: Nr:Datum:Temp:Feuchte:Taupunkt:
Aussen-T/F 2226 31-07-2019 17:25:00 25.4 C 43 % 11.92 C
2227 31-07-2019 17:30:00 25.2 C 41 % 11.02 C
2228 31-07-2019 17:35:00 25.2 C 42 % 11.38 C
2229 31-07-2019 17:40:00 25.1 C 43 % 11.65 C
2230 31-07-2019 17:45:00 25.1 C 43 % 11.65 C
2231 31-07-2019 17:50:00 25.2 C 43 % 11.74 C
2232 31-07-2019 17:55:00 25.2 C 43 % 11.74 C
2233 31-07-2019 18:00:00 24.8 C 44 % 11.72 C
2234 31-07-2019 18:05:00 24.4 C 45 % 11.7 C
2235 31-07-2019 18:10:00 24.2 C 46 % 11.85 C
2236 31-07-2019 18:15:00 23.9 C 46 % 11.58 C
2237 31-07-2019 18:20:00 23.8 C 48 % 12.14 C
2238 31-07-2019 18:25:00 23.7 C 47 % 11.73 C
2239 31-07-2019 18:30:00 23.7 C 47 % 11.73 C
2240 31-07-2019 18:35:00 23.6 C 48 % 11.95 C
2241 31-07-2019 18:40:00 23.6 C 50 % 12.57 C
2242 31-07-2019 18:45:00 23.6 C 48 % 11.95 C
2243 31-07-2019 18:50:00 23.6 C 48 % 11.95 C
2244 31-07-2019 18:55:00 23.6 C 48 % 11.95 C
2245 31-07-2019 19:00:00 23.6 C 48 % 11.95 C
2246 31-07-2019 19:05:00 23.7 C 47 % 11.73 C
2247 31-07-2019 19:10:00 23.9 C 48 % 12.23 C
2248 31-07-2019 19:15:00 24 C 48 % 12.32 C
2249 31-07-2019 19:20:00 23.9 C 50 % 12.85 C
2250 31-07-2019 19:25:00 23.7 C 50 % 12.67 C
Sensor: Nr:Datum:Temp:Feuchte:Taupunkt:
Aussen-T/F 2251 31-07-2019 19:30:00 23.4 C 50 % 12.39 C
2252 31-07-2019 19:35:00 23.3 C 46 % 11.04 C
2253 31-07-2019 19:40:00 23.2 C 45 % 10.62 C
2254 31-07-2019 19:45:00 23.2 C 46 % 10.95 C
2255 31-07-2019 19:50:00 23.1 C 51 % 12.42 C
2256 31-07-2019 19:55:00 22.9 C 53 % 12.82 C
2257 31-07-2019 20:00:00 22.8 C 53 % 12.73 C
2258 31-07-2019 20:05:00 22.7 C 53 % 12.63 C
2259 31-07-2019 20:10:00 22.4 C 53 % 12.36 C
2260 31-07-2019 20:15:00 22.3 C 54 % 12.55 C
2261 31-07-2019 20:20:00 22.2 C 54 % 12.45 C
2262 31-07-2019 20:25:00 22.2 C 56 % 13.01 C
2263 31-07-2019 20:30:00 22.2 C 57 % 13.28 C
2264 31-07-2019 20:35:00 22.1 C 57 % 13.19 C
2265 31-07-2019 20:40:00 21.9 C 57 % 13 C
2266 31-07-2019 20:45:00 21.7 C 58 % 13.08 C
2267 31-07-2019 20:50:00 21.4 C 58 % 12.8 C
2268 31-07-2019 20:55:00 21.2 C 59 % 12.87 C
2269 31-07-2019 21:00:00 21 C 60 % 12.94 C
2270 31-07-2019 21:05:00 20.8 C 60 % 12.76 C
2271 31-07-2019 21:10:00 20.7 C 61 % 12.91 C
2272 31-07-2019 21:15:00 20.4 C 60 % 12.38 C
2273 31-07-2019 21:20:00 20.2 C 60 % 12.19 C
2274 31-07-2019 21:25:00 20 C 60 % 12 C
2275 31-07-2019 21:30:00 19.8 C 59 % 11.56 C
Sensor: Nr:Datum:Temp:Feuchte:Taupunkt:
Aussen-T/F 2276 31-07-2019 21:35:00 19.6 C 59 % 11.37 C
2277 31-07-2019 21:40:00 19.4 C 59 % 11.19 C
2278 31-07-2019 21:45:00 19.2 C 59 % 11 C
2279 31-07-2019 21:50:00 19.1 C 59 % 10.91 C
2280 31-07-2019 21:55:00 18.9 C 60 % 10.97 C
2281 31-07-2019 22:00:00 18.8 C 60 % 10.88 C
2282 31-07-2019 22:05:00 18.7 C 61 % 11.03 C
2283 31-07-2019 22:10:00 18.7 C 60 % 10.78 C
2284 31-07-2019 22:15:00 18.6 C 61 % 10.94 C
2285 31-07-2019 22:20:00 18.6 C 61 % 10.94 C
2286 31-07-2019 22:25:00 18.6 C 61 % 10.94 C
2287 31-07-2019 22:30:00 18.6 C 61 % 10.94 C
2288 31-07-2019 22:35:00 18.6 C 61 % 10.94 C
2289 31-07-2019 22:40:00 18.7 C 62 % 11.28 C
2290 31-07-2019 22:45:00 18.7 C 62 % 11.28 C
2291 31-07-2019 22:50:00 18.8 C 61 % 11.13 C
2292 31-07-2019 22:55:00 18.8 C 61 % 11.13 C
2293 31-07-2019 23:00:00 18.9 C 61 % 11.22 C
2294 31-07-2019 23:05:00 18.9 C 61 % 11.22 C
2295 31-07-2019 23:10:00 18.9 C 61 % 11.22 C
2296 31-07-2019 23:15:00 18.8 C 62 % 11.37 C
2297 31-07-2019 23:20:00 18.8 C 62 % 11.37 C
2298 31-07-2019 23:25:00 18.7 C 62 % 11.28 C
2299 31-07-2019 23:30:00 18.5 C 63 % 11.33 C
2300 31-07-2019 23:35:00 18.4 C 63 % 11.23 C
Sensor: Nr:Datum:Temp:Feuchte:Taupunkt:
Aussen-T/F 2301 31-07-2019 23:40:00 18.2 C 64 % 11.28 C
2302 31-07-2019 23:45:00 17.9 C 65 % 11.23 C
2303 31-07-2019 23:50:00 17.8 C 66 % 11.37 C
2304 31-07-2019 23:55:00 17.6 C 67 % 11.4 C
2305 01-08-2019 00:00:00 17.4 C 68 % 11.44 C
2306 01-08-2019 00:05:00 17.3 C 69 % 11.56 C
2307 01-08-2019 00:10:00 17.2 C 69 % 11.47 C
2308 01-08-2019 00:15:00 17.1 C 70 % 11.59 C
2309 01-08-2019 00:20:00 17 C 70 % 11.49 C
2310 01-08-2019 00:25:00 16.9 C 71 % 11.61 C
2311 01-08-2019 00:30:00 16.9 C 71 % 11.61 C
2312 01-08-2019 00:35:00 16.8 C 70 % 11.3 C
2313 01-08-2019 00:40:00 16.7 C 71 % 11.42 C
2314 01-08-2019 00:45:00 16.6 C 71 % 11.32 C
2315 01-08-2019 00:50:00 16.4 C 71 % 11.13 C
2316 01-08-2019 00:55:00 16.3 C 72 % 11.25 C
2317 01-08-2019 01:00:00 16.1 C 73 % 11.26 C
2318 01-08-2019 01:05:00 15.9 C 73 % 11.07 C
2319 01-08-2019 01:10:00 15.8 C 74 % 11.18 C
2320 01-08-2019 01:15:00 15.7 C 75 % 11.28 C
2321 01-08-2019 01:20:00 15.6 C 75 % 11.19 C
2322 01-08-2019 01:25:00 15.6 C 75 % 11.19 C
2323 01-08-2019 01:30:00 15.4 C 75 % 11 C
2324 01-08-2019 01:35:00 15.4 C 75 % 11 C
2325 01-08-2019 01:40:00 15.3 C 76 % 11.1 C
Sensor: Nr:Datum:Temp:Feuchte:Taupunkt:
Aussen-T/F 2326 01-08-2019 01:45:00 15.2 C 76 % 11 C
2327 01-08-2019 01:50:00 15.2 C 76 % 11 C
2328 01-08-2019 01:55:00 15.1 C 77 % 11.1 C
2329 01-08-2019 02:00:00 15.1 C 77 % 11.1 C
2330 01-08-2019 02:05:00 14.9 C 77 % 10.91 C
2331 01-08-2019 02:10:00 14.9 C 78 % 11.1 C
2332 01-08-2019 02:15:00 14.8 C 78 % 11 C
2333 01-08-2019 02:20:00 14.8 C 79 % 11.2 C
2334 01-08-2019 02:25:00 14.7 C 79 % 11.1 C
2335 01-08-2019 02:30:00 14.6 C 79 % 11 C
2336 01-08-2019 02:35:00 14.6 C 80 % 11.19 C
2337 01-08-2019 02:40:00 14.6 C 80 % 11.19 C
2338 01-08-2019 02:45:00 14.6 C 80 % 11.19 C
2339 01-08-2019 02:50:00 14.6 C 80 % 11.19 C
2340 01-08-2019 02:55:00 14.6 C 80 % 11.19 C
2341 01-08-2019 03:00:00 14.6 C 81 % 11.38 C
2342 01-08-2019 03:05:00 14.6 C 81 % 11.38 C
2343 01-08-2019 03:10:00 14.7 C 80 % 11.29 C
2344 01-08-2019 03:15:00 14.6 C 80 % 11.19 C
2345 01-08-2019 03:20:00 14.5 C 80 % 11.09 C
2346 01-08-2019 03:25:00 14.3 C 80 % 10.9 C
2347 01-08-2019 03:30:00 14.2 C 81 % 10.99 C
2348 01-08-2019 03:35:00 14 C 81 % 10.79 C
2349 01-08-2019 03:40:00 13.8 C 81 % 10.6 C
2350 01-08-2019 03:45:00 13.7 C 82 % 10.69 C
Sensor: Nr:Datum:Temp:Feuchte:Taupunkt:
Aussen-T/F 2351 01-08-2019 03:50:00 13.5 C 82 % 10.49 C
2352 01-08-2019 03:55:00 13.4 C 83 % 10.57 C
2353 01-08-2019 04:00:00 13.3 C 83 % 10.48 C
2354 01-08-2019 04:05:00 13.2 C 83 % 10.38 C
2355 01-08-2019 04:10:00 13.1 C 84 % 10.46 C
2356 01-08-2019 04:15:00 13 C 84 % 10.36 C
2357 01-08-2019 04:20:00 13 C 85 % 10.54 C
2358 01-08-2019 04:25:00 12.9 C 85 % 10.44 C
2359 01-08-2019 04:30:00 12.9 C 85 % 10.44 C
2360 01-08-2019 04:35:00 12.8 C 86 % 10.52 C
2361 01-08-2019 04:40:00 12.8 C 86 % 10.52 C
2362 01-08-2019 04:45:00 12.9 C 86 % 10.62 C
2363 01-08-2019 04:50:00 12.8 C 86 % 10.52 C
2364 01-08-2019 04:55:00 12.8 C 86 % 10.52 C
2365 01-08-2019 05:00:00 12.8 C 86 % 10.52 C
2366 01-08-2019 05:05:00 12.8 C 86 % 10.52 C
2367 01-08-2019 05:10:00 12.7 C 86 % 10.42 C
2368 01-08-2019 05:15:00 12.7 C 87 % 10.59 C
2369 01-08-2019 05:20:00 12.6 C 87 % 10.5 C
2370 01-08-2019 05:25:00 12.6 C 87 % 10.5 C
2371 01-08-2019 05:30:00 12.7 C 88 % 10.77 C
2372 01-08-2019 05:35:00 12.7 C 87 % 10.59 C
2373 01-08-2019 05:40:00 12.6 C 87 % 10.5 C
2374 01-08-2019 05:45:00 12.5 C 87 % 10.4 C
2375 01-08-2019 05:50:00 12.4 C 87 % 10.3 C
Sensor: Nr:Datum:Temp:Feuchte:Taupunkt:
Aussen-T/F 2376 01-08-2019 05:55:00 12.4 C 87 % 10.3 C
2377 01-08-2019 06:00:00 12.3 C 88 % 10.37 C
2378 01-08-2019 06:05:00 12.3 C 88 % 10.37 C
2379 01-08-2019 06:10:00 12.2 C 88 % 10.27 C
2380 01-08-2019 06:15:00 12.2 C 88 % 10.27 C
2381 01-08-2019 06:20:00 12.1 C 88 % 10.17 C
2382 01-08-2019 06:25:00 12.1 C 89 % 10.34 C
2383 01-08-2019 06:30:00 12.1 C 88 % 10.17 C
2384 01-08-2019 06:35:00 12 C 89 % 10.25 C
2385 01-08-2019 06:40:00 12 C 89 % 10.25 C
2386 01-08-2019 06:45:00 12 C 89 % 10.25 C
2387 01-08-2019 06:50:00 12.1 C 89 % 10.34 C
2388 01-08-2019 06:55:00 12.1 C 89 % 10.34 C
2389 01-08-2019 07:00:00 12.1 C 89 % 10.34 C
2390 01-08-2019 07:05:00 12.1 C 89 % 10.34 C
2391 01-08-2019 07:10:00 12.1 C 89 % 10.34 C
2392 01-08-2019 07:15:00 12.2 C 89 % 10.44 C
2393 01-08-2019 07:20:00 12.2 C 89 % 10.44 C
2394 01-08-2019 07:25:00 12.2 C 90 % 10.61 C
2395 01-08-2019 07:30:00 12.3 C 90 % 10.71 C
2396 01-08-2019 07:35:00 12.5 C 90 % 10.91 C
2397 01-08-2019 07:40:00 12.8 C 90 % 11.2 C
2398 01-08-2019 07:45:00 13.1 C 89 % 11.33 C
2399 01-08-2019 07:50:00 13.4 C 88 % 11.45 C
2400 01-08-2019 07:55:00 13.7 C 88 % 11.75 C
Sensor: Nr:Datum:Temp:Feuchte:Taupunkt:
Aussen-T/F 2401 01-08-2019 08:00:00 13.9 C 87 % 11.77 C
2402 01-08-2019 08:05:00 14.2 C 86 % 11.89 C
2403 01-08-2019 08:10:00 14.4 C 85 % 11.91 C
2404 01-08-2019 08:15:00 14.7 C 83 % 11.85 C
2405 01-08-2019 08:20:00 15 C 83 % 12.14 C
2406 01-08-2019 08:25:00 15.2 C 81 % 11.96 C
2407 01-08-2019 08:30:00 15.3 C 80 % 11.87 C
2408 01-08-2019 08:35:00 15.5 C 80 % 12.07 C
2409 01-08-2019 08:40:00 15.7 C 79 % 12.07 C
2410 01-08-2019 08:45:00 15.8 C 79 % 12.17 C
2411 01-08-2019 08:50:00 16.1 C 78 % 12.27 C
2412 01-08-2019 08:55:00 16.3 C 77 % 12.26 C
2413 01-08-2019 09:00:00 16.6 C 77 % 12.55 C
2414 01-08-2019 09:05:00 16.9 C 76 % 12.65 C
2415 01-08-2019 09:10:00 17.2 C 75 % 12.73 C
2416 01-08-2019 09:15:00 17.3 C 75 % 12.83 C
2417 01-08-2019 09:20:00 17.4 C 74 % 12.72 C
2418 01-08-2019 09:25:00 17.5 C 74 % 12.82 C
2419 01-08-2019 09:30:00 17.6 C 73 % 12.71 C
2420 01-08-2019 09:35:00 17.6 C 73 % 12.71 C
2421 01-08-2019 09:40:00 17.7 C 73 % 12.8 C
2422 01-08-2019 09:45:00 18 C 72 % 12.88 C
2423 01-08-2019 09:50:00 18.3 C 71 % 12.95 C
2424 01-08-2019 09:55:00 18.7 C 70 % 13.12 C
2425 01-08-2019 10:00:00 19.2 C 68 % 13.15 C
Sensor: Nr:Datum:Temp:Feuchte:Taupunkt:
Aussen-T/F 2426 01-08-2019 10:05:00 19.4 C 67 % 13.12 C
2427 01-08-2019 10:10:00 19.7 C 65 % 12.94 C
2428 01-08-2019 10:15:00 20 C 63 % 12.75 C
2429 01-08-2019 10:20:00 20.2 C 63 % 12.94 C
2430 01-08-2019 10:25:00 20.3 C 62 % 12.79 C
2431 01-08-2019 10:30:00 20.5 C 60 % 12.47 C
2432 01-08-2019 10:35:00 20.6 C 61 % 12.82 C
2433 01-08-2019 10:40:00 20.7 C 61 % 12.91 C
2434 01-08-2019 10:45:00 20.8 C 62 % 13.26 C
2435 01-08-2019 10:50:00 21.1 C 59 % 12.78 C
2436 01-08-2019 10:55:00 21.1 C 58 % 12.52 C
2437 01-08-2019 11:00:00 21.2 C 57 % 12.35 C
2438 01-08-2019 11:05:00 21.2 C 57 % 12.35 C
2439 01-08-2019 11:10:00 21.3 C 57 % 12.44 C
2440 01-08-2019 11:15:00 21.4 C 58 % 12.8 C
2441 01-08-2019 11:20:00 21.6 C 57 % 12.72 C
2442 01-08-2019 11:25:00 21.7 C 56 % 12.54 C
2443 01-08-2019 11:30:00 21.9 C 55 % 12.46 C
2444 01-08-2019 11:35:00 22.1 C 54 % 12.36 C
2445 01-08-2019 11:40:00 22 C 55 % 12.55 C
2446 01-08-2019 11:45:00 22.2 C 55 % 12.73 C
2447 01-08-2019 11:50:00 22.3 C 54 % 12.55 C
2448 01-08-2019 11:55:00 22.4 C 54 % 12.64 C
2449 01-08-2019 12:00:00 22.4 C 54 % 12.64 C
2450 01-08-2019 12:05:00 22.6 C 53 % 12.54 C
Sensor: Nr:Datum:Temp:Feuchte:Taupunkt:
Aussen-T/F 2451 01-08-2019 12:10:00 22.6 C 53 % 12.54 C
2452 01-08-2019 12:15:00 22.6 C 53 % 12.54 C
2453 01-08-2019 12:20:00 22.7 C 53 % 12.63 C
2454 01-08-2019 12:25:00 22.8 C 52 % 12.43 C
2455 01-08-2019 12:30:00 22.7 C 53 % 12.63 C
2456 01-08-2019 12:35:00 22.4 C 53 % 12.36 C
2457 01-08-2019 12:40:00 22.2 C 54 % 12.45 C
2458 01-08-2019 12:45:00 22.1 C 55 % 12.64 C
2459 01-08-2019 12:50:00 22.1 C 55 % 12.64 C
2460 01-08-2019 12:55:00 22.2 C 54 % 12.45 C
2461 01-08-2019 13:00:00 22.3 C 55 % 12.83 C
2462 01-08-2019 13:05:00 22.6 C 55 % 13.11 C
2463 01-08-2019 13:10:00 22.8 C 53 % 12.73 C
2464 01-08-2019 13:15:00 23.1 C 52 % 12.71 C
2465 01-08-2019 13:20:00 23.1 C 52 % 12.71 C
2466 01-08-2019 13:25:00 23.1 C 52 % 12.71 C
2467 01-08-2019 13:30:00 23.2 C 54 % 13.38 C
2468 01-08-2019 13:35:00 23.2 C 54 % 13.38 C
2469 01-08-2019 13:40:00 23.3 C 54 % 13.47 C
2470 01-08-2019 13:45:00 23.6 C 53 % 13.46 C
2471 01-08-2019 13:50:00 23.8 C 51 % 13.06 C
2472 01-08-2019 13:55:00 23.9 C 51 % 13.15 C
2473 01-08-2019 14:00:00 23.9 C 50 % 12.85 C
2474 01-08-2019 14:05:00 24.1 C 50 % 13.03 C
2475 01-08-2019 14:10:00 24.1 C 49 % 12.72 C
Sensor: Nr:Datum:Temp:Feuchte:Taupunkt:
Aussen-T/F 2476 01-08-2019 14:15:00 24.1 C 49 % 12.72 C
2477 01-08-2019 14:20:00 24.1 C 51 % 13.34 C
2478 01-08-2019 14:25:00 24.2 C 49 % 12.81 C
2479 01-08-2019 14:30:00 24.2 C 49 % 12.81 C
2480 01-08-2019 14:35:00 24.2 C 49 % 12.81 C
2481 01-08-2019 14:40:00 24.2 C 50 % 13.12 C
2482 01-08-2019 14:45:00 24.2 C 49 % 12.81 C
2483 01-08-2019 14:50:00 24.2 C 49 % 12.81 C
2484 01-08-2019 14:55:00 24.3 C 49 % 12.91 C
2485 01-08-2019 15:00:00 24.4 C 50 % 13.31 C
2486 01-08-2019 15:05:00 24.5 C 48 % 12.77 C
2487 01-08-2019 15:10:00 24.6 C 49 % 13.18 C
2488 01-08-2019 15:15:00 24.7 C 48 % 12.96 C
2489 01-08-2019 15:20:00 24.8 C 48 % 13.05 C
2490 01-08-2019 15:25:00 24.8 C 49 % 13.36 C
2491 01-08-2019 15:30:00 24.7 C 48 % 12.96 C
2492 01-08-2019 15:35:00 24.7 C 49 % 13.27 C
2493 01-08-2019 15:40:00 24.6 C 49 % 13.18 C
2494 01-08-2019 15:45:00 24.5 C 49 % 13.09 C
2495 01-08-2019 15:50:00 24.3 C 50 % 13.22 C
2496 01-08-2019 15:55:00 24.3 C 50 % 13.22 C
2497 01-08-2019 16:00:00 24.2 C 51 % 13.43 C
2498 01-08-2019 16:05:00 24.2 C 51 % 13.43 C
2499 01-08-2019 16:10:00 24.2 C 51 % 13.43 C
2500 01-08-2019 16:15:00 24.2 C 51 % 13.43 C
Sensor: Nr:Datum:Temp:Feuchte:Taupunkt:
Aussen-T/F 2501 01-08-2019 16:20:00 24.2 C 51 % 13.43 C
2502 01-08-2019 16:25:00 24.2 C 51 % 13.43 C
2503 01-08-2019 16:30:00 24.3 C 51 % 13.52 C
2504 01-08-2019 16:35:00 24.4 C 51 % 13.61 C
2505 01-08-2019 16:40:00 24.6 C 49 % 13.18 C
2506 01-08-2019 16:45:00 24.7 C 48 % 12.96 C
2507 01-08-2019 16:50:00 24.8 C 48 % 13.05 C
2508 01-08-2019 16:55:00 24.8 C 47 % 12.73 C
2509 01-08-2019 17:00:00 24.8 C 47 % 12.73 C
2510 01-08-2019 17:05:00 25 C 48 % 13.23 C
2511 01-08-2019 17:10:00 25 C 48 % 13.23 C
2512 01-08-2019 17:15:00 24.8 C 47 % 12.73 C
2513 01-08-2019 17:20:00 24.8 C 48 % 13.05 C
2514 01-08-2019 17:25:00 24.8 C 49 % 13.36 C
2515 01-08-2019 17:30:00 24.7 C 49 % 13.27 C
2516 01-08-2019 17:35:00 25 C 49 % 13.55 C
2517 01-08-2019 17:40:00 25.4 C 47 % 13.27 C
2518 01-08-2019 17:45:00 25.5 C 47 % 13.36 C
2519 01-08-2019 17:50:00 25.7 C 47 % 13.55 C
2520 01-08-2019 17:55:00 26.1 C 46 % 13.58 C
2521 01-08-2019 18:00:00 26.6 C 46 % 14.03 C
2522 01-08-2019 18:05:00 26.9 C 44 % 13.62 C
2523 01-08-2019 18:10:00 26.7 C 44 % 13.44 C
2524 01-08-2019 18:15:00 26.4 C 46 % 13.85 C
2525 01-08-2019 18:20:00 26.2 C 45 % 13.33 C
Sensor: Nr:Datum:Temp:Feuchte:Taupunkt:
Aussen-T/F 2526 01-08-2019 18:25:00 25.8 C 45 % 12.97 C
2527 01-08-2019 18:30:00 25.7 C 46 % 13.22 C
2528 01-08-2019 18:35:00 25.6 C 46 % 13.12 C
2529 01-08-2019 18:40:00 26.1 C 46 % 13.58 C
2530 01-08-2019 18:45:00 26.6 C 44 % 13.35 C
2531 01-08-2019 18:50:00 26.8 C 43 % 13.18 C
2532 01-08-2019 18:55:00 26.8 C 42 % 12.82 C
2533 01-08-2019 19:00:00 26.8 C 43 % 13.18 C
2534 01-08-2019 19:05:00 26.8 C 43 % 13.18 C
2535 01-08-2019 19:10:00 26.8 C 44 % 13.53 C
2536 01-08-2019 19:15:00 26.7 C 44 % 13.44 C
2537 01-08-2019 19:20:00 26.6 C 45 % 13.69 C
2538 01-08-2019 19:25:00 26.4 C 45 % 13.51 C
2539 01-08-2019 19:30:00 26.3 C 45 % 13.42 C
2540 01-08-2019 19:35:00 26.1 C 46 % 13.58 C
2541 01-08-2019 19:40:00 25.9 C 46 % 13.4 C
2542 01-08-2019 19:45:00 25.7 C 47 % 13.55 C
2543 01-08-2019 19:50:00 25.6 C 47 % 13.45 C
2544 01-08-2019 19:55:00 25.5 C 47 % 13.36 C
2545 01-08-2019 20:00:00 25.4 C 48 % 13.6 C
2546 01-08-2019 20:05:00 25.2 C 51 % 14.35 C
2547 01-08-2019 20:10:00 24.9 C 52 % 14.37 C
2548 01-08-2019 20:15:00 24.6 C 52 % 14.09 C
2549 01-08-2019 20:20:00 24.4 C 53 % 14.2 C
2550 01-08-2019 20:25:00 24.2 C 54 % 14.31 C
Sensor: Nr:Datum:Temp:Feuchte:Taupunkt:
Aussen-T/F 2551 01-08-2019 20:30:00 24 C 53 % 13.83 C
2552 01-08-2019 20:35:00 23.9 C 55 % 14.31 C
2553 01-08-2019 20:40:00 23.7 C 56 % 14.4 C
2554 01-08-2019 20:45:00 23.4 C 57 % 14.4 C
2555 01-08-2019 20:50:00 23 C 57 % 14.03 C
2556 01-08-2019 20:55:00 22.6 C 58 % 13.92 C
2557 01-08-2019 21:00:00 22.3 C 59 % 13.9 C
2558 01-08-2019 21:05:00 22.1 C 60 % 13.98 C
2559 01-08-2019 21:10:00 21.8 C 60 % 13.69 C
2560 01-08-2019 21:15:00 21.6 C 61 % 13.76 C
2561 01-08-2019 21:20:00 21.3 C 62 % 13.73 C
2562 01-08-2019 21:25:00 21.1 C 62 % 13.54 C
2563 01-08-2019 21:30:00 20.9 C 63 % 13.6 C
2564 01-08-2019 21:35:00 20.8 C 64 % 13.74 C
2565 01-08-2019 21:40:00 20.7 C 64 % 13.65 C
2566 01-08-2019 21:45:00 20.5 C 65 % 13.7 C
2567 01-08-2019 21:50:00 20.4 C 66 % 13.84 C
2568 01-08-2019 21:55:00 20.3 C 66 % 13.74 C
2569 01-08-2019 22:00:00 20.3 C 66 % 13.74 C
2570 01-08-2019 22:05:00 20.2 C 67 % 13.88 C
2571 01-08-2019 22:10:00 20.1 C 67 % 13.78 C
2572 01-08-2019 22:15:00 19.9 C 67 % 13.59 C
2573 01-08-2019 22:20:00 19.8 C 68 % 13.73 C
2574 01-08-2019 22:25:00 19.7 C 68 % 13.63 C
2575 01-08-2019 22:30:00 19.6 C 67 % 13.31 C
Sensor: Nr:Datum:Temp:Feuchte:Taupunkt:
Aussen-T/F 2576 01-08-2019 22:35:00 19.6 C 68 % 13.54 C
2577 01-08-2019 22:40:00 19.5 C 68 % 13.44 C
2578 01-08-2019 22:45:00 19.5 C 68 % 13.44 C
2579 01-08-2019 22:50:00 19.5 C 69 % 13.66 C
2580 01-08-2019 22:55:00 19.5 C 69 % 13.66 C
2581 01-08-2019 23:00:00 19.5 C 68 % 13.44 C
2582 01-08-2019 23:05:00 19.4 C 68 % 13.34 C
2583 01-08-2019 23:10:00 19.4 C 68 % 13.34 C
2584 01-08-2019 23:15:00 19.3 C 68 % 13.25 C
2585 01-08-2019 23:20:00 19.3 C 69 % 13.47 C
2586 01-08-2019 23:25:00 19.2 C 70 % 13.6 C
2587 01-08-2019 23:30:00 19.2 C 70 % 13.6 C
2588 01-08-2019 23:35:00 19.2 C 70 % 13.6 C
2589 01-08-2019 23:40:00 19.1 C 71 % 13.72 C
2590 01-08-2019 23:45:00 19.1 C 71 % 13.72 C
2591 01-08-2019 23:50:00 19.1 C 71 % 13.72 C
2592 01-08-2019 23:55:00 19.1 C 71 % 13.72 C
2593 02-08-2019 00:00:00 19.1 C 72 % 13.94 C
2594 02-08-2019 00:05:00 19.1 C 72 % 13.94 C
2595 02-08-2019 00:10:00 19 C 72 % 13.84 C
2596 02-08-2019 00:15:00 18.9 C 72 % 13.74 C
2597 02-08-2019 00:20:00 18.9 C 73 % 13.96 C
2598 02-08-2019 00:25:00 18.8 C 73 % 13.86 C
2599 02-08-2019 00:30:00 18.8 C 73 % 13.86 C
2600 02-08-2019 00:35:00 18.7 C 74 % 13.97 C
Sensor: Nr:Datum:Temp:Feuchte:Taupunkt:
Aussen-T/F 2601 02-08-2019 00:40:00 18.7 C 74 % 13.97 C
2602 02-08-2019 00:45:00 18.6 C 74 % 13.88 C
2603 02-08-2019 00:50:00 18.6 C 75 % 14.08 C
2604 02-08-2019 00:55:00 18.6 C 75 % 14.08 C
2605 02-08-2019 01:00:00 18.5 C 75 % 13.99 C
2606 02-08-2019 01:05:00 18.5 C 75 % 13.99 C
2607 02-08-2019 01:10:00 18.5 C 75 % 13.99 C
2608 02-08-2019 01:15:00 18.4 C 75 % 13.89 C
2609 02-08-2019 01:20:00 18.4 C 75 % 13.89 C
2610 02-08-2019 01:25:00 18.4 C 76 % 14.1 C
2611 02-08-2019 01:30:00 18.3 C 76 % 14 C
2612 02-08-2019 01:35:00 18.3 C 75 % 13.79 C
2613 02-08-2019 01:40:00 18.3 C 77 % 14.2 C
2614 02-08-2019 01:45:00 18.2 C 77 % 14.1 C
2615 02-08-2019 01:50:00 18.2 C 76 % 13.9 C
2616 02-08-2019 01:55:00 18.1 C 76 % 13.81 C
2617 02-08-2019 02:00:00 18.1 C 76 % 13.81 C
2618 02-08-2019 02:05:00 18.1 C 76 % 13.81 C
2619 02-08-2019 02:10:00 18 C 77 % 13.91 C
2620 02-08-2019 02:15:00 18 C 76 % 13.71 C
2621 02-08-2019 02:20:00 17.9 C 77 % 13.81 C
2622 02-08-2019 02:25:00 17.9 C 77 % 13.81 C
2623 02-08-2019 02:30:00 17.9 C 77 % 13.81 C
2624 02-08-2019 02:35:00 17.8 C 77 % 13.72 C
2625 02-08-2019 02:40:00 17.8 C 77 % 13.72 C
Sensor: Nr:Datum:Temp:Feuchte:Taupunkt:
Aussen-T/F 2626 02-08-2019 02:45:00 17.7 C 77 % 13.62 C
2627 02-08-2019 02:50:00 17.6 C 77 % 13.52 C
2628 02-08-2019 02:55:00 17.6 C 78 % 13.72 C
2629 02-08-2019 03:00:00 17.4 C 78 % 13.53 C
2630 02-08-2019 03:05:00 17.3 C 78 % 13.43 C
2631 02-08-2019 03:10:00 17.2 C 79 % 13.53 C
2632 02-08-2019 03:15:00 17.1 C 79 % 13.43 C
2633 02-08-2019 03:20:00 17.1 C 80 % 13.62 C
2634 02-08-2019 03:25:00 16.9 C 80 % 13.43 C
2635 02-08-2019 03:30:00 16.8 C 80 % 13.33 C
2636 02-08-2019 03:35:00 16.8 C 80 % 13.33 C
2637 02-08-2019 03:40:00 16.7 C 80 % 13.23 C
2638 02-08-2019 03:45:00 16.7 C 80 % 13.23 C
2639 02-08-2019 03:50:00 16.7 C 81 % 13.43 C
2640 02-08-2019 03:55:00 16.6 C 81 % 13.33 C
2641 02-08-2019 04:00:00 16.6 C 81 % 13.33 C
2642 02-08-2019 04:05:00 16.5 C 82 % 13.42 C
2643 02-08-2019 04:10:00 16.4 C 82 % 13.32 C
2644 02-08-2019 04:15:00 16.4 C 82 % 13.32 C
2645 02-08-2019 04:20:00 16.3 C 82 % 13.22 C
2646 02-08-2019 04:25:00 16.3 C 82 % 13.22 C
2647 02-08-2019 04:30:00 16.3 C 83 % 13.41 C
2648 02-08-2019 04:35:00 16.2 C 83 % 13.31 C
2649 02-08-2019 04:40:00 16.2 C 84 % 13.5 C
2650 02-08-2019 04:45:00 16.2 C 83 % 13.31 C
Sensor: Nr:Datum:Temp:Feuchte:Taupunkt:
Aussen-T/F 2651 02-08-2019 04:50:00 16.2 C 83 % 13.31 C
2652 02-08-2019 04:55:00 16.2 C 83 % 13.31 C
2653 02-08-2019 05:00:00 16.2 C 84 % 13.5 C
2654 02-08-2019 05:05:00 16.2 C 83 % 13.31 C
2655 02-08-2019 05:10:00 16.2 C 83 % 13.31 C
2656 02-08-2019 05:15:00 16.2 C 83 % 13.31 C
2657 02-08-2019 05:20:00 16.2 C 83 % 13.31 C
2658 02-08-2019 05:25:00 16.2 C 84 % 13.5 C
2659 02-08-2019 05:30:00 16.2 C 84 % 13.5 C
2660 02-08-2019 05:35:00 16.2 C 84 % 13.5 C
2661 02-08-2019 05:40:00 16.2 C 84 % 13.5 C
2662 02-08-2019 05:45:00 16.2 C 84 % 13.5 C
2663 02-08-2019 05:50:00 16.2 C 84 % 13.5 C
2664 02-08-2019 05:55:00 16.2 C 84 % 13.5 C
2665 02-08-2019 06:00:00 16.2 C 85 % 13.68 C
2666 02-08-2019 06:05:00 16.2 C 85 % 13.68 C
2667 02-08-2019 06:10:00 16.2 C 85 % 13.68 C
2668 02-08-2019 06:15:00 16.2 C 85 % 13.68 C
2669 02-08-2019 06:20:00 16.2 C 85 % 13.68 C
2670 02-08-2019 06:25:00 16.2 C 85 % 13.68 C
2671 02-08-2019 06:30:00 16.2 C 85 % 13.68 C
2672 02-08-2019 06:35:00 16.3 C 85 % 13.77 C
2673 02-08-2019 06:40:00 16.3 C 85 % 13.77 C
2674 02-08-2019 06:45:00 16.3 C 85 % 13.77 C
2675 02-08-2019 06:50:00 16.3 C 85 % 13.77 C
Sensor: Nr:Datum:Temp:Feuchte:Taupunkt:
Aussen-T/F 2676 02-08-2019 06:55:00 16.4 C 85 % 13.87 C
2677 02-08-2019 07:00:00 16.4 C 85 % 13.87 C
2678 02-08-2019 07:05:00 16.5 C 85 % 13.97 C
2679 02-08-2019 07:10:00 16.6 C 85 % 14.07 C
2680 02-08-2019 07:15:00 16.7 C 85 % 14.17 C
2681 02-08-2019 07:20:00 16.8 C 85 % 14.26 C
2682 02-08-2019 07:25:00 16.9 C 85 % 14.36 C
2683 02-08-2019 07:30:00 17 C 84 % 14.28 C
2684 02-08-2019 07:35:00 17.1 C 84 % 14.38 C
2685 02-08-2019 07:40:00 17.2 C 84 % 14.47 C
2686 02-08-2019 07:45:00 17.2 C 84 % 14.47 C
2687 02-08-2019 07:50:00 17.3 C 84 % 14.57 C
2688 02-08-2019 07:55:00 17.4 C 84 % 14.67 C
2689 02-08-2019 08:00:00 17.5 C 83 % 14.58 C
2690 02-08-2019 08:05:00 17.6 C 83 % 14.68 C
2691 02-08-2019 08:10:00 17.6 C 83 % 14.68 C
2692 02-08-2019 08:15:00 17.7 C 83 % 14.78 C
2693 02-08-2019 08:20:00 17.8 C 82 % 14.69 C
2694 02-08-2019 08:25:00 17.9 C 83 % 14.97 C
2695 02-08-2019 08:30:00 18 C 82 % 14.88 C
2696 02-08-2019 08:35:00 18.1 C 82 % 14.98 C
2697 02-08-2019 08:40:00 18.2 C 82 % 15.08 C
2698 02-08-2019 08:45:00 18.2 C 82 % 15.08 C
2699 02-08-2019 08:50:00 18.3 C 82 % 15.17 C
2700 02-08-2019 08:55:00 18.3 C 81 % 14.98 C
Sensor: Nr:Datum:Temp:Feuchte:Taupunkt:
Aussen-T/F 2701 02-08-2019 09:00:00 18.4 C 82 % 15.27 C
2702 02-08-2019 09:05:00 18.6 C 81 % 15.28 C
2703 02-08-2019 09:10:00 18.7 C 80 % 15.18 C
2704 02-08-2019 09:15:00 18.8 C 79 % 15.08 C
2705 02-08-2019 09:20:00 19 C 79 % 15.28 C
2706 02-08-2019 09:25:00 19.2 C 78 % 15.27 C
2707 02-08-2019 09:30:00 19.4 C 78 % 15.47 C
2708 02-08-2019 09:35:00 19.7 C 77 % 15.56 C
2709 02-08-2019 09:40:00 19.9 C 76 % 15.54 C
2710 02-08-2019 09:45:00 20.1 C 76 % 15.74 C
2711 02-08-2019 09:50:00 20.2 C 75 % 15.63 C
2712 02-08-2019 09:55:00 20.2 C 74 % 15.42 C
2713 02-08-2019 10:00:00 20.3 C 74 % 15.51 C
2714 02-08-2019 10:05:00 20.3 C 74 % 15.51 C
2715 02-08-2019 10:10:00 20.4 C 74 % 15.61 C
2716 02-08-2019 10:15:00 20.5 C 74 % 15.71 C
2717 02-08-2019 10:20:00 20.6 C 73 % 15.59 C
2718 02-08-2019 10:25:00 20.7 C 73 % 15.69 C
2719 02-08-2019 10:30:00 20.8 C 72 % 15.57 C
2720 02-08-2019 10:35:00 20.8 C 71 % 15.35 C
2721 02-08-2019 10:40:00 20.9 C 71 % 15.45 C
2722 02-08-2019 10:45:00 21 C 70 % 15.32 C
2723 02-08-2019 10:50:00 21.1 C 71 % 15.64 C
2724 02-08-2019 10:55:00 21.2 C 69 % 15.29 C
2725 02-08-2019 11:00:00 21.4 C 69 % 15.48 C
Sensor: Nr:Datum:Temp:Feuchte:Taupunkt:
Aussen-T/F 2726 02-08-2019 11:05:00 21.7 C 67 % 15.31 C
2727 02-08-2019 11:10:00 21.7 C 67 % 15.31 C
2728 02-08-2019 11:15:00 21.8 C 66 % 15.17 C
2729 02-08-2019 11:20:00 21.9 C 66 % 15.26 C
2730 02-08-2019 11:25:00 22.1 C 65 % 15.21 C
2731 02-08-2019 11:30:00 22.3 C 64 % 15.16 C
2732 02-08-2019 11:35:00 22.5 C 63 % 15.11 C
2733 02-08-2019 11:40:00 22.6 C 63 % 15.2 C
2734 02-08-2019 11:45:00 22.6 C 63 % 15.2 C
2735 02-08-2019 11:50:00 22.7 C 62 % 15.05 C
2736 02-08-2019 11:55:00 22.7 C 63 % 15.3 C
2737 02-08-2019 12:00:00 22.6 C 67 % 16.16 C
2738 02-08-2019 12:05:00 22.5 C 73 % 17.42 C
2739 02-08-2019 12:10:00 22.3 C 76 % 17.86 C
2740 02-08-2019 12:15:00 21.9 C 75 % 17.27 C
2741 02-08-2019 12:20:00 21.4 C 74 % 16.57 C
2742 02-08-2019 12:25:00 21.2 C 76 % 16.8 C
2743 02-08-2019 12:30:00 20.8 C 78 % 16.82 C
2744 02-08-2019 12:35:00 20.7 C 79 % 16.93 C
2745 02-08-2019 12:40:00 20.6 C 80 % 17.03 C
2746 02-08-2019 12:45:00 20.5 C 78 % 16.53 C
2747 02-08-2019 12:50:00 20.4 C 76 % 16.03 C
2748 02-08-2019 12:55:00 20.4 C 74 % 15.61 C
2749 02-08-2019 13:00:00 20.4 C 75 % 15.82 C
2750 02-08-2019 13:05:00 20.5 C 71 % 15.06 C
Sensor: Nr:Datum:Temp:Feuchte:Taupunkt:
Aussen-T/F 2751 02-08-2019 13:10:00 20.7 C 75 % 16.11 C
2752 02-08-2019 13:15:00 20.7 C 72 % 15.47 C
2753 02-08-2019 13:20:00 20.8 C 72 % 15.57 C
2754 02-08-2019 13:25:00 20.9 C 71 % 15.45 C
2755 02-08-2019 13:30:00 21.1 C 71 % 15.64 C
2756 02-08-2019 13:35:00 21.4 C 69 % 15.48 C
2757 02-08-2019 13:40:00 21.6 C 70 % 15.89 C
2758 02-08-2019 13:45:00 21.7 C 70 % 15.99 C
2759 02-08-2019 13:50:00 21.8 C 71 % 16.31 C
2760 02-08-2019 13:55:00 21.9 C 68 % 15.73 C
2761 02-08-2019 14:00:00 22 C 65 % 15.12 C
2762 02-08-2019 14:05:00 22.1 C 64 % 14.97 C
2763 02-08-2019 14:10:00 22.3 C 63 % 14.92 C
2764 02-08-2019 14:15:00 22.5 C 62 % 14.86 C
2765 02-08-2019 14:20:00 22.8 C 61 % 14.89 C
2766 02-08-2019 14:25:00 23 C 62 % 15.33 C
2767 02-08-2019 14:30:00 23.3 C 61 % 15.36 C
2768 02-08-2019 14:35:00 23.5 C 62 % 15.8 C
2769 02-08-2019 14:40:00 23.8 C 61 % 15.83 C
2770 02-08-2019 14:45:00 24.1 C 59 % 15.59 C
2771 02-08-2019 14:50:00 24.2 C 61 % 16.2 C
2772 02-08-2019 14:55:00 24.4 C 60 % 16.13 C
2773 02-08-2019 15:00:00 24.5 C 59 % 15.96 C
2774 02-08-2019 15:05:00 24.5 C 59 % 15.96 C
2775 02-08-2019 15:10:00 24.7 C 58 % 15.88 C
Sensor: Nr:Datum:Temp:Feuchte:Taupunkt:
Aussen-T/F 2776 02-08-2019 15:15:00 24.8 C 57 % 15.7 C
2777 02-08-2019 15:20:00 24.8 C 55 % 15.15 C
2778 02-08-2019 15:25:00 24.7 C 55 % 15.05 C
2779 02-08-2019 15:30:00 24.5 C 56 % 15.15 C
2780 02-08-2019 15:35:00 24.4 C 57 % 15.33 C
2781 02-08-2019 15:40:00 24.4 C 55 % 14.78 C
2782 02-08-2019 15:45:00 24.4 C 56 % 15.06 C
2783 02-08-2019 15:50:00 24.6 C 54 % 14.68 C
2784 02-08-2019 15:55:00 24.7 C 55 % 15.05 C
2785 02-08-2019 16:00:00 25.2 C 53 % 14.94 C
2786 02-08-2019 16:05:00 25.5 C 52 % 14.92 C
2787 02-08-2019 16:10:00 25.6 C 51 % 14.71 C
2788 02-08-2019 16:15:00 25.6 C 52 % 15.02 C
2789 02-08-2019 16:20:00 26.1 C 51 % 15.17 C
2790 02-08-2019 16:25:00 26.2 C 50 % 14.96 C
2791 02-08-2019 16:30:00 26.1 C 49 % 14.55 C
2792 02-08-2019 16:35:00 25.7 C 50 % 14.5 C
2793 02-08-2019 16:40:00 25.4 C 52 % 14.83 C
2794 02-08-2019 16:45:00 25.3 C 52 % 14.74 C
2795 02-08-2019 16:50:00 25.2 C 51 % 14.35 C
2796 02-08-2019 16:55:00 25.2 C 50 % 14.04 C
2797 02-08-2019 17:00:00 25.4 C 51 % 14.53 C
2798 02-08-2019 17:05:00 26.1 C 48 % 14.23 C
2799 02-08-2019 17:10:00 26.7 C 46 % 14.12 C
2800 02-08-2019 17:15:00 27.1 C 46 % 14.49 C
Sensor: Nr:Datum:Temp:Feuchte:Taupunkt:
Aussen-T/F 2801 02-08-2019 17:20:00 27.3 C 44 % 13.98 C
2802 02-08-2019 17:25:00 27.3 C 44 % 13.98 C
2803 02-08-2019 17:30:00 27.5 C 45 % 14.51 C
2804 02-08-2019 17:35:00 27.4 C 43 % 13.72 C
2805 02-08-2019 17:40:00 27 C 44 % 13.71 C
2806 02-08-2019 17:45:00 26.6 C 46 % 14.03 C
2807 02-08-2019 17:50:00 26.3 C 47 % 14.09 C
2808 02-08-2019 17:55:00 26 C 48 % 14.14 C
2809 02-08-2019 18:00:00 25.8 C 48 % 13.96 C
2810 02-08-2019 18:05:00 26 C 48 % 14.14 C
2811 02-08-2019 18:10:00 25.9 C 49 % 14.37 C
2812 02-08-2019 18:15:00 25.6 C 50 % 14.41 C
2813 02-08-2019 18:20:00 25.3 C 53 % 15.03 C
2814 02-08-2019 18:25:00 24.9 C 55 % 15.24 C
2815 02-08-2019 18:30:00 24.5 C 56 % 15.15 C
2816 02-08-2019 18:35:00 24.3 C 57 % 15.24 C
2817 02-08-2019 18:40:00 24.4 C 56 % 15.06 C
2818 02-08-2019 18:45:00 24.4 C 57 % 15.33 C
2819 02-08-2019 18:50:00 24.5 C 56 % 15.15 C
2820 02-08-2019 18:55:00 24.5 C 56 % 15.15 C
2821 02-08-2019 19:00:00 24.3 C 57 % 15.24 C
2822 02-08-2019 19:05:00 24.2 C 58 % 15.42 C
2823 02-08-2019 19:10:00 24 C 58 % 15.23 C
2824 02-08-2019 19:15:00 23.9 C 53 % 13.74 C
2825 02-08-2019 19:20:00 23.8 C 53 % 13.65 C
Sensor: Nr:Datum:Temp:Feuchte:Taupunkt:
Aussen-T/F 2826 02-08-2019 19:25:00 23.7 C 54 % 13.84 C
2827 02-08-2019 19:30:00 23.6 C 54 % 13.75 C
2828 02-08-2019 19:35:00 23.6 C 53 % 13.46 C
2829 02-08-2019 19:40:00 23.4 C 54 % 13.57 C
2830 02-08-2019 19:45:00 23.4 C 55 % 13.85 C
2831 02-08-2019 19:50:00 23.3 C 54 % 13.47 C
2832 02-08-2019 19:55:00 23.2 C 55 % 13.66 C
2833 02-08-2019 20:00:00 23.1 C 56 % 13.85 C
2834 02-08-2019 20:05:00 22.9 C 60 % 14.73 C
2835 02-08-2019 20:10:00 22.8 C 59 % 14.37 C
2836 02-08-2019 20:15:00 22.7 C 61 % 14.79 C
2837 02-08-2019 20:20:00 22.5 C 61 % 14.61 C
2838 02-08-2019 20:25:00 22.4 C 60 % 14.26 C
2839 02-08-2019 20:30:00 22.3 C 60 % 14.16 C
2840 02-08-2019 20:35:00 22.3 C 60 % 14.16 C
2841 02-08-2019 20:40:00 22.3 C 61 % 14.42 C
2842 02-08-2019 20:45:00 22.2 C 62 % 14.58 C
2843 02-08-2019 20:50:00 22.1 C 62 % 14.48 C
2844 02-08-2019 20:55:00 21.9 C 63 % 14.54 C
2845 02-08-2019 21:00:00 21.7 C 64 % 14.6 C
2846 02-08-2019 21:05:00 21.5 C 65 % 14.65 C
2847 02-08-2019 21:10:00 21.2 C 64 % 14.12 C
2848 02-08-2019 21:15:00 21.1 C 65 % 14.27 C
2849 02-08-2019 21:20:00 20.9 C 66 % 14.31 C
2850 02-08-2019 21:25:00 20.9 C 64 % 13.84 C
Sensor: Nr:Datum:Temp:Feuchte:Taupunkt:
Aussen-T/F 2851 02-08-2019 21:30:00 21.1 C 63 % 13.79 C
2852 02-08-2019 21:35:00 21.3 C 63 % 13.97 C
2853 02-08-2019 21:40:00 21.4 C 62 % 13.82 C
2854 02-08-2019 21:45:00 21.4 C 62 % 13.82 C
2855 02-08-2019 21:50:00 21.4 C 62 % 13.82 C
2856 02-08-2019 21:55:00 21.4 C 63 % 14.07 C
2857 02-08-2019 22:00:00 21.4 C 63 % 14.07 C
2858 02-08-2019 22:05:00 21.3 C 63 % 13.97 C
2859 02-08-2019 22:10:00 21.1 C 64 % 14.03 C
2860 02-08-2019 22:15:00 21 C 65 % 14.17 C
2861 02-08-2019 22:20:00 20.9 C 65 % 14.08 C
2862 02-08-2019 22:25:00 20.9 C 66 % 14.31 C
2863 02-08-2019 22:30:00 20.8 C 67 % 14.45 C
2864 02-08-2019 22:35:00 20.8 C 66 % 14.22 C
2865 02-08-2019 22:40:00 20.8 C 66 % 14.22 C
2866 02-08-2019 22:45:00 20.8 C 66 % 14.22 C
2867 02-08-2019 22:50:00 20.8 C 67 % 14.45 C
2868 02-08-2019 22:55:00 20.8 C 66 % 14.22 C
2869 02-08-2019 23:00:00 20.6 C 68 % 14.49 C
2870 02-08-2019 23:05:00 20.3 C 72 % 15.09 C
2871 02-08-2019 23:10:00 19.9 C 74 % 15.13 C
2872 02-08-2019 23:15:00 19.6 C 77 % 15.46 C
2873 02-08-2019 23:20:00 19.3 C 78 % 15.37 C
2874 02-08-2019 23:25:00 18.9 C 80 % 15.38 C
2875 02-08-2019 23:30:00 18.7 C 81 % 15.37 C
Sensor: Nr:Datum:Temp:Feuchte:Taupunkt:
Aussen-T/F 2876 02-08-2019 23:35:00 18.4 C 81 % 15.08 C
2877 02-08-2019 23:40:00 18.3 C 83 % 15.36 C
2878 02-08-2019 23:45:00 18.1 C 83 % 15.17 C
2879 02-08-2019 23:50:00 17.9 C 84 % 15.16 C
2880 02-08-2019 23:55:00 17.7 C 85 % 15.15 C
2881 03-08-2019 00:00:00 17.5 C 85 % 14.95 C
2882 03-08-2019 00:05:00 17.4 C 86 % 15.03 C
2883 03-08-2019 00:10:00 17.4 C 86 % 15.03 C
2884 03-08-2019 00:15:00 17.4 C 86 % 15.03 C
2885 03-08-2019 00:20:00 17.4 C 86 % 15.03 C
2886 03-08-2019 00:25:00 17.7 C 85 % 15.15 C
2887 03-08-2019 00:30:00 17.8 C 84 % 15.06 C
2888 03-08-2019 00:35:00 17.9 C 84 % 15.16 C
2889 03-08-2019 00:40:00 18.1 C 83 % 15.17 C
2890 03-08-2019 00:45:00 18.1 C 83 % 15.17 C
2891 03-08-2019 00:50:00 18.2 C 82 % 15.08 C
2892 03-08-2019 00:55:00 18.2 C 82 % 15.08 C
2893 03-08-2019 01:00:00 18.3 C 82 % 15.17 C
2894 03-08-2019 01:05:00 18.3 C 82 % 15.17 C
2895 03-08-2019 01:10:00 18.3 C 83 % 15.36 C
2896 03-08-2019 01:15:00 18.3 C 82 % 15.17 C
2897 03-08-2019 01:20:00 18.3 C 82 % 15.17 C
2898 03-08-2019 01:25:00 18.3 C 82 % 15.17 C
2899 03-08-2019 01:30:00 18.3 C 82 % 15.17 C
2900 03-08-2019 01:35:00 18.3 C 82 % 15.17 C
Sensor: Nr:Datum:Temp:Feuchte:Taupunkt:
Aussen-T/F 2901 03-08-2019 01:40:00 18.3 C 83 % 15.36 C
2902 03-08-2019 01:45:00 18.3 C 83 % 15.36 C
2903 03-08-2019 01:50:00 18.2 C 83 % 15.27 C
2904 03-08-2019 01:55:00 18.2 C 84 % 15.45 C
2905 03-08-2019 02:00:00 18.2 C 84 % 15.45 C
2906 03-08-2019 02:05:00 18.2 C 84 % 15.45 C
2907 03-08-2019 02:10:00 18.2 C 84 % 15.45 C
2908 03-08-2019 02:15:00 18.2 C 84 % 15.45 C
2909 03-08-2019 02:20:00 18.2 C 84 % 15.45 C
2910 03-08-2019 02:25:00 18.2 C 84 % 15.45 C
2911 03-08-2019 02:30:00 18.3 C 85 % 15.74 C
2912 03-08-2019 02:35:00 18.3 C 84 % 15.55 C
2913 03-08-2019 02:40:00 18.3 C 85 % 15.74 C
2914 03-08-2019 02:45:00 18.3 C 85 % 15.74 C
2915 03-08-2019 02:50:00 18.3 C 85 % 15.74 C
2916 03-08-2019 02:55:00 18.2 C 85 % 15.64 C
2917 03-08-2019 03:00:00 18.2 C 85 % 15.64 C
2918 03-08-2019 03:05:00 18.2 C 85 % 15.64 C
2919 03-08-2019 03:10:00 18.2 C 85 % 15.64 C
2920 03-08-2019 03:15:00 18.2 C 85 % 15.64 C
2921 03-08-2019 03:20:00 18.2 C 86 % 15.82 C
2922 03-08-2019 03:25:00 18.2 C 86 % 15.82 C
2923 03-08-2019 03:30:00 18.2 C 86 % 15.82 C
2924 03-08-2019 03:35:00 18.2 C 86 % 15.82 C
2925 03-08-2019 03:40:00 18.2 C 86 % 15.82 C
Sensor: Nr:Datum:Temp:Feuchte:Taupunkt:
Aussen-T/F 2926 03-08-2019 03:45:00 18.2 C 86 % 15.82 C
2927 03-08-2019 03:50:00 18.2 C 86 % 15.82 C
2928 03-08-2019 03:55:00 18.2 C 86 % 15.82 C
2929 03-08-2019 04:00:00 18.2 C 86 % 15.82 C
2930 03-08-2019 04:05:00 18.1 C 87 % 15.9 C
2931 03-08-2019 04:10:00 18.1 C 87 % 15.9 C
2932 03-08-2019 04:15:00 18.1 C 87 % 15.9 C
2933 03-08-2019 04:20:00 18.1 C 87 % 15.9 C
2934 03-08-2019 04:25:00 18.1 C 87 % 15.9 C
2935 03-08-2019 04:30:00 18.1 C 87 % 15.9 C
2936 03-08-2019 04:35:00 18.2 C 87 % 16 C
2937 03-08-2019 04:40:00 18.2 C 87 % 16 C
2938 03-08-2019 04:45:00 18.2 C 87 % 16 C
2939 03-08-2019 04:50:00 18.2 C 87 % 16 C
2940 03-08-2019 04:55:00 18.2 C 87 % 16 C
2941 03-08-2019 05:00:00 18.2 C 87 % 16 C
2942 03-08-2019 05:05:00 18.2 C 87 % 16 C
2943 03-08-2019 05:10:00 18.2 C 87 % 16 C
2944 03-08-2019 05:15:00 18.2 C 87 % 16 C
2945 03-08-2019 05:20:00 18.2 C 87 % 16 C
2946 03-08-2019 05:25:00 18.1 C 87 % 15.9 C
2947 03-08-2019 05:30:00 18.1 C 87 % 15.9 C
2948 03-08-2019 05:35:00 18.1 C 87 % 15.9 C
2949 03-08-2019 05:40:00 18.1 C 87 % 15.9 C
2950 03-08-2019 05:45:00 18.1 C 87 % 15.9 C
Sensor: Nr:Datum:Temp:Feuchte:Taupunkt:
Aussen-T/F 2951 03-08-2019 05:50:00 18.1 C 87 % 15.9 C
2952 03-08-2019 05:55:00 18.1 C 87 % 15.9 C
2953 03-08-2019 06:00:00 18 C 87 % 15.8 C
2954 03-08-2019 06:05:00 18 C 87 % 15.8 C
2955 03-08-2019 06:10:00 17.9 C 87 % 15.71 C
2956 03-08-2019 06:15:00 17.9 C 88 % 15.88 C
2957 03-08-2019 06:20:00 17.9 C 88 % 15.88 C
2958 03-08-2019 06:25:00 17.9 C 88 % 15.88 C
2959 03-08-2019 06:30:00 17.9 C 87 % 15.71 C
2960 03-08-2019 06:35:00 17.9 C 87 % 15.71 C
2961 03-08-2019 06:40:00 17.9 C 87 % 15.71 C
2962 03-08-2019 06:45:00 17.8 C 87 % 15.61 C
2963 03-08-2019 06:50:00 17.8 C 87 % 15.61 C
2964 03-08-2019 06:55:00 17.8 C 87 % 15.61 C
2965 03-08-2019 07:00:00 17.8 C 87 % 15.61 C
2966 03-08-2019 07:05:00 17.8 C 86 % 15.43 C
2967 03-08-2019 07:10:00 17.8 C 86 % 15.43 C
2968 03-08-2019 07:15:00 17.8 C 86 % 15.43 C
2969 03-08-2019 07:20:00 17.8 C 86 % 15.43 C
2970 03-08-2019 07:25:00 17.8 C 86 % 15.43 C
2971 03-08-2019 07:30:00 17.9 C 86 % 15.53 C
2972 03-08-2019 07:35:00 17.9 C 85 % 15.34 C
2973 03-08-2019 07:40:00 17.9 C 85 % 15.34 C
2974 03-08-2019 07:45:00 17.9 C 85 % 15.34 C
2975 03-08-2019 07:50:00 17.9 C 85 % 15.34 C
Sensor: Nr:Datum:Temp:Feuchte:Taupunkt:
Aussen-T/F 2976 03-08-2019 07:55:00 17.8 C 85 % 15.25 C
2977 03-08-2019 08:00:00 17.8 C 86 % 15.43 C
2978 03-08-2019 08:05:00 17.8 C 86 % 15.43 C
2979 03-08-2019 08:10:00 17.8 C 85 % 15.25 C
2980 03-08-2019 08:15:00 17.8 C 85 % 15.25 C
2981 03-08-2019 08:20:00 17.8 C 85 % 15.25 C
2982 03-08-2019 08:25:00 17.8 C 85 % 15.25 C
2983 03-08-2019 08:30:00 17.9 C 85 % 15.34 C
2984 03-08-2019 08:35:00 18 C 84 % 15.26 C
2985 03-08-2019 08:40:00 18.1 C 84 % 15.35 C
2986 03-08-2019 08:45:00 18.2 C 84 % 15.45 C
2987 03-08-2019 08:50:00 18.2 C 83 % 15.27 C
2988 03-08-2019 08:55:00 18.2 C 82 % 15.08 C
2989 03-08-2019 09:00:00 18.2 C 82 % 15.08 C
2990 03-08-2019 09:05:00 18.3 C 81 % 14.98 C
2991 03-08-2019 09:10:00 18.3 C 81 % 14.98 C
2992 03-08-2019 09:15:00 18.4 C 79 % 14.69 C
2993 03-08-2019 09:20:00 18.5 C 79 % 14.79 C
2994 03-08-2019 09:25:00 18.6 C 79 % 14.89 C
2995 03-08-2019 09:30:00 18.7 C 79 % 14.99 C
2996 03-08-2019 09:35:00 18.8 C 79 % 15.08 C
2997 03-08-2019 09:40:00 18.8 C 78 % 14.88 C
2998 03-08-2019 09:45:00 18.8 C 78 % 14.88 C
2999 03-08-2019 09:50:00 18.9 C 78 % 14.98 C
3000 03-08-2019 09:55:00 18.9 C 78 % 14.98 C
Sensor: Nr:Datum:Temp:Feuchte:Taupunkt:
Aussen-T/F 3001 03-08-2019 10:00:00 19.1 C 77 % 14.97 C
3002 03-08-2019 10:05:00 19.2 C 76 % 14.87 C
3003 03-08-2019 10:10:00 19.3 C 76 % 14.97 C
3004 03-08-2019 10:15:00 19.4 C 76 % 15.06 C
3005 03-08-2019 10:20:00 19.7 C 76 % 15.35 C
3006 03-08-2019 10:25:00 19.9 C 76 % 15.54 C
3007 03-08-2019 10:30:00 19.8 C 75 % 15.24 C
3008 03-08-2019 10:35:00 19.8 C 75 % 15.24 C
3009 03-08-2019 10:40:00 19.7 C 76 % 15.35 C
3010 03-08-2019 10:45:00 19.8 C 74 % 15.03 C
3011 03-08-2019 10:50:00 19.8 C 74 % 15.03 C
3012 03-08-2019 10:55:00 19.9 C 75 % 15.34 C
3013 03-08-2019 11:00:00 19.9 C 74 % 15.13 C
3014 03-08-2019 11:05:00 20 C 74 % 15.23 C
3015 03-08-2019 11:10:00 20 C 75 % 15.43 C
3016 03-08-2019 11:15:00 20.1 C 74 % 15.32 C
3017 03-08-2019 11:20:00 20.2 C 73 % 15.21 C
3018 03-08-2019 11:25:00 20.3 C 73 % 15.3 C
3019 03-08-2019 11:30:00 20.3 C 73 % 15.3 C
3020 03-08-2019 11:35:00 20.4 C 74 % 15.61 C
3021 03-08-2019 11:40:00 20.7 C 73 % 15.69 C
3022 03-08-2019 11:45:00 20.8 C 72 % 15.57 C
3023 03-08-2019 11:50:00 20.8 C 71 % 15.35 C
3024 03-08-2019 11:55:00 20.8 C 72 % 15.57 C
3025 03-08-2019 12:00:00 20.8 C 71 % 15.35 C
Sensor: Nr:Datum:Temp:Feuchte:Taupunkt:
Aussen-T/F 3026 03-08-2019 12:05:00 21 C 71 % 15.54 C
3027 03-08-2019 12:10:00 21.3 C 69 % 15.38 C
3028 03-08-2019 12:15:00 21.3 C 70 % 15.61 C
3029 03-08-2019 12:20:00 21.4 C 68 % 15.25 C
3030 03-08-2019 12:25:00 21.6 C 66 % 14.98 C
3031 03-08-2019 12:30:00 21.8 C 66 % 15.17 C
3032 03-08-2019 12:35:00 21.9 C 65 % 15.02 C
3033 03-08-2019 12:40:00 21.9 C 65 % 15.02 C
3034 03-08-2019 12:45:00 21.9 C 64 % 14.78 C
3035 03-08-2019 12:50:00 21.9 C 64 % 14.78 C
3036 03-08-2019 12:55:00 21.9 C 64 % 14.78 C
3037 03-08-2019 13:00:00 21.9 C 65 % 15.02 C
3038 03-08-2019 13:05:00 21.9 C 66 % 15.26 C
3039 03-08-2019 13:10:00 21.9 C 66 % 15.26 C
3040 03-08-2019 13:15:00 22.2 C 66 % 15.55 C
3041 03-08-2019 13:20:00 22.3 C 63 % 14.92 C
3042 03-08-2019 13:25:00 22.3 C 64 % 15.16 C
3043 03-08-2019 13:30:00 22.3 C 64 % 15.16 C
3044 03-08-2019 13:35:00 22.3 C 68 % 16.11 C
3045 03-08-2019 13:40:00 22 C 68 % 15.82 C
3046 03-08-2019 13:45:00 21.9 C 69 % 15.96 C
3047 03-08-2019 13:50:00 21.8 C 68 % 15.63 C
3048 03-08-2019 13:55:00 21.8 C 69 % 15.86 C
3049 03-08-2019 14:00:00 21.7 C 69 % 15.77 C
3050 03-08-2019 14:05:00 21.7 C 70 % 15.99 C
Sensor: Nr:Datum:Temp:Feuchte:Taupunkt:
Aussen-T/F 3051 03-08-2019 14:10:00 21.6 C 68 % 15.44 C
3052 03-08-2019 14:15:00 21.7 C 68 % 15.54 C
3053 03-08-2019 14:20:00 21.8 C 67 % 15.4 C
3054 03-08-2019 14:25:00 22 C 66 % 15.36 C
3055 03-08-2019 14:30:00 22.1 C 65 % 15.21 C
3056 03-08-2019 14:35:00 22.3 C 65 % 15.4 C
3057 03-08-2019 14:40:00 22.5 C 64 % 15.35 C
3058 03-08-2019 14:45:00 22.8 C 64 % 15.64 C
3059 03-08-2019 14:50:00 23.1 C 62 % 15.42 C
3060 03-08-2019 14:55:00 23.2 C 62 % 15.52 C
3061 03-08-2019 15:00:00 23.5 C 60 % 15.29 C
3062 03-08-2019 15:05:00 23.4 C 58 % 14.67 C
3063 03-08-2019 15:10:00 23.4 C 56 % 14.13 C
3064 03-08-2019 15:15:00 23.7 C 58 % 14.95 C
3065 03-08-2019 15:20:00 23.9 C 55 % 14.31 C
3066 03-08-2019 15:25:00 23.7 C 56 % 14.4 C
3067 03-08-2019 15:30:00 23.6 C 60 % 15.38 C
3068 03-08-2019 15:35:00 23.6 C 60 % 15.38 C
3069 03-08-2019 15:40:00 23.7 C 60 % 15.48 C
3070 03-08-2019 15:45:00 24.2 C 58 % 15.42 C
3071 03-08-2019 15:50:00 24.4 C 59 % 15.87 C
3072 03-08-2019 15:55:00 24.6 C 56 % 15.24 C
3073 03-08-2019 16:00:00 24.7 C 56 % 15.33 C
3074 03-08-2019 16:05:00 24.9 C 55 % 15.24 C
3075 03-08-2019 16:10:00 24.9 C 54 % 14.95 C
Sensor: Nr:Datum:Temp:Feuchte:Taupunkt:
Aussen-T/F 3076 03-08-2019 16:15:00 25 C 53 % 14.76 C
3077 03-08-2019 16:20:00 25.1 C 54 % 15.14 C
3078 03-08-2019 16:25:00 25.1 C 54 % 15.14 C
3079 03-08-2019 16:30:00 25.2 C 53 % 14.94 C
3080 03-08-2019 16:35:00 25.4 C 52 % 14.83 C
3081 03-08-2019 16:40:00 25.3 C 52 % 14.74 C
3082 03-08-2019 16:45:00 25.4 C 52 % 14.83 C
3083 03-08-2019 16:50:00 25.5 C 52 % 14.92 C
3084 03-08-2019 16:55:00 25.5 C 51 % 14.62 C
3085 03-08-2019 17:00:00 25.6 C 52 % 15.02 C
3086 03-08-2019 17:05:00 25.7 C 52 % 15.11 C
3087 03-08-2019 17:10:00 25.7 C 51 % 14.81 C
3088 03-08-2019 17:15:00 25.4 C 51 % 14.53 C
3089 03-08-2019 17:20:00 25.3 C 51 % 14.44 C
3090 03-08-2019 17:25:00 25.2 C 52 % 14.65 C
3091 03-08-2019 17:30:00 25.2 C 52 % 14.65 C
3092 03-08-2019 17:35:00 25.3 C 51 % 14.44 C
3093 03-08-2019 17:40:00 25.4 C 51 % 14.53 C
3094 03-08-2019 17:45:00 25.7 C 49 % 14.19 C
3095 03-08-2019 17:50:00 25.7 C 50 % 14.5 C
3096 03-08-2019 17:55:00 25.7 C 50 % 14.5 C
3097 03-08-2019 18:00:00 25.6 C 50 % 14.41 C
3098 03-08-2019 18:05:00 25.6 C 50 % 14.41 C
3099 03-08-2019 18:10:00 25.7 C 50 % 14.5 C
3100 03-08-2019 18:15:00 25.6 C 51 % 14.71 C
Sensor: Nr:Datum:Temp:Feuchte:Taupunkt:
Aussen-T/F 3101 03-08-2019 18:20:00 25.6 C 51 % 14.71 C
3102 03-08-2019 18:25:00 25.6 C 50 % 14.41 C
3103 03-08-2019 18:30:00 25.6 C 50 % 14.41 C
3104 03-08-2019 18:35:00 25.6 C 51 % 14.71 C
3105 03-08-2019 18:40:00 25.3 C 52 % 14.74 C
3106 03-08-2019 18:45:00 25.2 C 52 % 14.65 C
3107 03-08-2019 18:50:00 25.1 C 52 % 14.55 C
3108 03-08-2019 18:55:00 25.1 C 53 % 14.85 C
3109 03-08-2019 19:00:00 25.1 C 53 % 14.85 C
3110 03-08-2019 19:05:00 25.1 C 53 % 14.85 C
3111 03-08-2019 19:10:00 24.9 C 53 % 14.66 C
3112 03-08-2019 19:15:00 24.8 C 53 % 14.57 C
3113 03-08-2019 19:20:00 24.6 C 54 % 14.68 C
3114 03-08-2019 19:25:00 24.3 C 54 % 14.4 C
3115 03-08-2019 19:30:00 24.1 C 55 % 14.5 C
3116 03-08-2019 19:35:00 23.9 C 56 % 14.59 C
3117 03-08-2019 19:40:00 23.8 C 56 % 14.5 C
3118 03-08-2019 19:45:00 23.8 C 55 % 14.22 C
3119 03-08-2019 19:50:00 23.7 C 56 % 14.4 C
3120 03-08-2019 19:55:00 23.6 C 56 % 14.31 C
3121 03-08-2019 20:00:00 23.5 C 56 % 14.22 C
3122 03-08-2019 20:05:00 23.4 C 57 % 14.4 C
3123 03-08-2019 20:10:00 23.2 C 58 % 14.48 C
3124 03-08-2019 20:15:00 23 C 59 % 14.56 C
3125 03-08-2019 20:20:00 22.9 C 59 % 14.47 C
Sensor: Nr:Datum:Temp:Feuchte:Taupunkt:
Aussen-T/F 3126 03-08-2019 20:25:00 22.7 C 60 % 14.54 C
3127 03-08-2019 20:30:00 22.6 C 60 % 14.44 C
3128 03-08-2019 20:35:00 22.3 C 61 % 14.42 C
3129 03-08-2019 20:40:00 22.2 C 61 % 14.32 C
3130 03-08-2019 20:45:00 22 C 62 % 14.39 C
3131 03-08-2019 20:50:00 21.9 C 62 % 14.29 C
3132 03-08-2019 20:55:00 21.7 C 63 % 14.35 C
3133 03-08-2019 21:00:00 21.5 C 63 % 14.16 C
3134 03-08-2019 21:05:00 21.3 C 64 % 14.22 C
3135 03-08-2019 21:10:00 21.1 C 64 % 14.03 C
3136 03-08-2019 21:15:00 20.9 C 65 % 14.08 C
3137 03-08-2019 21:20:00 20.8 C 66 % 14.22 C
3138 03-08-2019 21:25:00 20.6 C 65 % 13.79 C
3139 03-08-2019 21:30:00 20.5 C 66 % 13.93 C
3140 03-08-2019 21:35:00 20.3 C 66 % 13.74 C
3141 03-08-2019 21:40:00 20.2 C 66 % 13.65 C
3142 03-08-2019 21:45:00 20.1 C 67 % 13.78 C
3143 03-08-2019 21:50:00 19.8 C 68 % 13.73 C
3144 03-08-2019 21:55:00 19.6 C 69 % 13.76 C
3145 03-08-2019 22:00:00 19.2 C 70 % 13.6 C
3146 03-08-2019 22:05:00 18.9 C 71 % 13.53 C
3147 03-08-2019 22:10:00 18.6 C 72 % 13.46 C
3148 03-08-2019 22:15:00 18.4 C 73 % 13.48 C
3149 03-08-2019 22:20:00 18.2 C 73 % 13.28 C
3150 03-08-2019 22:25:00 18.1 C 74 % 13.4 C
Sensor: Nr:Datum:Temp:Feuchte:Taupunkt:
Aussen-T/F 3151 03-08-2019 22:30:00 17.9 C 75 % 13.41 C
3152 03-08-2019 22:35:00 17.8 C 75 % 13.31 C
3153 03-08-2019 22:40:00 17.7 C 76 % 13.42 C
3154 03-08-2019 22:45:00 17.6 C 76 % 13.32 C
3155 03-08-2019 22:50:00 17.5 C 77 % 13.43 C
3156 03-08-2019 22:55:00 17.4 C 78 % 13.53 C
3157 03-08-2019 23:00:00 17.3 C 78 % 13.43 C
3158 03-08-2019 23:05:00 17.3 C 78 % 13.43 C
3159 03-08-2019 23:10:00 17.2 C 79 % 13.53 C
3160 03-08-2019 23:15:00 17.2 C 79 % 13.53 C
3161 03-08-2019 23:20:00 17.1 C 80 % 13.62 C
3162 03-08-2019 23:25:00 17.1 C 80 % 13.62 C
3163 03-08-2019 23:30:00 17.1 C 80 % 13.62 C
3164 03-08-2019 23:35:00 17 C 79 % 13.33 C
3165 03-08-2019 23:40:00 16.9 C 79 % 13.24 C
3166 03-08-2019 23:45:00 16.9 C 80 % 13.43 C
3167 03-08-2019 23:50:00 16.8 C 80 % 13.33 C
3168 03-08-2019 23:55:00 16.7 C 80 % 13.23 C
3169 04-08-2019 00:00:00 16.7 C 80 % 13.23 C
3170 04-08-2019 00:05:00 16.6 C 81 % 13.33 C
3171 04-08-2019 00:10:00 16.5 C 81 % 13.23 C
3172 04-08-2019 00:15:00 16.4 C 81 % 13.13 C
3173 04-08-2019 00:20:00 16.3 C 81 % 13.04 C
3174 04-08-2019 00:25:00 16.3 C 81 % 13.04 C
3175 04-08-2019 00:30:00 16.2 C 82 % 13.13 C
Sensor: Nr:Datum:Temp:Feuchte:Taupunkt:
Aussen-T/F 3176 04-08-2019 00:35:00 16.1 C 83 % 13.21 C
3177 04-08-2019 00:40:00 16.1 C 83 % 13.21 C
3178 04-08-2019 00:45:00 15.9 C 83 % 13.02 C
3179 04-08-2019 00:50:00 15.8 C 83 % 12.92 C
3180 04-08-2019 00:55:00 15.8 C 83 % 12.92 C
3181 04-08-2019 01:00:00 15.7 C 84 % 13.01 C
3182 04-08-2019 01:05:00 15.6 C 84 % 12.91 C
3183 04-08-2019 01:10:00 15.6 C 84 % 12.91 C
3184 04-08-2019 01:15:00 15.4 C 85 % 12.89 C
3185 04-08-2019 01:20:00 15.3 C 85 % 12.79 C
3186 04-08-2019 01:25:00 15.2 C 85 % 12.7 C
3187 04-08-2019 01:30:00 15.1 C 86 % 12.78 C
3188 04-08-2019 01:35:00 14.9 C 86 % 12.58 C
3189 04-08-2019 01:40:00 14.8 C 86 % 12.48 C
3190 04-08-2019 01:45:00 14.7 C 87 % 12.56 C
3191 04-08-2019 01:50:00 14.6 C 87 % 12.46 C
3192 04-08-2019 01:55:00 14.6 C 87 % 12.46 C
3193 04-08-2019 02:00:00 14.4 C 87 % 12.27 C
3194 04-08-2019 02:05:00 14.3 C 88 % 12.34 C
3195 04-08-2019 02:10:00 14.3 C 88 % 12.34 C
3196 04-08-2019 02:15:00 14.2 C 88 % 12.24 C
3197 04-08-2019 02:20:00 14.1 C 88 % 12.14 C
3198 04-08-2019 02:25:00 14 C 89 % 12.22 C
3199 04-08-2019 02:30:00 13.9 C 89 % 12.12 C
3200 04-08-2019 02:35:00 13.9 C 89 % 12.12 C
Sensor: Nr:Datum:Temp:Feuchte:Taupunkt:
Aussen-T/F 3201 04-08-2019 02:40:00 13.8 C 90 % 12.19 C
3202 04-08-2019 02:45:00 13.7 C 89 % 11.92 C
3203 04-08-2019 02:50:00 13.7 C 90 % 12.09 C
3204 04-08-2019 02:55:00 13.7 C 90 % 12.09 C
3205 04-08-2019 03:00:00 13.6 C 90 % 11.99 C
3206 04-08-2019 03:05:00 13.5 C 90 % 11.89 C
3207 04-08-2019 03:10:00 13.4 C 90 % 11.79 C
3208 04-08-2019 03:15:00 13.3 C 91 % 11.86 C
3209 04-08-2019 03:20:00 13.3 C 91 % 11.86 C
3210 04-08-2019 03:25:00 13.3 C 91 % 11.86 C
3211 04-08-2019 03:30:00 13.3 C 91 % 11.86 C
3212 04-08-2019 03:35:00 13.2 C 91 % 11.76 C
3213 04-08-2019 03:40:00 13.2 C 91 % 11.76 C
3214 04-08-2019 03:45:00 13.2 C 91 % 11.76 C
3215 04-08-2019 03:50:00 13.2 C 92 % 11.93 C
3216 04-08-2019 03:55:00 13.1 C 92 % 11.83 C
3217 04-08-2019 04:00:00 13.1 C 92 % 11.83 C
3218 04-08-2019 04:05:00 13.1 C 92 % 11.83 C
3219 04-08-2019 04:10:00 12.9 C 91 % 11.47 C
3220 04-08-2019 04:15:00 12.9 C 92 % 11.63 C
3221 04-08-2019 04:20:00 12.9 C 92 % 11.63 C
3222 04-08-2019 04:25:00 12.9 C 92 % 11.63 C
3223 04-08-2019 04:30:00 12.9 C 93 % 11.8 C
3224 04-08-2019 04:35:00 12.9 C 92 % 11.63 C
3225 04-08-2019 04:40:00 12.8 C 92 % 11.53 C
Sensor: Nr:Datum:Temp:Feuchte:Taupunkt:
Aussen-T/F 3226 04-08-2019 04:45:00 12.8 C 92 % 11.53 C
3227 04-08-2019 04:50:00 12.7 C 93 % 11.6 C
3228 04-08-2019 04:55:00 12.7 C 92 % 11.43 C
3229 04-08-2019 05:00:00 12.7 C 93 % 11.6 C
3230 04-08-2019 05:05:00 12.7 C 93 % 11.6 C
3231 04-08-2019 05:10:00 12.6 C 93 % 11.5 C
3232 04-08-2019 05:15:00 12.6 C 93 % 11.5 C
3233 04-08-2019 05:20:00 12.6 C 93 % 11.5 C
3234 04-08-2019 05:25:00 12.5 C 93 % 11.4 C
3235 04-08-2019 05:30:00 12.4 C 93 % 11.3 C
3236 04-08-2019 05:35:00 12.4 C 93 % 11.3 C
3237 04-08-2019 05:40:00 12.4 C 93 % 11.3 C
3238 04-08-2019 05:45:00 12.4 C 93 % 11.3 C
3239 04-08-2019 05:50:00 12.3 C 93 % 11.2 C
3240 04-08-2019 05:55:00 12.3 C 93 % 11.2 C
3241 04-08-2019 06:00:00 12.3 C 93 % 11.2 C
3242 04-08-2019 06:05:00 12.3 C 94 % 11.36 C
3243 04-08-2019 06:10:00 12.3 C 93 % 11.2 C
3244 04-08-2019 06:15:00 12.2 C 94 % 11.26 C
3245 04-08-2019 06:20:00 12.3 C 94 % 11.36 C
3246 04-08-2019 06:25:00 12.3 C 94 % 11.36 C
3247 04-08-2019 06:30:00 12.3 C 94 % 11.36 C
3248 04-08-2019 06:35:00 12.3 C 94 % 11.36 C
3249 04-08-2019 06:40:00 12.4 C 94 % 11.46 C
3250 04-08-2019 06:45:00 12.4 C 94 % 11.46 C
Sensor: Nr:Datum:Temp:Feuchte:Taupunkt:
Aussen-T/F 3251 04-08-2019 06:50:00 12.5 C 94 % 11.56 C
3252 04-08-2019 06:55:00 12.5 C 94 % 11.56 C
3253 04-08-2019 07:00:00 12.5 C 94 % 11.56 C
3254 04-08-2019 07:05:00 12.5 C 94 % 11.56 C
3255 04-08-2019 07:10:00 12.5 C 94 % 11.56 C
3256 04-08-2019 07:15:00 12.6 C 94 % 11.66 C
3257 04-08-2019 07:20:00 12.6 C 94 % 11.66 C
3258 04-08-2019 07:25:00 12.7 C 94 % 11.76 C
3259 04-08-2019 07:30:00 12.7 C 94 % 11.76 C
3260 04-08-2019 07:35:00 12.8 C 95 % 12.02 C
3261 04-08-2019 07:40:00 12.8 C 95 % 12.02 C
3262 04-08-2019 07:45:00 12.9 C 95 % 12.12 C
3263 04-08-2019 07:50:00 13 C 95 % 12.22 C
3264 04-08-2019 07:55:00 13.1 C 95 % 12.32 C
3265 04-08-2019 08:00:00 13.2 C 95 % 12.42 C
3266 04-08-2019 08:05:00 13.3 C 95 % 12.52 C
3267 04-08-2019 08:10:00 13.4 C 95 % 12.62 C
3268 04-08-2019 08:15:00 13.4 C 95 % 12.62 C
3269 04-08-2019 08:20:00 13.6 C 95 % 12.81 C
3270 04-08-2019 08:25:00 13.7 C 95 % 12.91 C
3271 04-08-2019 08:30:00 13.8 C 95 % 13.01 C
3272 04-08-2019 08:35:00 13.8 C 95 % 13.01 C
3273 04-08-2019 08:40:00 14 C 95 % 13.21 C
3274 04-08-2019 08:45:00 14.1 C 95 % 13.31 C
3275 04-08-2019 08:50:00 14.2 C 95 % 13.41 C
Sensor: Nr:Datum:Temp:Feuchte:Taupunkt:
Aussen-T/F 3276 04-08-2019 08:55:00 14.3 C 95 % 13.51 C
3277 04-08-2019 09:00:00 14.5 C 95 % 13.71 C
3278 04-08-2019 09:05:00 14.7 C 94 % 13.74 C
3279 04-08-2019 09:10:00 14.8 C 94 % 13.84 C
3280 04-08-2019 09:15:00 14.9 C 94 % 13.94 C
3281 04-08-2019 09:20:00 15.1 C 94 % 14.14 C
3282 04-08-2019 09:25:00 15.2 C 94 % 14.24 C
3283 04-08-2019 09:30:00 15.3 C 93 % 14.18 C
3284 04-08-2019 09:35:00 15.6 C 93 % 14.47 C
3285 04-08-2019 09:40:00 15.7 C 92 % 14.4 C
3286 04-08-2019 09:45:00 15.9 C 92 % 14.6 C
3287 04-08-2019 09:50:00 16.1 C 91 % 14.63 C
3288 04-08-2019 09:55:00 16.3 C 91 % 14.83 C
3289 04-08-2019 10:00:00 16.6 C 90 % 14.95 C
3290 04-08-2019 10:05:00 16.8 C 89 % 14.98 C
3291 04-08-2019 10:10:00 17 C 89 % 15.17 C
3292 04-08-2019 10:15:00 17.2 C 88 % 15.2 C
3293 04-08-2019 10:20:00 17.4 C 87 % 15.21 C
3294 04-08-2019 10:25:00 17.8 C 84 % 15.06 C
3295 04-08-2019 10:30:00 18.2 C 82 % 15.08 C
3296 04-08-2019 10:35:00 18.6 C 83 % 15.66 C
3297 04-08-2019 10:40:00 18.8 C 80 % 15.28 C
3298 04-08-2019 10:45:00 19.2 C 77 % 15.07 C
3299 04-08-2019 10:50:00 19.7 C 76 % 15.35 C
3300 04-08-2019 10:55:00 20 C 75 % 15.43 C
Sensor: Nr:Datum:Temp:Feuchte:Taupunkt:
Aussen-T/F 3301 04-08-2019 11:00:00 20.3 C 73 % 15.3 C
3302 04-08-2019 11:05:00 20.6 C 71 % 15.16 C
3303 04-08-2019 11:10:00 20.7 C 71 % 15.25 C
3304 04-08-2019 11:15:00 20.9 C 69 % 15 C
3305 04-08-2019 11:20:00 21.2 C 69 % 15.29 C
3306 04-08-2019 11:25:00 21.3 C 67 % 14.93 C
3307 04-08-2019 11:30:00 21.4 C 66 % 14.79 C
3308 04-08-2019 11:35:00 21.6 C 66 % 14.98 C
3309 04-08-2019 11:40:00 21.7 C 65 % 14.84 C
3310 04-08-2019 11:45:00 21.8 C 65 % 14.93 C
3311 04-08-2019 11:50:00 22 C 65 % 15.12 C
3312 04-08-2019 11:55:00 22.3 C 63 % 14.92 C
3313 04-08-2019 12:00:00 22.4 C 63 % 15.01 C
3314 04-08-2019 12:05:00 22.6 C 62 % 14.95 C
3315 04-08-2019 12:10:00 22.8 C 61 % 14.89 C
3316 04-08-2019 12:15:00 22.8 C 61 % 14.89 C
3317 04-08-2019 12:20:00 22.9 C 61 % 14.98 C
3318 04-08-2019 12:25:00 23.1 C 62 % 15.42 C
3319 04-08-2019 12:30:00 23.3 C 60 % 15.1 C
3320 04-08-2019 12:35:00 23.5 C 59 % 15.03 C
3321 04-08-2019 12:40:00 23.7 C 58 % 14.95 C
3322 04-08-2019 12:45:00 24 C 57 % 14.96 C
3323 04-08-2019 12:50:00 24.2 C 55 % 14.59 C
3324 04-08-2019 12:55:00 24.3 C 55 % 14.68 C
3325 04-08-2019 13:00:00 24.4 C 55 % 14.78 C
Sensor: Nr:Datum:Temp:Feuchte:Taupunkt:
Aussen-T/F 3326 04-08-2019 13:05:00 24.4 C 55 % 14.78 C
3327 04-08-2019 13:10:00 24.4 C 56 % 15.06 C
3328 04-08-2019 13:15:00 24.5 C 56 % 15.15 C
3329 04-08-2019 13:20:00 24.7 C 55 % 15.05 C
3330 04-08-2019 13:25:00 24.7 C 54 % 14.77 C
3331 04-08-2019 13:30:00 24.8 C 53 % 14.57 C
3332 04-08-2019 13:35:00 24.8 C 53 % 14.57 C
3333 04-08-2019 13:40:00 25 C 52 % 14.46 C
3334 04-08-2019 13:45:00 25.1 C 53 % 14.85 C
3335 04-08-2019 13:50:00 25.1 C 51 % 14.25 C
3336 04-08-2019 13:55:00 25.1 C 51 % 14.25 C
3337 04-08-2019 14:00:00 25.1 C 52 % 14.55 C
3338 04-08-2019 14:05:00 25.2 C 52 % 14.65 C
3339 04-08-2019 14:10:00 25.4 C 50 % 14.22 C
3340 04-08-2019 14:15:00 25.6 C 50 % 14.41 C
3341 04-08-2019 14:20:00 25.6 C 50 % 14.41 C
3342 04-08-2019 14:25:00 25.7 C 49 % 14.19 C
3343 04-08-2019 14:30:00 25.9 C 48 % 14.05 C
3344 04-08-2019 14:35:00 26.2 C 48 % 14.32 C
3345 04-08-2019 14:40:00 26.3 C 46 % 13.76 C
3346 04-08-2019 14:45:00 26.4 C 45 % 13.51 C
3347 04-08-2019 14:50:00 26.4 C 46 % 13.85 C
3348 04-08-2019 14:55:00 26.6 C 47 % 14.36 C
3349 04-08-2019 15:00:00 26.8 C 46 % 14.21 C
3350 04-08-2019 15:05:00 26.9 C 44 % 13.62 C
Sensor: Nr:Datum:Temp:Feuchte:Taupunkt:
Aussen-T/F 3351 04-08-2019 15:10:00 27.2 C 42 % 13.18 C
3352 04-08-2019 15:15:00 27.3 C 44 % 13.98 C
3353 04-08-2019 15:20:00 27.6 C 43 % 13.9 C
3354 04-08-2019 15:25:00 28.1 C 41 % 13.61 C
3355 04-08-2019 15:30:00 28.3 C 39 % 13.02 C
3356 04-08-2019 15:35:00 28.6 C 39 % 13.29 C
3357 04-08-2019 15:40:00 29 C 39 % 13.65 C
3358 04-08-2019 15:45:00 29.4 C 37 % 13.19 C
3359 04-08-2019 15:50:00 29.7 C 37 % 13.46 C
3360 04-08-2019 15:55:00 29.8 C 37 % 13.54 C
3361 04-08-2019 16:00:00 29.9 C 35 % 12.78 C
3362 04-08-2019 16:05:00 30.1 C 36 % 13.39 C
3363 04-08-2019 16:10:00 30.2 C 35 % 13.04 C
3364 04-08-2019 16:15:00 30.2 C 35 % 13.04 C
3365 04-08-2019 16:20:00 30.2 C 36 % 13.48 C
3366 04-08-2019 16:25:00 29.8 C 35 % 12.69 C
3367 04-08-2019 16:30:00 29.7 C 37 % 13.46 C
3368 04-08-2019 16:35:00 29.9 C 35 % 12.78 C
3369 04-08-2019 16:40:00 30.1 C 33 % 12.06 C
3370 04-08-2019 16:45:00 30.1 C 32 % 11.59 C
3371 04-08-2019 16:50:00 30.1 C 32 % 11.59 C
3372 04-08-2019 16:55:00 30.1 C 33 % 12.06 C
3373 04-08-2019 17:00:00 30.2 C 34 % 12.6 C
3374 04-08-2019 17:05:00 30.4 C 32 % 11.85 C
3375 04-08-2019 17:10:00 30.7 C 33 % 12.58 C
Sensor: Nr:Datum:Temp:Feuchte:Taupunkt:
Aussen-T/F 3376 04-08-2019 17:15:00 30.9 C 32 % 12.29 C
3377 04-08-2019 17:20:00 31 C 32 % 12.37 C
3378 04-08-2019 17:25:00 31.1 C 32 % 12.46 C
3379 04-08-2019 17:30:00 31.2 C 32 % 12.55 C
3380 04-08-2019 17:35:00 31.2 C 32 % 12.55 C
3381 04-08-2019 17:40:00 31.3 C 31 % 12.15 C
3382 04-08-2019 17:45:00 31.3 C 31 % 12.15 C
3383 04-08-2019 17:50:00 31.2 C 31 % 12.06 C
3384 04-08-2019 17:55:00 31 C 33 % 12.84 C
3385 04-08-2019 18:00:00 30.8 C 34 % 13.13 C
3386 04-08-2019 18:05:00 30.8 C 33 % 12.67 C
3387 04-08-2019 18:10:00 30.7 C 34 % 13.04 C
3388 04-08-2019 18:15:00 30.7 C 34 % 13.04 C
3389 04-08-2019 18:20:00 30.8 C 34 % 13.13 C
3390 04-08-2019 18:25:00 31.2 C 34 % 13.47 C
3391 04-08-2019 18:30:00 31.2 C 35 % 13.92 C
3392 04-08-2019 18:35:00 31 C 34 % 13.3 C
3393 04-08-2019 18:40:00 30.7 C 34 % 13.04 C
3394 04-08-2019 18:45:00 30.6 C 33 % 12.5 C
3395 04-08-2019 18:50:00 30.6 C 33 % 12.5 C
3396 04-08-2019 18:55:00 30.4 C 33 % 12.32 C
3397 04-08-2019 19:00:00 30.2 C 34 % 12.6 C
3398 04-08-2019 19:05:00 29.8 C 35 % 12.69 C
3399 04-08-2019 19:10:00 29.5 C 35 % 12.43 C
3400 04-08-2019 19:15:00 29.3 C 39 % 13.91 C
Sensor: Nr:Datum:Temp:Feuchte:Taupunkt:
Aussen-T/F 3401 04-08-2019 19:20:00 29.2 C 38 % 13.42 C
3402 04-08-2019 19:25:00 28.9 C 41 % 14.33 C
3403 04-08-2019 19:30:00 28.8 C 44 % 15.33 C
3404 04-08-2019 19:35:00 28.5 C 43 % 14.71 C
3405 04-08-2019 19:40:00 28.2 C 49 % 16.47 C
3406 04-08-2019 19:45:00 27.8 C 46 % 15.12 C
3407 04-08-2019 19:50:00 27.6 C 48 % 15.6 C
3408 04-08-2019 19:55:00 27.3 C 48 % 15.33 C
3409 04-08-2019 20:00:00 27.1 C 48 % 15.15 C
3410 04-08-2019 20:05:00 26.8 C 48 % 14.87 C
3411 04-08-2019 20:10:00 26.7 C 51 % 15.72 C
3412 04-08-2019 20:15:00 26.6 C 50 % 15.32 C
3413 04-08-2019 20:20:00 26.3 C 51 % 15.36 C
3414 04-08-2019 20:25:00 26.1 C 51 % 15.17 C
3415 04-08-2019 20:30:00 25.8 C 52 % 15.2 C
3416 04-08-2019 20:35:00 25.5 C 53 % 15.22 C
3417 04-08-2019 20:40:00 25.1 C 53 % 14.85 C
3418 04-08-2019 20:45:00 24.8 C 55 % 15.15 C
3419 04-08-2019 20:50:00 24.4 C 55 % 14.78 C
3420 04-08-2019 20:55:00 24.2 C 56 % 14.87 C
3421 04-08-2019 21:00:00 23.8 C 56 % 14.5 C
3422 04-08-2019 21:05:00 23.5 C 57 % 14.49 C
3423 04-08-2019 21:10:00 23.2 C 58 % 14.48 C
3424 04-08-2019 21:15:00 22.9 C 59 % 14.47 C
3425 04-08-2019 21:20:00 22.6 C 60 % 14.44 C
Sensor: Nr:Datum:Temp:Feuchte:Taupunkt:
Aussen-T/F 3426 04-08-2019 21:25:00 22.4 C 61 % 14.51 C
3427 04-08-2019 21:30:00 22.2 C 61 % 14.32 C
3428 04-08-2019 21:35:00 22.1 C 61 % 14.23 C
3429 04-08-2019 21:40:00 22 C 62 % 14.39 C
3430 04-08-2019 21:45:00 21.9 C 62 % 14.29 C
3431 04-08-2019 21:50:00 21.8 C 63 % 14.45 C
3432 04-08-2019 21:55:00 21.8 C 64 % 14.69 C
3433 04-08-2019 22:00:00 21.8 C 64 % 14.69 C
3434 04-08-2019 22:05:00 21.7 C 64 % 14.6 C
3435 04-08-2019 22:10:00 21.8 C 64 % 14.69 C
3436 04-08-2019 22:15:00 21.8 C 63 % 14.45 C
3437 04-08-2019 22:20:00 21.8 C 63 % 14.45 C
3438 04-08-2019 22:25:00 22 C 63 % 14.63 C
3439 04-08-2019 22:30:00 22.1 C 64 % 14.97 C
3440 04-08-2019 22:35:00 22.1 C 63 % 14.73 C
3441 04-08-2019 22:40:00 22.1 C 64 % 14.97 C
3442 04-08-2019 22:45:00 22.1 C 64 % 14.97 C
3443 04-08-2019 22:50:00 22.1 C 64 % 14.97 C
3444 04-08-2019 22:55:00 22.1 C 64 % 14.97 C
3445 04-08-2019 23:00:00 22.1 C 64 % 14.97 C
3446 04-08-2019 23:05:00 22.1 C 63 % 14.73 C
3447 04-08-2019 23:10:00 22.2 C 63 % 14.82 C
3448 04-08-2019 23:15:00 22.3 C 63 % 14.92 C
3449 04-08-2019 23:20:00 22.3 C 62 % 14.67 C
3450 04-08-2019 23:25:00 22.3 C 61 % 14.42 C
Sensor: Nr:Datum:Temp:Feuchte:Taupunkt:
Aussen-T/F 3451 04-08-2019 23:30:00 22.4 C 61 % 14.51 C
3452 04-08-2019 23:35:00 22.4 C 60 % 14.26 C
3453 04-08-2019 23:40:00 22.5 C 60 % 14.35 C
3454 04-08-2019 23:45:00 22.6 C 59 % 14.18 C
3455 04-08-2019 23:50:00 22.7 C 60 % 14.54 C
3456 04-08-2019 23:55:00 22.8 C 59 % 14.37 C
3457 05-08-2019 00:00:00 22.8 C 59 % 14.37 C
3458 05-08-2019 00:05:00 22.9 C 58 % 14.2 C
3459 05-08-2019 00:10:00 22.9 C 57 % 13.93 C
3460 05-08-2019 00:15:00 22.9 C 58 % 14.2 C
3461 05-08-2019 00:20:00 23 C 57 % 14.03 C
3462 05-08-2019 00:25:00 23 C 58 % 14.29 C
3463 05-08-2019 00:30:00 22.9 C 57 % 13.93 C
3464 05-08-2019 00:35:00 22.9 C 56 % 13.66 C
3465 05-08-2019 00:40:00 22.9 C 57 % 13.93 C
3466 05-08-2019 00:45:00 22.8 C 59 % 14.37 C
3467 05-08-2019 00:50:00 22.8 C 58 % 14.11 C
3468 05-08-2019 00:55:00 22.7 C 60 % 14.54 C
3469 05-08-2019 01:00:00 22.6 C 60 % 14.44 C
3470 05-08-2019 01:05:00 22.3 C 61 % 14.42 C
3471 05-08-2019 01:10:00 22.1 C 61 % 14.23 C
3472 05-08-2019 01:15:00 21.9 C 62 % 14.29 C
3473 05-08-2019 01:20:00 21.8 C 62 % 14.2 C
3474 05-08-2019 01:25:00 21.7 C 62 % 14.1 C
3475 05-08-2019 01:30:00 21.6 C 63 % 14.26 C
Sensor: Nr:Datum:Temp:Feuchte:Taupunkt:
Aussen-T/F 3476 05-08-2019 01:35:00 21.4 C 63 % 14.07 C
3477 05-08-2019 01:40:00 21.3 C 63 % 13.97 C
3478 05-08-2019 01:45:00 21.2 C 64 % 14.12 C
3479 05-08-2019 01:50:00 21.1 C 64 % 14.03 C
3480 05-08-2019 01:55:00 20.9 C 64 % 13.84 C
3481 05-08-2019 02:00:00 20.8 C 64 % 13.74 C
3482 05-08-2019 02:05:00 20.7 C 65 % 13.89 C
3483 05-08-2019 02:10:00 20.6 C 66 % 14.03 C
3484 05-08-2019 02:15:00 20.4 C 66 % 13.84 C
3485 05-08-2019 02:20:00 20.3 C 67 % 13.97 C
3486 05-08-2019 02:25:00 20.3 C 67 % 13.97 C
3487 05-08-2019 02:30:00 20.2 C 67 % 13.88 C
3488 05-08-2019 02:35:00 20.2 C 68 % 14.11 C
3489 05-08-2019 02:40:00 20.1 C 68 % 14.01 C
3490 05-08-2019 02:45:00 20 C 68 % 13.92 C
3491 05-08-2019 02:50:00 19.9 C 68 % 13.82 C
3492 05-08-2019 02:55:00 19.9 C 68 % 13.82 C
3493 05-08-2019 03:00:00 19.8 C 68 % 13.73 C
3494 05-08-2019 03:05:00 19.8 C 69 % 13.95 C
3495 05-08-2019 03:10:00 19.8 C 69 % 13.95 C
3496 05-08-2019 03:15:00 19.7 C 69 % 13.86 C
3497 05-08-2019 03:20:00 19.7 C 70 % 14.08 C
3498 05-08-2019 03:25:00 19.6 C 69 % 13.76 C
3499 05-08-2019 03:30:00 19.6 C 70 % 13.98 C
3500 05-08-2019 03:35:00 19.5 C 70 % 13.89 C
Sensor: Nr:Datum:Temp:Feuchte:Taupunkt:
Aussen-T/F 3501 05-08-2019 03:40:00 19.4 C 70 % 13.79 C
3502 05-08-2019 03:45:00 19.4 C 71 % 14.01 C
3503 05-08-2019 03:50:00 19.4 C 70 % 13.79 C
3504 05-08-2019 03:55:00 19.5 C 71 % 14.1 C
3505 05-08-2019 04:00:00 19.6 C 73 % 14.63 C
3506 05-08-2019 04:05:00 19.6 C 74 % 14.84 C
3507 05-08-2019 04:10:00 19.6 C 76 % 15.26 C
3508 05-08-2019 04:15:00 19.5 C 76 % 15.16 C
3509 05-08-2019 04:20:00 19.3 C 76 % 14.97 C
3510 05-08-2019 04:25:00 19.3 C 75 % 14.76 C
3511 05-08-2019 04:30:00 19.2 C 77 % 15.07 C
3512 05-08-2019 04:35:00 19.2 C 77 % 15.07 C
3513 05-08-2019 04:40:00 19.1 C 76 % 14.77 C
3514 05-08-2019 04:45:00 19.1 C 76 % 14.77 C
3515 05-08-2019 04:50:00 19.1 C 76 % 14.77 C
3516 05-08-2019 04:55:00 19.2 C 77 % 15.07 C
3517 05-08-2019 05:00:00 19.3 C 78 % 15.37 C
3518 05-08-2019 05:05:00 19.3 C 78 % 15.37 C
3519 05-08-2019 05:10:00 19.3 C 77 % 15.17 C
3520 05-08-2019 05:15:00 19.3 C 77 % 15.17 C
3521 05-08-2019 05:20:00 19.3 C 77 % 15.17 C
3522 05-08-2019 05:25:00 19.3 C 77 % 15.17 C
3523 05-08-2019 05:30:00 19.2 C 76 % 14.87 C
3524 05-08-2019 05:35:00 19.3 C 76 % 14.97 C
3525 05-08-2019 05:40:00 19.4 C 77 % 15.27 C
Sensor: Nr:Datum:Temp:Feuchte:Taupunkt:
Aussen-T/F 3526 05-08-2019 05:45:00 19.5 C 80 % 15.96 C
3527 05-08-2019 05:50:00 19.4 C 81 % 16.06 C
3528 05-08-2019 05:55:00 19.3 C 82 % 16.15 C
3529 05-08-2019 06:00:00 19.1 C 83 % 16.15 C
3530 05-08-2019 06:05:00 18.8 C 84 % 16.04 C
3531 05-08-2019 06:10:00 18.6 C 85 % 16.03 C
3532 05-08-2019 06:15:00 18.4 C 86 % 16.02 C
3533 05-08-2019 06:20:00 18.3 C 86 % 15.92 C
3534 05-08-2019 06:25:00 18.2 C 87 % 16 C
3535 05-08-2019 06:30:00 18.2 C 88 % 16.18 C
3536 05-08-2019 06:35:00 18.1 C 89 % 16.26 C
3537 05-08-2019 06:40:00 18.1 C 89 % 16.26 C
3538 05-08-2019 06:45:00 17.9 C 90 % 16.24 C
3539 05-08-2019 06:50:00 17.9 C 90 % 16.24 C
3540 05-08-2019 06:55:00 17.8 C 91 % 16.31 C
3541 05-08-2019 07:00:00 17.8 C 91 % 16.31 C
3542 05-08-2019 07:05:00 17.7 C 91 % 16.21 C
3543 05-08-2019 07:10:00 17.7 C 92 % 16.38 C
3544 05-08-2019 07:15:00 17.6 C 92 % 16.28 C
3545 05-08-2019 07:20:00 17.6 C 92 % 16.28 C
3546 05-08-2019 07:25:00 17.6 C 92 % 16.28 C
3547 05-08-2019 07:30:00 17.6 C 93 % 16.45 C
3548 05-08-2019 07:35:00 17.5 C 93 % 16.36 C
3549 05-08-2019 07:40:00 17.4 C 93 % 16.26 C
3550 05-08-2019 07:45:00 17.3 C 93 % 16.16 C
Sensor: Nr:Datum:Temp:Feuchte:Taupunkt:
Aussen-T/F 3551 05-08-2019 07:50:00 17.3 C 93 % 16.16 C
3552 05-08-2019 07:55:00 17.3 C 93 % 16.16 C
3553 05-08-2019 08:00:00 17.3 C 94 % 16.33 C
3554 05-08-2019 08:05:00 17.3 C 94 % 16.33 C
3555 05-08-2019 08:10:00 17.4 C 94 % 16.42 C
3556 05-08-2019 08:15:00 17.4 C 94 % 16.42 C
3557 05-08-2019 08:20:00 17.6 C 94 % 16.62 C
3558 05-08-2019 08:25:00 17.6 C 94 % 16.62 C
3559 05-08-2019 08:30:00 17.6 C 95 % 16.79 C
3560 05-08-2019 08:35:00 17.8 C 95 % 16.99 C
3561 05-08-2019 08:40:00 17.8 C 95 % 16.99 C
3562 05-08-2019 08:45:00 17.9 C 95 % 17.09 C
3563 05-08-2019 08:50:00 17.9 C 95 % 17.09 C
3564 05-08-2019 08:55:00 18.1 C 95 % 17.29 C
3565 05-08-2019 09:00:00 18.1 C 95 % 17.29 C
3566 05-08-2019 09:05:00 18.2 C 95 % 17.39 C
3567 05-08-2019 09:10:00 18.3 C 95 % 17.48 C
3568 05-08-2019 09:15:00 18.5 C 95 % 17.68 C
3569 05-08-2019 09:20:00 18.7 C 96 % 18.05 C
3570 05-08-2019 09:25:00 18.8 C 95 % 17.98 C
3571 05-08-2019 09:30:00 18.8 C 95 % 17.98 C
3572 05-08-2019 09:35:00 18.9 C 95 % 18.08 C
3573 05-08-2019 09:40:00 19.1 C 95 % 18.28 C
3574 05-08-2019 09:45:00 19.2 C 95 % 18.38 C
3575 05-08-2019 09:50:00 19.2 C 94 % 18.21 C
Sensor: Nr:Datum:Temp:Feuchte:Taupunkt:
Aussen-T/F 3576 05-08-2019 09:55:00 19.2 C 94 % 18.21 C
3577 05-08-2019 10:00:00 19.4 C 94 % 18.41 C
3578 05-08-2019 10:05:00 19.6 C 94 % 18.61 C
3579 05-08-2019 10:10:00 19.7 C 94 % 18.71 C
3580 05-08-2019 10:15:00 19.8 C 93 % 18.63 C
3581 05-08-2019 10:20:00 19.9 C 94 % 18.91 C
3582 05-08-2019 10:25:00 20.1 C 94 % 19.1 C
3583 05-08-2019 10:30:00 20.4 C 94 % 19.4 C
3584 05-08-2019 10:35:00 20.4 C 93 % 19.23 C
3585 05-08-2019 10:40:00 20.3 C 91 % 18.78 C
3586 05-08-2019 10:45:00 20.4 C 91 % 18.88 C
3587 05-08-2019 10:50:00 20.4 C 89 % 18.53 C
3588 05-08-2019 10:55:00 20.6 C 90 % 18.9 C
3589 05-08-2019 11:00:00 20.8 C 89 % 18.92 C
3590 05-08-2019 11:05:00 21.1 C 87 % 18.85 C
3591 05-08-2019 11:10:00 21.4 C 88 % 19.33 C
3592 05-08-2019 11:15:00 21.7 C 87 % 19.44 C
3593 05-08-2019 11:20:00 21.8 C 85 % 19.16 C
3594 05-08-2019 11:25:00 21.8 C 84 % 18.97 C
3595 05-08-2019 11:30:00 22.1 C 83 % 19.08 C
3596 05-08-2019 11:35:00 22.3 C 83 % 19.27 C
3597 05-08-2019 11:40:00 22.4 C 80 % 18.78 C
3598 05-08-2019 11:45:00 22.6 C 80 % 18.97 C
3599 05-08-2019 11:50:00 22.8 C 81 % 19.37 C
3600 05-08-2019 11:55:00 23.1 C 82 % 19.86 C
Sensor: Nr:Datum:Temp:Feuchte:Taupunkt:
Aussen-T/F 3601 05-08-2019 12:00:00 23.3 C 79 % 19.45 C
3602 05-08-2019 12:05:00 23.4 C 75 % 18.71 C
3603 05-08-2019 12:10:00 23.6 C 74 % 18.69 C
3604 05-08-2019 12:15:00 23.7 C 73 % 18.57 C
3605 05-08-2019 12:20:00 23.9 C 69 % 17.87 C
3606 05-08-2019 12:25:00 24.1 C 68 % 17.82 C
3607 05-08-2019 12:30:00 24.3 C 68 % 18.01 C
3608 05-08-2019 12:35:00 24.6 C 65 % 17.58 C
3609 05-08-2019 12:40:00 24.8 C 63 % 17.28 C
3610 05-08-2019 12:45:00 24.9 C 65 % 17.87 C
3611 05-08-2019 12:50:00 25.2 C 63 % 17.65 C
3612 05-08-2019 12:55:00 25.2 C 63 % 17.65 C
3613 05-08-2019 13:00:00 25.2 C 64 % 17.9 C
3614 05-08-2019 13:05:00 25.3 C 62 % 17.5 C
3615 05-08-2019 13:10:00 25.5 C 61 % 17.43 C
3616 05-08-2019 13:15:00 25.7 C 62 % 17.87 C
3617 05-08-2019 13:20:00 25.8 C 61 % 17.71 C
3618 05-08-2019 13:25:00 25.9 C 61 % 17.8 C
3619 05-08-2019 13:30:00 26.2 C 59 % 17.55 C
3620 05-08-2019 13:35:00 26.3 C 59 % 17.65 C
3621 05-08-2019 13:40:00 26.4 C 56 % 16.92 C
3622 05-08-2019 13:45:00 26.5 C 58 % 17.56 C
3623 05-08-2019 13:50:00 26.6 C 57 % 17.38 C
3624 05-08-2019 13:55:00 26.6 C 57 % 17.38 C
3625 05-08-2019 14:00:00 26.6 C 58 % 17.66 C
Sensor: Nr:Datum:Temp:Feuchte:Taupunkt:
Aussen-T/F 3626 05-08-2019 14:05:00 26.6 C 57 % 17.38 C
3627 05-08-2019 14:10:00 26.7 C 56 % 17.19 C
3628 05-08-2019 14:15:00 26.8 C 56 % 17.29 C
3629 05-08-2019 14:20:00 27.1 C 55 % 17.28 C
3630 05-08-2019 14:25:00 27.3 C 54 % 17.18 C
3631 05-08-2019 14:30:00 27.3 C 53 % 16.88 C
3632 05-08-2019 14:35:00 27.3 C 55 % 17.47 C
3633 05-08-2019 14:40:00 27.3 C 53 % 16.88 C
3634 05-08-2019 14:45:00 27.3 C 53 % 16.88 C
3635 05-08-2019 14:50:00 27.4 C 54 % 17.27 C
3636 05-08-2019 14:55:00 27.7 C 52 % 16.95 C
3637 05-08-2019 15:00:00 27.8 C 47 % 15.45 C
3638 05-08-2019 15:05:00 27.9 C 50 % 16.51 C
3639 05-08-2019 15:10:00 28 C 50 % 16.61 C
3640 05-08-2019 15:15:00 28.4 C 50 % 16.97 C
3641 05-08-2019 15:20:00 28.4 C 48 % 16.33 C
3642 05-08-2019 15:25:00 28.4 C 45 % 15.32 C
3643 05-08-2019 15:30:00 28.5 C 46 % 15.75 C
3644 05-08-2019 15:35:00 28.3 C 45 % 15.23 C
3645 05-08-2019 15:40:00 28.4 C 45 % 15.32 C
3646 05-08-2019 15:45:00 28.7 C 44 % 15.24 C
3647 05-08-2019 15:50:00 28.8 C 44 % 15.33 C
3648 05-08-2019 15:55:00 28.9 C 44 % 15.42 C
3649 05-08-2019 16:00:00 28.9 C 41 % 14.33 C
3650 05-08-2019 16:05:00 28.9 C 42 % 14.7 C
Sensor: Nr:Datum:Temp:Feuchte:Taupunkt:
Aussen-T/F 3651 05-08-2019 16:10:00 29 C 42 % 14.79 C
3652 05-08-2019 16:15:00 29.1 C 41 % 14.51 C
3653 05-08-2019 16:20:00 29.1 C 41 % 14.51 C
3654 05-08-2019 16:25:00 29.1 C 41 % 14.51 C
3655 05-08-2019 16:30:00 29.1 C 41 % 14.51 C
3656 05-08-2019 16:35:00 28.9 C 41 % 14.33 C
3657 05-08-2019 16:40:00 28.8 C 41 % 14.24 C
3658 05-08-2019 16:45:00 28.7 C 41 % 14.15 C
3659 05-08-2019 16:50:00 28.5 C 42 % 14.34 C
3660 05-08-2019 16:55:00 28.4 C 42 % 14.25 C
3661 05-08-2019 17:00:00 28.3 C 42 % 14.16 C
3662 05-08-2019 17:05:00 28.3 C 43 % 14.53 C
3663 05-08-2019 17:10:00 28.3 C 42 % 14.16 C
3664 05-08-2019 17:15:00 28.3 C 42 % 14.16 C
3665 05-08-2019 17:20:00 28.3 C 42 % 14.16 C
3666 05-08-2019 17:25:00 28.3 C 41 % 13.79 C
3667 05-08-2019 17:30:00 28.3 C 42 % 14.16 C
3668 05-08-2019 17:35:00 28.3 C 42 % 14.16 C
3669 05-08-2019 17:40:00 28.2 C 42 % 14.07 C
3670 05-08-2019 17:45:00 28.1 C 42 % 13.98 C
3671 05-08-2019 17:50:00 28 C 43 % 14.26 C
3672 05-08-2019 17:55:00 28 C 42 % 13.89 C
3673 05-08-2019 18:00:00 28.1 C 43 % 14.35 C
3674 05-08-2019 18:05:00 28.2 C 42 % 14.07 C
3675 05-08-2019 18:10:00 28.1 C 42 % 13.98 C
Sensor: Nr:Datum:Temp:Feuchte:Taupunkt:
Aussen-T/F 3676 05-08-2019 18:15:00 27.9 C 40 % 13.05 C
3677 05-08-2019 18:20:00 27.8 C 42 % 13.71 C
3678 05-08-2019 18:25:00 27.7 C 41 % 13.25 C
3679 05-08-2019 18:30:00 27.5 C 42 % 13.44 C
3680 05-08-2019 18:35:00 27.4 C 43 % 13.72 C
3681 05-08-2019 18:40:00 27.5 C 43 % 13.81 C
3682 05-08-2019 18:45:00 27.5 C 43 % 13.81 C
3683 05-08-2019 18:50:00 27.4 C 42 % 13.35 C
3684 05-08-2019 18:55:00 27.3 C 43 % 13.63 C
3685 05-08-2019 19:00:00 27.2 C 44 % 13.89 C
3686 05-08-2019 19:05:00 27.1 C 44 % 13.8 C
3687 05-08-2019 19:10:00 27.1 C 44 % 13.8 C
3688 05-08-2019 19:15:00 26.9 C 45 % 13.96 C
3689 05-08-2019 19:20:00 26.8 C 45 % 13.87 C
3690 05-08-2019 19:25:00 26.8 C 46 % 14.21 C
3691 05-08-2019 19:30:00 26.7 C 46 % 14.12 C
3692 05-08-2019 19:35:00 26.6 C 47 % 14.36 C
3693 05-08-2019 19:40:00 26.4 C 48 % 14.51 C
3694 05-08-2019 19:45:00 26.3 C 48 % 14.42 C
3695 05-08-2019 19:50:00 26.3 C 49 % 14.74 C
3696 05-08-2019 19:55:00 26.2 C 51 % 15.27 C
3697 05-08-2019 20:00:00 26.1 C 47 % 13.91 C
3698 05-08-2019 20:05:00 26 C 48 % 14.14 C
3699 05-08-2019 20:10:00 25.9 C 45 % 13.06 C
3700 05-08-2019 20:15:00 25.8 C 48 % 13.96 C
Sensor: Nr:Datum:Temp:Feuchte:Taupunkt:
Aussen-T/F 3701 05-08-2019 20:20:00 25.7 C 53 % 15.4 C
3702 05-08-2019 20:25:00 25.5 C 55 % 15.8 C
3703 05-08-2019 20:30:00 25.2 C 57 % 16.08 C
3704 05-08-2019 20:35:00 24.9 C 58 % 16.07 C
3705 05-08-2019 20:40:00 24.6 C 59 % 16.06 C
3706 05-08-2019 20:45:00 24.2 C 59 % 15.68 C
3707 05-08-2019 20:50:00 23.8 C 57 % 14.77 C
3708 05-08-2019 20:55:00 23.5 C 57 % 14.49 C
3709 05-08-2019 21:00:00 23.3 C 58 % 14.58 C
3710 05-08-2019 21:05:00 23 C 58 % 14.29 C
3711 05-08-2019 21:10:00 22.7 C 59 % 14.28 C
3712 05-08-2019 21:15:00 22.4 C 61 % 14.51 C
3713 05-08-2019 21:20:00 22.2 C 62 % 14.58 C
3714 05-08-2019 21:25:00 22 C 61 % 14.14 C
3715 05-08-2019 21:30:00 21.8 C 62 % 14.2 C
3716 05-08-2019 21:35:00 21.7 C 62 % 14.1 C
3717 05-08-2019 21:40:00 21.6 C 62 % 14.01 C
3718 05-08-2019 21:45:00 21.5 C 62 % 13.92 C
3719 05-08-2019 21:50:00 21.4 C 63 % 14.07 C
3720 05-08-2019 21:55:00 21.3 C 64 % 14.22 C
3721 05-08-2019 22:00:00 21.2 C 64 % 14.12 C
3722 05-08-2019 22:05:00 21.1 C 66 % 14.5 C
3723 05-08-2019 22:10:00 21 C 66 % 14.41 C
3724 05-08-2019 22:15:00 20.8 C 68 % 14.68 C
3725 05-08-2019 22:20:00 20.7 C 69 % 14.81 C
Sensor: Nr:Datum:Temp:Feuchte:Taupunkt:
Aussen-T/F 3726 05-08-2019 22:25:00 20.6 C 70 % 14.94 C
3727 05-08-2019 22:30:00 20.4 C 71 % 14.97 C
3728 05-08-2019 22:35:00 20.3 C 71 % 14.87 C
3729 05-08-2019 22:40:00 20.2 C 71 % 14.78 C
3730 05-08-2019 22:45:00 20.1 C 72 % 14.9 C
3731 05-08-2019 22:50:00 20 C 71 % 14.58 C
3732 05-08-2019 22:55:00 20 C 73 % 15.01 C
3733 05-08-2019 23:00:00 19.9 C 73 % 14.92 C
3734 05-08-2019 23:05:00 19.8 C 72 % 14.61 C
3735 05-08-2019 23:10:00 19.8 C 73 % 14.82 C
3736 05-08-2019 23:15:00 19.7 C 73 % 14.73 C
3737 05-08-2019 23:20:00 19.6 C 74 % 14.84 C
3738 05-08-2019 23:25:00 19.4 C 74 % 14.65 C
3739 05-08-2019 23:30:00 19.3 C 74 % 14.55 C
3740 05-08-2019 23:35:00 19.1 C 74 % 14.36 C
3741 05-08-2019 23:40:00 18.9 C 75 % 14.37 C
3742 05-08-2019 23:45:00 18.8 C 75 % 14.28 C
3743 05-08-2019 23:50:00 18.6 C 76 % 14.29 C
3744 05-08-2019 23:55:00 18.5 C 75 % 13.99 C
3745 06-08-2019 00:00:00 18.4 C 77 % 14.3 C
3746 06-08-2019 00:05:00 18.3 C 77 % 14.2 C
3747 06-08-2019 00:10:00 18.2 C 77 % 14.1 C
3748 06-08-2019 00:15:00 18.2 C 77 % 14.1 C
3749 06-08-2019 00:20:00 18.1 C 78 % 14.21 C
3750 06-08-2019 00:25:00 18.1 C 78 % 14.21 C
Sensor: Nr:Datum:Temp:Feuchte:Taupunkt:
Aussen-T/F 3751 06-08-2019 00:30:00 18 C 79 % 14.31 C
3752 06-08-2019 00:35:00 17.9 C 79 % 14.21 C
3753 06-08-2019 00:40:00 17.8 C 78 % 13.91 C
3754 06-08-2019 00:45:00 17.8 C 79 % 14.11 C
3755 06-08-2019 00:50:00 17.7 C 80 % 14.21 C
3756 06-08-2019 00:55:00 17.6 C 80 % 14.11 C
3757 06-08-2019 01:00:00 17.4 C 80 % 13.92 C
3758 06-08-2019 01:05:00 17.3 C 81 % 14.01 C
3759 06-08-2019 01:10:00 17.3 C 81 % 14.01 C
3760 06-08-2019 01:15:00 17.2 C 81 % 13.91 C
3761 06-08-2019 01:20:00 17.2 C 81 % 13.91 C
3762 06-08-2019 01:25:00 17.1 C 81 % 13.82 C
3763 06-08-2019 01:30:00 17.1 C 82 % 14 C
3764 06-08-2019 01:35:00 17.1 C 82 % 14 C
3765 06-08-2019 01:40:00 16.9 C 82 % 13.81 C
3766 06-08-2019 01:45:00 16.9 C 82 % 13.81 C
3767 06-08-2019 01:50:00 16.9 C 82 % 13.81 C
3768 06-08-2019 01:55:00 16.9 C 82 % 13.81 C
3769 06-08-2019 02:00:00 16.8 C 82 % 13.71 C
3770 06-08-2019 02:05:00 16.7 C 83 % 13.8 C
3771 06-08-2019 02:10:00 16.7 C 83 % 13.8 C
3772 06-08-2019 02:15:00 16.7 C 83 % 13.8 C
3773 06-08-2019 02:20:00 16.7 C 84 % 13.98 C
3774 06-08-2019 02:25:00 16.8 C 84 % 14.08 C
3775 06-08-2019 02:30:00 17 C 83 % 14.09 C
Sensor: Nr:Datum:Temp:Feuchte:Taupunkt:
Aussen-T/F 3776 06-08-2019 02:35:00 17.2 C 83 % 14.29 C
3777 06-08-2019 02:40:00 17.3 C 82 % 14.2 C
3778 06-08-2019 02:45:00 17.4 C 82 % 14.3 C
3779 06-08-2019 02:50:00 17.4 C 83 % 14.48 C
3780 06-08-2019 02:55:00 17.4 C 83 % 14.48 C
3781 06-08-2019 03:00:00 17.4 C 83 % 14.48 C
3782 06-08-2019 03:05:00 17.4 C 83 % 14.48 C
3783 06-08-2019 03:10:00 17.5 C 83 % 14.58 C
3784 06-08-2019 03:15:00 17.5 C 83 % 14.58 C
3785 06-08-2019 03:20:00 17.5 C 83 % 14.58 C
3786 06-08-2019 03:25:00 17.5 C 83 % 14.58 C
3787 06-08-2019 03:30:00 17.4 C 83 % 14.48 C
3788 06-08-2019 03:35:00 17.4 C 83 % 14.48 C
3789 06-08-2019 03:40:00 17.4 C 84 % 14.67 C
3790 06-08-2019 03:45:00 17.4 C 83 % 14.48 C
3791 06-08-2019 03:50:00 17.5 C 83 % 14.58 C
3792 06-08-2019 03:55:00 17.6 C 83 % 14.68 C
3793 06-08-2019 04:00:00 17.6 C 83 % 14.68 C
3794 06-08-2019 04:05:00 17.5 C 83 % 14.58 C
3795 06-08-2019 04:10:00 17.5 C 83 % 14.58 C
3796 06-08-2019 04:15:00 17.4 C 84 % 14.67 C
3797 06-08-2019 04:20:00 17.3 C 84 % 14.57 C
3798 06-08-2019 04:25:00 17.3 C 83 % 14.39 C
3799 06-08-2019 04:30:00 17.2 C 83 % 14.29 C
3800 06-08-2019 04:35:00 17.1 C 84 % 14.38 C
Sensor: Nr:Datum:Temp:Feuchte:Taupunkt:
Aussen-T/F 3801 06-08-2019 04:40:00 16.9 C 84 % 14.18 C
3802 06-08-2019 04:45:00 16.9 C 85 % 14.36 C
3803 06-08-2019 04:50:00 16.9 C 85 % 14.36 C
3804 06-08-2019 04:55:00 16.9 C 85 % 14.36 C
3805 06-08-2019 05:00:00 16.8 C 85 % 14.26 C
3806 06-08-2019 05:05:00 16.8 C 85 % 14.26 C
3807 06-08-2019 05:10:00 16.7 C 85 % 14.17 C
3808 06-08-2019 05:15:00 16.6 C 85 % 14.07 C
3809 06-08-2019 05:20:00 16.6 C 86 % 14.25 C
3810 06-08-2019 05:25:00 16.6 C 86 % 14.25 C
3811 06-08-2019 05:30:00 16.6 C 86 % 14.25 C
3812 06-08-2019 05:35:00 16.6 C 86 % 14.25 C
3813 06-08-2019 05:40:00 16.6 C 86 % 14.25 C
3814 06-08-2019 05:45:00 16.5 C 86 % 14.15 C
3815 06-08-2019 05:50:00 16.5 C 86 % 14.15 C
3816 06-08-2019 05:55:00 16.4 C 86 % 14.05 C
3817 06-08-2019 06:00:00 16.3 C 86 % 13.95 C
3818 06-08-2019 06:05:00 16.3 C 87 % 14.13 C
3819 06-08-2019 06:10:00 16.3 C 87 % 14.13 C
3820 06-08-2019 06:15:00 16.4 C 87 % 14.23 C
3821 06-08-2019 06:20:00 16.5 C 87 % 14.33 C
3822 06-08-2019 06:25:00 16.6 C 87 % 14.43 C
3823 06-08-2019 06:30:00 16.7 C 87 % 14.53 C
3824 06-08-2019 06:35:00 16.8 C 87 % 14.62 C
3825 06-08-2019 06:40:00 16.9 C 86 % 14.54 C
Sensor: Nr:Datum:Temp:Feuchte:Taupunkt:
Aussen-T/F 3826 06-08-2019 06:45:00 17 C 86 % 14.64 C
3827 06-08-2019 06:50:00 17.1 C 86 % 14.74 C
3828 06-08-2019 06:55:00 17.1 C 86 % 14.74 C
3829 06-08-2019 07:00:00 17.2 C 86 % 14.84 C
3830 06-08-2019 07:05:00 17.3 C 85 % 14.76 C
3831 06-08-2019 07:10:00 17.5 C 84 % 14.77 C
3832 06-08-2019 07:15:00 17.7 C 83 % 14.78 C
3833 06-08-2019 07:20:00 17.8 C 83 % 14.88 C
3834 06-08-2019 07:25:00 17.8 C 83 % 14.88 C
3835 06-08-2019 07:30:00 17.9 C 83 % 14.97 C
3836 06-08-2019 07:35:00 18 C 83 % 15.07 C
3837 06-08-2019 07:40:00 18.1 C 83 % 15.17 C
3838 06-08-2019 07:45:00 18.2 C 82 % 15.08 C
3839 06-08-2019 07:50:00 18.2 C 82 % 15.08 C
3840 06-08-2019 07:55:00 18.3 C 82 % 15.17 C
3841 06-08-2019 08:00:00 18.3 C 82 % 15.17 C
3842 06-08-2019 08:05:00 18.4 C 82 % 15.27 C
3843 06-08-2019 08:10:00 18.4 C 81 % 15.08 C
3844 06-08-2019 08:15:00 18.5 C 81 % 15.18 C
3845 06-08-2019 08:20:00 18.6 C 81 % 15.28 C
3846 06-08-2019 08:25:00 18.6 C 81 % 15.28 C
3847 06-08-2019 08:30:00 18.7 C 81 % 15.37 C
3848 06-08-2019 08:35:00 18.8 C 81 % 15.47 C
3849 06-08-2019 08:40:00 18.8 C 81 % 15.47 C
3850 06-08-2019 08:45:00 18.9 C 81 % 15.57 C
Sensor: Nr:Datum:Temp:Feuchte:Taupunkt:
Aussen-T/F 3851 06-08-2019 08:50:00 19 C 81 % 15.67 C
3852 06-08-2019 08:55:00 19.1 C 80 % 15.57 C
3853 06-08-2019 09:00:00 19.3 C 79 % 15.57 C
3854 06-08-2019 09:05:00 19.4 C 79 % 15.66 C
3855 06-08-2019 09:10:00 19.7 C 78 % 15.76 C
3856 06-08-2019 09:15:00 19.8 C 77 % 15.65 C
3857 06-08-2019 09:20:00 19.9 C 76 % 15.54 C
3858 06-08-2019 09:25:00 20.1 C 77 % 15.94 C
3859 06-08-2019 09:30:00 20.1 C 77 % 15.94 C
3860 06-08-2019 09:35:00 20.3 C 76 % 15.93 C
3861 06-08-2019 09:40:00 20.4 C 76 % 16.03 C
3862 06-08-2019 09:45:00 20.6 C 75 % 16.01 C
3863 06-08-2019 09:50:00 20.8 C 74 % 16 C
3864 06-08-2019 09:55:00 20.8 C 74 % 16 C
3865 06-08-2019 10:00:00 20.8 C 73 % 15.78 C
3866 06-08-2019 10:05:00 20.7 C 77 % 16.52 C
3867 06-08-2019 10:10:00 20.6 C 80 % 17.03 C
3868 06-08-2019 10:15:00 20.4 C 81 % 17.03 C
3869 06-08-2019 10:20:00 20.2 C 83 % 17.22 C
3870 06-08-2019 10:25:00 19.9 C 84 % 17.12 C
3871 06-08-2019 10:30:00 19.7 C 86 % 17.29 C
3872 06-08-2019 10:35:00 19.6 C 87 % 17.38 C
3873 06-08-2019 10:40:00 19.4 C 88 % 17.36 C
3874 06-08-2019 10:45:00 19.3 C 88 % 17.26 C
3875 06-08-2019 10:50:00 19.2 C 89 % 17.34 C
Sensor: Nr: